[[{"header":{"parameterUnit":"m.s-1","parameterCategory":1,"la1":30.6,"la2":28.766,"lo1":-90.7593,"lo2":-88.6598,"dy":0.0162,"dx":0.0183,"nx":116,"ny":114,"refTime":"2023-06-17T00:00:00:Z","depth":0,"parameterNumber":2,"parameterNumberName":"U-component_of_WINDS"},"data":[0.0,0.0,0.0,0.0,0.0,0.0,0.0,0.0,0.0,0.0,0.0,0.0,0.0,0.0,0.0,0.0,0.0,0.0,0.0,0.0,0.0,0.0,0.0,0.0,0.0,0.0,0.0,0.0,0.0,0.0,0.0,0.0,0.0,0.0,0.0,0.0,0.0,0.0,0.0,0.0,0.0,0.0,0.0,0.0,0.0,0.0,0.0,0.0,0.0,0.0,0.0,0.0,0.0,0.0,0.0,0.0,0.0,0.0,0.0,0.0,0.0,0.0,0.0,0.0,0.0,0.0,0.0,0.0,0.0,0.0,0.0,0.0,0.0,0.0,0.0,0.0,0.0,0.0,0.0,0.0,0.0,0.0,0.0,0.0,0.0,0.0,0.0,0.0,0.0,0.0,0.0,0.0,0.0,0.0,0.0,0.0,0.0,0.0,0.0,0.0,0.0,0.0,0.0,0.0,0.0,0.0,0.0,0.0,0.0,0.0,0.0,0.0,0.0,0.0,0.0,0.0,0.0,0.0,0.0,0.0,0.0,0.0,0.0,0.0,0.0,0.0,0.0,0.0,0.0,0.0,0.0,0.0,0.0,0.0,0.0,0.0,0.0,0.0,0.0,0.0,0.0,0.0,0.0,0.0,0.0,0.0,0.0,0.0,0.0,0.0,0.0,0.0,0.0,0.0,0.0,0.0,0.0,0.0,0.0,0.0,0.0,0.0,0.0,0.0,0.0,0.0,0.0,0.0,0.0,0.0,0.0,0.0,0.0,0.0,0.0,0.0,0.0,0.0,0.0,0.0,0.0,0.0,0.0,0.0,0.0,0.0,0.0,0.0,0.0,0.0,0.0,0.0,0.0,0.0,0.0,0.0,0.0,0.0,0.0,0.0,0.0,0.0,0.0,0.0,0.0,0.0,0.0,0.0,0.0,0.0,0.0,0.0,0.0,0.0,0.0,0.0,0.0,0.0,0.0,0.0,0.0,0.0,0.0,0.0,0.0,0.0,0.0,0.0,0.0,0.0,0.0,0.0,0.0,0.0,0.0,0.0,0.0,0.0,0.0,0.0,0.0,0.0,0.0,0.0,0.0,0.0,0.0,0.0,0.0,0.0,0.0,0.0,0.0,0.0,0.0,0.0,0.0,0.0,0.0,0.0,0.0,0.0,0.0,0.0,0.0,0.0,0.0,0.0,0.0,0.0,0.0,0.0,0.0,0.0,0.0,0.0,0.0,0.0,0.0,0.0,0.0,0.0,0.0,0.0,0.0,0.0,0.0,0.0,0.0,0.0,0.0,0.0,0.0,0.0,0.0,0.0,0.0,0.0,0.0,0.0,0.0,0.0,0.0,0.0,0.0,0.0,0.0,0.0,0.0,0.0,0.0,0.0,0.0,0.0,0.0,0.0,0.0,0.0,0.0,0.0,0.0,0.0,0.0,0.0,0.0,0.0,0.0,0.0,0.0,0.0,0.0,0.0,0.0,0.0,0.0,0.0,0.0,0.0,0.0,0.0,0.0,0.0,0.0,0.0,0.0,0.0,0.0,0.0,0.0,0.0,0.0,0.0,0.0,0.0,0.0,0.0,0.0,0.0,0.0,0.0,0.0,0.0,0.0,0.0,0.0,0.0,0.0,0.0,0.0,0.0,0.0,0.0,0.0,0.0,0.0,0.0,0.0,0.0,0.0,0.0,0.0,0.0,0.0,0.0,0.0,0.0,0.0,0.0,0.0,0.0,0.0,0.0,0.0,0.0,0.0,0.0,0.0,0.0,0.0,0.0,0.0,0.0,0.0,0.0,0.0,0.0,0.0,0.0,0.0,0.0,0.0,0.0,0.0,0.0,0.0,0.0,0.0,0.0,0.0,0.0,0.0,0.0,0.0,0.0,0.0,0.0,0.0,0.0,0.0,0.0,0.0,0.0,0.0,0.0,0.0,0.0,0.0,0.0,0.0,0.0,0.0,0.0,0.0,0.0,0.0,0.0,0.0,0.0,0.0,0.0,0.0,0.0,0.0,0.0,0.0,0.0,0.0,0.0,0.0,0.0,0.0,0.0,0.0,0.0,0.0,0.0,0.0,0.0,0.0,0.0,0.0,0.0,0.0,0.0,0.0,0.0,0.0,0.0,0.0,0.0,0.0,0.0,0.0,0.0,0.0,0.0,0.0,0.0,0.0,0.0,0.0,0.0,0.0,0.0,0.0,0.0,0.0,0.0,0.0,0.0,0.0,0.0,0.0,0.0,0.0,0.0,0.0,0.0,0.0,0.0,0.0,0.0,0.0,0.0,0.0,0.0,0.0,0.0,0.0,0.0,0.0,0.0,0.0,0.0,0.0,0.0,0.0,0.0,0.0,0.0,0.0,0.0,0.0,0.0,0.0,0.0,0.0,0.0,0.0,0.0,0.0,0.0,0.0,0.0,0.0,0.0,0.0,0.0,0.0,0.0,0.0,0.0,0.0,0.0,0.0,0.0,0.0,0.0,0.0,0.0,0.0,0.0,0.0,0.0,0.0,0.0,0.0,0.0,0.0,0.0,0.0,0.0,0.0,0.0,0.0,0.0,0.0,0.0,0.0,0.0,0.0,0.0,0.0,0.0,0.0,0.0,0.0,0.0,0.0,0.0,0.0,0.0,0.0,0.0,0.0,0.0,0.0,0.0,0.0,0.0,0.0,0.0,0.0,0.0,0.0,0.0,0.0,0.0,0.0,0.0,0.0,0.0,0.0,0.0,0.0,0.0,0.0,0.0,0.0,0.0,0.0,0.0,0.0,0.0,0.0,0.0,0.0,0.0,0.0,0.0,0.0,0.0,0.0,0.0,0.0,0.0,0.0,0.0,0.0,0.0,0.0,0.0,0.0,0.0,0.0,0.0,0.0,0.0,0.0,0.0,0.0,0.0,0.0,0.0,0.0,0.0,0.0,0.0,0.0,0.0,0.0,0.0,0.0,0.0,0.0,0.0,0.0,0.0,0.0,0.0,0.0,0.0,0.0,0.0,0.0,0.0,0.0,0.0,0.0,0.0,0.0,0.0,0.0,0.0,0.0,0.0,0.0,0.0,0.0,0.0,0.0,0.0,0.0,0.0,0.0,0.0,0.0,0.0,0.0,0.0,0.0,0.0,0.0,0.0,0.0,0.0,0.0,0.0,0.0,0.0,0.0,0.0,0.0,0.0,0.0,0.0,0.0,0.0,0.0,0.0,0.0,0.0,0.0,0.0,0.0,0.0,0.0,0.0,0.0,0.0,0.0,0.0,0.0,0.0,0.0,0.0,0.0,0.0,0.0,0.0,0.0,0.0,0.0,0.0,0.0,0.0,0.0,0.0,0.0,0.0,0.0,0.0,0.0,0.0,0.0,0.0,0.0,0.0,0.0,0.0,0.0,0.0,0.0,0.0,0.0,0.0,0.0,0.0,0.0,0.0,0.0,0.0,0.0,0.0,0.0,0.0,0.0,0.0,0.0,0.0,0.0,0.0,0.0,0.0,0.0,0.0,0.0,0.0,0.0,0.0,0.0,0.0,0.0,0.0,0.0,0.0,0.0,0.0,0.0,0.0,0.0,0.0,0.0,0.0,0.0,0.0,0.0,0.0,0.0,0.0,0.0,0.0,0.0,0.0,0.0,0.0,0.0,0.0,0.0,0.0,0.0,0.0,0.0,0.0,0.0,0.0,0.0,0.0,0.0,0.0,0.0,0.0,0.0,0.0,0.0,0.0,0.0,0.0,0.0,0.0,0.0,0.0,0.0,0.0,0.0,0.0,0.0,0.0,0.0,0.0,0.0,0.0,0.0,0.0,0.0,0.0,0.0,0.0,0.0,0.0,0.0,0.0,0.0,0.0,0.0,0.0,0.0,0.0,0.0,0.0,0.0,0.0,0.0,0.0,0.0,0.0,0.0,0.0,0.0,0.0,0.0,0.0,0.0,0.0,0.0,0.0,0.0,0.0,0.0,0.0,0.0,0.0,0.0,0.0,0.0,0.0,0.0,0.0,0.0,0.0,0.0,0.0,0.0,0.0,0.0,0.0,0.0,0.0,0.0,0.0,0.0,0.0,0.0,0.0,0.0,0.0,0.0,0.0,0.0,0.0,0.0,0.0,0.0,0.0,0.0,0.0,0.0,0.0,0.0,0.0,0.0,0.0,0.0,0.0,0.0,0.0,0.0,0.0,0.0,0.0,0.0,0.0,0.0,0.0,0.0,0.0,0.0,0.0,0.0,0.0,0.0,0.0,0.0,0.0,0.0,0.0,0.0,0.0,0.0,0.0,0.0,0.0,0.0,0.0,0.0,0.0,0.0,0.0,0.0,0.0,0.0,0.0,0.0,0.0,0.0,0.0,0.0,0.0,0.0,0.0,0.0,0.0,0.0,0.0,0.0,0.0,0.0,0.0,0.0,0.0,0.0,0.0,0.0,0.0,0.0,0.0,0.0,0.0,0.0,0.0,0.0,0.0,0.0,0.0,0.0,0.0,0.0,0.0,0.0,0.0,0.0,0.0,0.0,0.0,0.0,0.0,0.0,0.0,0.0,0.0,0.0,0.0,0.0,0.0,0.0,0.0,0.0,0.0,0.0,0.0,0.0,0.0,0.0,0.0,0.0,0.0,0.0,0.0,0.0,0.0,0.0,0.0,0.0,0.0,0.0,0.0,0.0,0.0,0.0,0.0,0.0,0.0,0.0,0.0,0.0,0.0,0.0,0.0,0.0,0.0,0.0,0.0,0.0,0.0,0.0,0.0,0.0,0.0,0.0,0.0,0.0,0.0,0.0,0.0,0.0,0.0,0.0,0.0,0.0,0.0,0.0,0.0,0.0,0.0,0.0,0.0,0.0,0.0,0.0,0.0,0.0,0.0,0.0,0.0,0.0,0.0,0.0,0.0,0.0,0.0,0.0,0.0,0.0,0.0,0.0,0.0,0.0,0.0,0.0,0.0,0.0,0.0,0.0,0.0,0.0,0.0,0.0,0.0,0.0,0.0,0.0,0.0,0.0,0.0,0.0,0.0,0.0,0.0,0.0,0.0,0.0,0.0,0.0,0.0,0.0,0.0,0.0,0.0,0.0,0.0,0.0,0.0,0.0,0.0,0.0,0.0,0.0,0.0,0.0,0.0,0.0,0.0,0.0,0.0,0.0,0.0,0.0,0.0,0.0,0.0,0.0,0.0,0.0,0.0,0.0,0.0,0.0,0.0,0.0,0.0,0.0,0.0,0.0,0.0,0.0,0.0,0.0,0.0,0.0,0.0,0.0,0.0,0.0,0.0,0.0,0.0,0.0,0.0,0.0,0.0,0.0,0.0,0.0,0.0,0.0,0.0,0.0,0.0,0.0,0.0,0.0,0.0,0.0,0.0,0.0,0.0,0.0,0.0,0.0,0.0,0.0,0.0,0.0,0.0,0.0,0.0,0.0,0.0,0.0,0.0,0.0,0.0,0.0,0.0,0.0,0.0,0.0,0.0,0.0,0.0,0.0,0.0,0.0,0.0,0.0,0.0,0.0,0.0,0.0,0.0,0.0,0.0,0.0,0.0,0.0,0.0,0.0,0.0,0.0,0.0,0.0,0.0,0.0,0.0,0.0,0.0,0.0,0.0,0.0,0.0,0.0,0.0,0.0,0.0,0.0,0.0,0.0,0.0,0.0,0.0,0.0,0.0,0.0,0.0,0.0,0.0,0.0,0.0,0.0,0.0,0.0,0.0,0.0,0.0,0.0,0.0,0.0,0.0,0.0,0.0,0.0,0.0,0.0,0.0,0.0,0.0,0.0,0.0,0.0,0.0,0.0,0.0,0.0,0.0,0.0,0.0,0.0,0.0,0.0,0.0,0.0,0.0,0.0,0.0,0.0,0.0,0.0,0.0,0.0,0.0,0.0,0.0,0.0,0.0,0.0,0.0,0.0,0.0,0.0,0.0,0.0,0.0,0.0,0.0,0.0,0.0,0.0,0.0,0.0,0.0,0.0,0.0,0.0,0.0,0.0,0.0,0.0,0.0,0.0,0.0,0.0,0.0,0.0,0.0,0.0,0.0,0.0,0.0,0.0,0.0,0.0,0.0,0.0,0.0,0.0,0.0,0.0,0.0,0.0,0.0,0.0,0.0,0.0,0.0,0.0,0.0,0.0,0.0,0.0,0.0,-1.8762,-1.9531,0.0,0.0,0.0,0.0,0.0,0.0,0.0,0.0,0.0,0.0,0.0,0.0,0.0,0.0,0.0,0.0,0.0,0.0,0.0,0.0,0.0,0.0,0.0,0.0,0.0,0.0,0.0,0.0,0.0,0.0,0.0,0.0,0.0,0.0,0.0,0.0,0.0,0.0,0.0,0.0,0.0,0.0,0.0,0.0,0.0,0.0,0.0,0.0,0.0,0.0,0.0,0.0,0.0,0.0,0.0,0.0,0.0,0.0,0.0,0.0,0.0,0.0,0.0,0.0,0.0,0.0,0.0,0.0,0.0,0.0,0.0,0.0,0.0,0.0,0.0,0.0,0.0,0.0,0.0,0.0,0.0,0.0,0.0,0.0,0.0,0.0,0.0,0.0,0.0,0.0,0.0,0.0,0.0,0.0,0.0,0.0,0.0,0.0,0.0,0.0,0.0,0.0,0.0,0.0,0.0,0.0,0.0,0.0,0.0,0.0,0.0,0.0,0.0,0.0,-2.0263,-1.9904,0.0,0.0,0.0,0.0,0.0,0.0,0.0,0.0,0.0,0.0,0.0,0.0,0.0,0.0,0.0,0.0,0.0,0.0,0.0,0.0,0.0,0.0,0.0,0.0,0.0,0.0,0.0,0.0,0.0,0.0,0.0,0.0,0.0,0.0,0.0,0.0,0.0,0.0,0.0,0.0,0.0,0.0,0.0,0.0,0.0,0.0,0.0,0.0,0.0,0.0,0.0,0.0,0.0,0.0,0.0,0.0,0.0,0.0,0.0,0.0,0.0,0.0,0.0,0.0,0.0,0.0,0.0,0.0,0.0,0.0,0.0,0.0,0.0,0.0,0.0,0.0,0.0,0.0,0.0,0.0,0.0,0.0,0.0,0.0,0.0,0.0,0.0,0.0,0.0,0.0,0.0,0.0,0.0,0.0,0.0,0.0,0.0,0.0,0.0,0.0,0.0,0.0,0.0,0.0,0.0,0.0,0.0,0.0,-2.3522,-2.4327,-2.4714,-2.4961,-2.4988,-2.4782,-2.2994,-2.1235,-1.9671,-2.051,0.0,0.0,0.0,0.0,0.0,0.0,0.0,0.0,0.0,0.0,0.0,0.0,0.0,0.0,0.0,0.0,0.0,0.0,0.0,0.0,0.0,0.0,0.0,0.0,0.0,0.0,0.0,0.0,0.0,0.0,0.0,0.0,0.0,0.0,0.0,0.0,0.0,0.0,-2.5106,-2.5764,-2.6066,-2.5933,0.0,0.0,0.0,0.0,0.0,0.0,0.0,0.0,0.0,0.0,0.0,0.0,0.0,0.0,0.0,0.0,0.0,0.0,0.0,0.0,0.0,0.0,0.0,0.0,0.0,0.0,0.0,0.0,0.0,0.0,0.0,0.0,0.0,0.0,0.0,0.0,0.0,0.0,0.0,0.0,0.0,0.0,0.0,0.0,-2.2613,-2.1161,0.0,0.0,0.0,0.0,0.0,0.0,0.0,0.0,0.0,0.0,0.0,0.0,0.0,-2.3133,-2.3758,-2.3382,-2.353,-2.4157,-2.5552,-2.6228,-2.6341,-2.6969,-2.7253,-2.7296,-2.7972,0.0,-2.274,-2.1777,0.0,0.0,0.0,0.0,0.0,0.0,0.0,0.0,0.0,0.0,0.0,0.0,0.0,0.0,0.0,0.0,0.0,0.0,0.0,0.0,0.0,0.0,0.0,0.0,0.0,0.0,0.0,0.0,0.0,0.0,0.0,0.0,0.0,0.0,0.0,0.0,-2.4178,-2.551,-2.6722,-2.7006,-2.735,-2.7634,-2.5719,-2.4941,-2.5001,-2.4148,0.0,0.0,0.0,0.0,0.0,0.0,0.0,0.0,0.0,0.0,0.0,0.0,0.0,0.0,0.0,0.0,0.0,0.0,0.0,0.0,0.0,0.0,0.0,0.0,0.0,0.0,0.0,0.0,0.0,0.0,0.0,0.0,0.0,0.0,0.0,0.0,0.0,0.0,0.0,-2.3834,-2.3625,-2.2173,-2.2508,-2.2218,0.0,0.0,0.0,0.0,0.0,0.0,0.0,0.0,0.0,-2.5931,-2.5579,-2.5777,-2.655,-2.6503,-2.6896,-2.7835,-2.9152,-2.9961,-3.0279,-3.0926,-3.1151,-3.1026,-3.1564,-3.0837,-2.9166,-2.6719,-2.4914,-2.3687,0.0,0.0,0.0,0.0,-2.1802,-2.1986,0.0,0.0,0.0,0.0,0.0,0.0,0.0,0.0,0.0,0.0,0.0,0.0,0.0,0.0,0.0,-2.3355,0.0,0.0,0.0,0.0,0.0,0.0,0.0,0.0,0.0,0.0,0.0,0.0,0.0,-2.7679,-2.8338,-2.8667,-2.9026,-2.9295,-2.8113,-2.6871,-2.56,-2.4866,-2.4163,0.0,0.0,0.0,0.0,0.0,0.0,0.0,0.0,0.0,0.0,0.0,0.0,0.0,0.0,0.0,0.0,0.0,0.0,0.0,0.0,0.0,0.0,0.0,0.0,0.0,0.0,0.0,0.0,0.0,0.0,0.0,0.0,0.0,0.0,0.0,0.0,0.0,0.0,-2.4919,-2.5039,-2.3004,-2.4317,-2.4554,0.0,0.0,0.0,0.0,0.0,0.0,-2.574,-2.6015,-2.6875,-2.8552,-2.8496,-2.8794,-2.9673,-2.985,-3.0487,-3.1625,-3.2894,-3.3758,-3.4182,-3.4816,-3.4999,-3.4771,-3.4916,-3.4963,-3.4658,-3.134,-2.8794,-2.6899,-2.6325,-2.553,-2.4679,-2.4264,-2.3901,-2.3644,0.0,0.0,0.0,0.0,0.0,0.0,0.0,0.0,0.0,0.0,0.0,0.0,0.0,0.0,-2.4029,-2.5345,-2.4956,-2.4537,0.0,0.0,0.0,0.0,0.0,0.0,0.0,0.0,0.0,0.0,0.0,0.0,0.0,-3.1674,-3.1943,-3.1302,-3.0627,-2.9594,-2.8233,-2.5704,-2.4956,-2.536,0.0,0.0,0.0,0.0,0.0,0.0,0.0,0.0,0.0,0.0,0.0,0.0,0.0,0.0,0.0,0.0,0.0,0.0,0.0,0.0,0.0,0.0,0.0,0.0,0.0,0.0,0.0,0.0,0.0,0.0,0.0,0.0,0.0,0.0,0.0,0.0,0.0,0.0,0.0,-2.3122,-2.7159,0.0,0.0,0.0,0.0,-2.6548,-2.7114,-2.7664,-2.8097,-2.9622,-3.0575,-3.0811,-3.1389,-3.2213,-3.3345,-3.3263,-3.379,-3.488,-3.6226,-3.6956,-3.7125,-3.7849,-3.8096,-3.8004,-3.8508,-3.8224,-3.7174,-3.4011,-3.2538,-3.2103,-2.9861,-2.8894,-2.8649,-2.7157,-2.6364,-2.6055,0.0,0.0,0.0,0.0,0.0,0.0,0.0,0.0,0.0,0.0,0.0,0.0,0.0,-2.4477,-2.6063,-2.741,-2.7709,-2.7275,-2.5974,0.0,0.0,0.0,0.0,0.0,0.0,0.0,0.0,0.0,0.0,0.0,0.0,0.0,0.0,0.0,-3.2093,-3.1315,-3.0342,-2.8128,-2.6572,-2.5525,-2.4627,-2.4118,0.0,0.0,0.0,0.0,0.0,0.0,0.0,0.0,0.0,0.0,0.0,0.0,0.0,0.0,0.0,0.0,0.0,0.0,0.0,0.0,0.0,0.0,0.0,0.0,0.0,0.0,0.0,0.0,0.0,0.0,0.0,0.0,0.0,0.0,0.0,0.0,0.0,-2.9938,-3.1645,0.0,-3.0127,-2.9536,-2.9575,-3.0342,-2.9538,-2.9936,-3.2004,-3.2219,-3.2966,-3.4482,-3.4824,-3.5478,-3.6529,-3.6629,-3.7025,-3.7737,-3.822,-3.8612,-3.8967,-3.9199,-3.9264,-3.9237,-3.9345,-3.9041,-3.8402,-3.7285,-3.5561,-3.3576,-3.3403,-3.212,-3.0385,-3.0462,-2.9691,-2.8632,0.0,0.0,0.0,0.0,0.0,0.0,0.0,0.0,0.0,0.0,0.0,-2.2278,-2.3774,-2.5719,-2.747,-2.8816,-2.8906,-2.8158,-2.6378,0.0,0.0,0.0,0.0,0.0,0.0,0.0,0.0,0.0,0.0,0.0,0.0,0.0,0.0,0.0,0.0,0.0,-3.2108,-3.0806,-2.8712,-2.6213,-2.5555,-2.5285,-2.5061,0.0,0.0,0.0,0.0,0.0,0.0,0.0,0.0,0.0,0.0,0.0,0.0,0.0,0.0,0.0,0.0,0.0,0.0,0.0,0.0,0.0,0.0,0.0,0.0,0.0,0.0,0.0,0.0,0.0,0.0,0.0,0.0,0.0,0.0,-3.268,-3.4492,-3.5232,-3.6629,-3.6954,-3.5456,-3.4474,-3.422,-3.5007,-3.3829,-3.3987,-3.6068,-3.59,-3.6368,-3.7728,-3.8015,-3.8426,-3.8942,-3.9032,-3.9303,-3.9741,-3.9741,-3.9896,-4.0205,-4.0053,-3.99,-3.9685,-3.9494,-3.9007,-3.8315,-3.7687,-3.581,-3.3549,-3.5272,-3.4638,-3.2762,-3.284,-3.1806,-3.0212,0.0,0.0,0.0,0.0,0.0,0.0,0.0,0.0,0.0,0.0,-2.0887,-2.2503,-2.4433,-2.6452,-2.821,-2.949,-2.8382,-2.7036,-2.5734,-2.3176,0.0,0.0,0.0,0.0,0.0,0.0,0.0,0.0,0.0,0.0,0.0,0.0,0.0,0.0,0.0,0.0,0.0,-3.3499,-3.127,-2.7745,-2.6976,-2.6677,-2.6542,0.0,0.0,0.0,0.0,0.0,0.0,0.0,0.0,0.0,0.0,0.0,0.0,0.0,0.0,0.0,0.0,0.0,0.0,0.0,0.0,0.0,0.0,0.0,0.0,0.0,0.0,0.0,0.0,0.0,0.0,0.0,0.0,0.0,-3.332,-3.698,-3.9369,-3.8489,-4.1918,-4.313,-4.0012,-4.057,-4.0924,-4.0456,-4.0032,-3.9886,-4.0202,-4.0665,-4.0773,-4.0401,-4.0821,-4.0869,-4.0463,-4.0455,-4.0583,-4.0801,-4.0801,-4.0798,-4.0774,-4.0518,-4.0063,-3.9452,-3.9104,-3.8201,-3.682,-3.4894,-3.3174,-3.2019,-3.5138,-3.6086,-3.551,-3.3951,-3.2333,-3.0559,0.0,0.0,0.0,0.0,0.0,0.0,0.0,0.0,0.0,0.0,-2.1665,-2.3834,-2.5839,-2.7829,-2.9355,-3.0178,-2.9071,-2.7754,-2.6408,0.0,0.0,0.0,0.0,0.0,0.0,0.0,0.0,0.0,0.0,0.0,0.0,0.0,0.0,0.0,0.0,0.0,0.0,-3.3709,-3.2871,-3.1689,-2.9594,-2.8757,-2.8457,0.0,0.0,0.0,0.0,0.0,0.0,0.0,0.0,0.0,0.0,0.0,0.0,0.0,0.0,0.0,0.0,0.0,0.0,0.0,0.0,0.0,0.0,0.0,0.0,0.0,0.0,0.0,0.0,0.0,0.0,0.0,-3.2155,-3.5021,-3.6644,-3.9901,-4.2786,-4.4569,-4.5189,-4.5258,-4.4689,-4.4023,-4.3517,-4.3298,-4.2136,-4.1727,-4.2451,-4.1782,-4.168,-4.2236,-4.2427,-4.2286,-4.1785,-4.1831,-4.1559,-4.0955,-4.0955,-4.0797,-4.0507,-4.0333,-3.9716,-3.8733,-3.8106,-3.6327,-3.3632,-3.0986,-2.8145,-2.5838,-2.9655,-3.03,-2.8977,-2.843,-2.7684,-2.6858,0.0,0.0,0.0,0.0,0.0,0.0,0.0,0.0,0.0,0.0,-2.2143,-2.4253,-2.5989,-2.7709,-2.8771,-2.8861,-2.7934,-2.6557,-2.4672,0.0,0.0,0.0,0.0,0.0,0.0,0.0,0.0,0.0,0.0,0.0,0.0,0.0,0.0,0.0,0.0,0.0,0.0,0.0,-3.4337,-3.4173,-3.2362,-3.13,-3.0477,-2.744,-2.6707,-2.7145,-2.6092,-2.6199,-2.6702,-2.562,0.0,0.0,0.0,0.0,0.0,0.0,0.0,0.0,0.0,0.0,0.0,0.0,0.0,0.0,0.0,0.0,0.0,0.0,0.0,0.0,0.0,0.0,0.0,0.0,-3.5313,-3.8703,-4.0692,-4.3414,-4.6094,-4.8521,-4.8678,-4.848,-4.8195,-4.7465,-4.6708,-4.6078,-4.5177,-4.487,-4.5224,-4.4589,-4.4222,-4.4305,-4.4338,-4.3885,-4.2898,-4.2557,-4.2104,-4.1542,-4.1125,-4.0707,-4.0301,-3.9831,-3.8925,-3.7666,-3.6898,-3.4621,-3.1151,-2.7748,-2.4519,-2.1947,0.0,0.0,0.0,0.0,-2.319,-2.3355,0.0,0.0,0.0,0.0,0.0,0.0,0.0,0.0,0.0,0.0,0.0,-2.4014,-2.536,-2.6602,-2.7111,-2.6527,-2.5869,-2.4507,0.0,0.0,0.0,0.0,0.0,0.0,0.0,0.0,0.0,0.0,0.0,0.0,0.0,0.0,0.0,0.0,0.0,0.0,0.0,0.0,-3.5579,-3.5444,-3.4756,-3.3724,-3.2347,-2.9789,-2.9131,-2.9507,-2.8762,-2.8589,-2.8604,-2.7845,0.0,0.0,0.0,0.0,0.0,0.0,0.0,0.0,0.0,0.0,0.0,0.0,0.0,0.0,0.0,0.0,0.0,0.0,0.0,0.0,0.0,0.0,0.0,0.0,-3.8963,-4.2944,-4.4586,-4.6713,-4.8775,-5.0654,-5.1643,-5.1695,-5.052,-5.0354,-4.981,-4.8628,-4.8443,-4.8267,-4.7967,-4.7923,0.0,0.0,0.0,-4.5531,-4.4004,-4.3027,-4.2456,-4.2275,-4.124,-4.0552,-4.0149,-3.9293,-3.8094,-3.664,-3.5797,-3.3246,-2.9448,-2.53,-2.1685,-1.8757,-1.8779,-1.7794,-1.6571,-1.7881,-1.8957,-1.9881,0.0,0.0,0.0,0.0,0.0,0.0,0.0,0.0,0.0,-2.0528,-2.1964,-2.3355,-2.4627,-2.5525,-2.5929,-2.5809,-2.5196,-2.4597,0.0,0.0,0.0,0.0,0.0,0.0,0.0,0.0,0.0,0.0,0.0,0.0,0.0,0.0,0.0,0.0,0.0,0.0,0.0,0.0,-3.5983,-3.5444,-3.4756,-3.4008,-3.3066,-3.0941,-2.9909,-2.9454,-2.8243,-2.8505,-2.9192,-2.8022,-2.8339,-2.8966,-2.746,0.0,0.0,0.0,0.0,0.0,0.0,0.0,0.0,0.0,0.0,0.0,0.0,0.0,0.0,0.0,0.0,0.0,0.0,0.0,0.0,-3.6443,-3.9314,-4.2106,-4.5131,-4.697,-4.8699,-5.0514,-5.1084,-5.1249,-5.1047,-5.0681,-5.0306,-4.9948,-4.9275,-4.8875,-4.8937,-4.858,-4.8363,-4.8356,-4.7674,-4.6815,-4.5801,-4.4238,-4.3012,-4.2142,-4.1014,0.0,-4.0019,-3.956,-3.8636,-3.7274,-3.6031,-3.3246,-2.9182,-2.4711,-1.8113,-1.1031,-1.2934,-1.2337,-1.086,-1.3856,-1.5093,-1.5518,0.0,0.0,0.0,0.0,0.0,0.0,0.0,0.0,0.0,0.0,-2.1575,-2.2562,-2.355,-2.3954,-2.4014,-2.3684,-2.334,0.0,0.0,0.0,0.0,0.0,0.0,0.0,0.0,0.0,0.0,0.0,0.0,0.0,0.0,0.0,0.0,0.0,0.0,0.0,0.0,0.0,0.0,-3.5474,-3.513,-3.4397,-3.335,-3.2018,-3.112,-3.0518,-3.0205,-3.0548,-3.0975,-2.9938,-3.006,-3.038,-2.9007,-2.835,-2.7968,0.0,0.0,0.0,0.0,0.0,0.0,0.0,0.0,0.0,0.0,0.0,0.0,0.0,0.0,-2.8944,-3.1811,0.0,-3.5589,-3.9002,-4.0786,-4.2406,-4.4401,-4.6035,-4.7735,-4.976,-5.084,-5.1297,-5.1074,-5.0894,-5.075,-5.0608,-5.0188,-5.0009,-5.0199,-4.9987,-4.9757,-4.9551,-4.8648,-4.7723,-4.6864,-4.5126,-4.3962,-4.3389,-4.2205,-4.1313,-4.0686,-4.001,-3.8669,-3.6887,-3.5969,-3.3532,-2.9731,-2.4334,-1.7729,-1.1055,-1.2307,-1.046,-0.7365,-0.9795,-1.1322,-1.2608,0.0,0.0,0.0,0.0,0.0,0.0,0.0,0.0,0.0,0.0,0.0,-2.171,-2.2233,-2.2293,-2.2084,0.0,0.0,0.0,0.0,0.0,0.0,0.0,0.0,0.0,0.0,0.0,0.0,0.0,0.0,0.0,0.0,0.0,0.0,0.0,0.0,0.0,0.0,0.0,0.0,-3.5504,-3.5504,-3.4771,-3.3619,-3.2961,-3.2213,-3.1582,-3.216,-3.2213,-3.1921,-3.1505,-3.1327,-3.105,-3.0063,-2.9863,-2.9769,-2.8874,-2.9312,0.0,0.0,0.0,0.0,0.0,0.0,0.0,0.0,0.0,-2.8952,-3.0348,-3.0996,-3.2317,-3.5654,-3.6911,-3.8302,-4.095,-4.2162,-4.2807,-4.3047,-4.4218,-4.5774,-4.7766,-4.9946,-5.114,-5.0854,-5.0936,-5.0995,-5.0903,-5.0842,-5.0914,-5.1128,-5.1171,-5.0933,-5.0383,-4.9451,-4.8597,-4.7865,-4.5996,-4.5007,-4.49,-4.344,-4.2296,-4.1386,-4.0288,-3.8634,-3.66,-3.5649,-3.3548,-3.0335,-2.4683,-1.9215,-1.4469,-1.3976,-1.0656,-0.6323,-0.7559,-0.8945,-1.0599,0.0,0.0,0.0,0.0,0.0,0.0,0.0,0.0,0.0,0.0,0.0,0.0,0.0,0.0,0.0,0.0,0.0,0.0,0.0,0.0,0.0,0.0,0.0,0.0,0.0,0.0,0.0,0.0,0.0,0.0,0.0,0.0,0.0,0.0,0.0,0.0,0.0,0.0,0.0,-3.5504,-3.5504,-3.504,-3.4292,-3.3634,-3.2617,-3.1539,-3.1582,-3.0889,-3.0027,-3.0453,-3.0243,-2.9907,-3.0258,-3.0794,-3.1022,-3.0225,0.0,-2.9107,-2.8822,-2.9397,-3.0226,-3.07,-3.0758,-3.1589,0.0,0.0,-3.39,-3.5368,-3.6633,-3.7719,-3.8781,-3.9993,-4.095,-4.1324,-4.2016,-4.2107,-4.114,-4.1628,-4.2427,-4.3349,-4.7191,-4.9969,-5.0497,-5.066,-5.0789,-5.0887,-5.0676,-5.0661,-5.0913,-5.1055,-5.1083,-5.0995,-5.0249,-4.9754,-4.9531,-4.7146,-4.5857,-4.5648,-4.3363,-4.2019,-4.1548,-4.0116,-3.8802,-3.7502,-3.4693,-3.2479,-3.0538,-2.6625,-2.2633,-1.8828,-1.6337,-1.2825,-0.9158,-1.0277,-1.0143,-0.9596,0.0,0.0,0.0,0.0,0.0,0.0,0.0,0.0,0.0,0.0,0.0,0.0,0.0,0.0,0.0,0.0,0.0,0.0,0.0,0.0,0.0,0.0,0.0,0.0,0.0,0.0,0.0,0.0,0.0,0.0,0.0,0.0,0.0,0.0,0.0,0.0,0.0,0.0,0.0,-3.5504,-3.5504,-3.51,-3.4412,-3.3739,-3.2677,-3.1377,-3.0672,-3.0043,0.0,0.0,-2.922,-2.9222,-3.0236,-3.0666,-3.067,-2.9847,-3.0228,0.0,-3.1427,-3.1157,-3.1089,-3.2663,-3.3357,-3.4134,-3.6075,-3.6321,-3.6501,-3.7916,-3.8916,-3.9888,-4.0935,-4.1579,-4.1953,-4.1953,-4.1863,-4.137,-4.0147,-3.9931,-4.0019,-4.0337,-4.2442,-4.5217,-4.8716,-4.927,-4.9731,-5.0487,-5.0522,-5.0548,-5.0661,-5.079,-5.0938,-5.1094,-5.0002,-4.9387,-4.9338,-4.7451,-4.6312,-4.5897,-4.3501,-4.2283,-4.2005,-3.9898,-3.8257,-3.7024,-3.5292,-3.4031,-3.2944,-2.9176,-2.5891,-2.2857,-1.9488,-1.5906,-1.237,-1.0942,-0.9465,-0.859,0.0,0.0,0.0,0.0,0.0,0.0,0.0,0.0,0.0,0.0,0.0,0.0,0.0,0.0,0.0,0.0,0.0,0.0,0.0,0.0,0.0,0.0,0.0,0.0,0.0,0.0,0.0,0.0,0.0,0.0,0.0,0.0,0.0,0.0,0.0,0.0,0.0,0.0,0.0,-3.5489,-3.5295,-3.4921,-3.4367,-3.3335,-3.2243,-3.1106,-2.9983,-2.922,0.0,0.0,-2.7934,-2.7976,-2.9138,-2.9701,-2.9828,-2.9377,-3.0551,-3.2053,-3.2408,-3.2277,-3.251,-3.4249,-3.5497,-3.6502,-3.7126,-3.7897,-3.885,-3.9961,-4.0756,-4.1444,-4.2222,-4.2357,-4.2237,-4.1878,-4.1414,-4.0502,-3.869,-3.8069,-3.7563,-3.7122,-3.7584,-3.9753,-4.4441,-4.6475,-4.8119,-4.9551,-4.9787,-5.0015,-5.0371,-5.0257,-5.0317,-5.0646,-4.9708,-4.925,-4.9364,-4.7796,-4.6436,-4.5245,-4.2886,-4.1366,-4.0618,-3.8925,-3.7534,-3.6398,-3.6114,-3.5716,-3.4967,-3.177,-2.8757,-2.5791,-2.2557,-1.8908,-1.5056,-1.2618,-1.0583,-0.9192,0.0,0.0,0.0,0.0,0.0,0.0,0.0,0.0,0.0,0.0,0.0,0.0,0.0,0.0,0.0,0.0,0.0,0.0,0.0,0.0,0.0,0.0,0.0,0.0,0.0,0.0,0.0,0.0,0.0,0.0,0.0,0.0,0.0,0.0,0.0,0.0,0.0,0.0,0.0,-3.5444,-3.4771,-3.4502,-3.4262,-3.2332,-3.115,-3.0447,-2.9804,0.0,0.0,0.0,-2.6228,-2.5809,-2.6516,-2.7603,0.0,-2.9255,-3.0251,-3.1072,-3.0395,-3.2197,-3.4497,-3.5283,-3.6969,-3.8577,-3.9267,-4.0375,-4.1505,-4.2209,-4.2791,-4.3075,-4.2476,-4.2357,-4.1938,-4.0666,-4.0442,-3.9416,-3.6533,-3.565,-3.4777,-3.3245,-3.3136,-3.4211,-3.6771,-4.1876,-4.5871,-4.793,-4.8183,-4.8819,-5.0046,-4.9308,-4.907,-4.9523,-4.9626,-4.9875,-5.0256,-4.8421,-4.6121,-4.3435,-4.1028,-3.8619,-3.6336,-3.6818,-3.6655,-3.5956,-3.6916,-3.6777,-3.5726,-3.3971,-3.0951,-2.7311,-2.5625,-2.1595,-1.6686,-1.6659,-1.4799,-1.2188,0.0,0.0,0.0,0.0,0.0,0.0,0.0,0.0,0.0,0.0,0.0,0.0,0.0,0.0,0.0,0.0,0.0,0.0,0.0,0.0,0.0,0.0,0.0,0.0,0.0,0.0,0.0,0.0,0.0,0.0,0.0,0.0,0.0,0.0,0.0,0.0,0.0,0.0,0.0,0.0,-3.4277,-3.4083,-3.4203,-3.1779,-3.0447,-2.9624,0.0,0.0,0.0,0.0,-2.5136,-2.5076,-2.5734,-2.6184,-2.6691,-2.7699,-2.8269,-2.899,-3.1034,-3.2579,-3.4265,-3.6719,-3.8276,-3.9579,-4.1076,-4.1776,-4.2087,-4.2312,-4.1848,-4.119,-4.0531,-4.0038,-3.9341,-3.8194,-3.8603,-3.8132,-3.53,-3.464,-3.365,-3.171,-3.142,-3.1975,-3.3437,-3.7268,-4.0581,-4.2848,-4.3152,-4.3146,-4.3,-4.3935,-4.4848,-4.5708,-4.6676,-4.769,-4.8775,-4.8148,-4.5754,-4.1638,-3.7721,-3.4651,-3.2487,-3.397,-3.4265,-3.3661,-3.4836,-3.5427,-3.5328,-3.2896,-3.1033,-2.9369,-2.6238,-2.34,-2.1156,-2.0324,-1.9315,-1.7937,0.0,0.0,0.0,0.0,0.0,0.0,0.0,0.0,0.0,0.0,0.0,0.0,0.0,0.0,0.0,0.0,0.0,0.0,0.0,0.0,0.0,0.0,0.0,0.0,0.0,0.0,0.0,0.0,0.0,0.0,0.0,0.0,0.0,0.0,0.0,0.0,0.0,0.0,0.0,0.0,-3.2871,-3.2407,-3.2138,-2.9939,-2.8712,0.0,0.0,0.0,0.0,-2.4403,-2.4253,-2.4343,-2.4762,-2.5302,-2.5936,-2.6745,-2.7799,-2.9335,-3.2262,-3.3682,-3.5091,-3.8052,-3.929,-4.0188,-4.1415,-4.1848,-4.1938,-4.1713,-4.0801,-3.9768,-3.8871,-3.7958,-3.7049,-3.6131,-3.6354,-3.5981,-3.4199,-3.3296,-3.2384,-3.1073,-3.0368,-3.0368,-3.1378,-3.3462,-3.6097,-3.9521,-3.9708,-3.9606,-3.9426,-3.9844,-4.0456,-4.1319,-4.2715,-4.3892,-4.4994,-4.5722,-4.3845,-3.9394,-3.5307,-3.2205,-3.0241,-3.1834,-3.2307,-3.1978,-3.3172,-3.3927,-3.4286,-3.2503,-3.1441,-3.0726,-2.8145,-2.6182,-2.4773,-2.3476,-2.265,-2.1649,0.0,0.0,0.0,0.0,0.0,0.0,0.0,0.0,0.0,0.0,0.0,0.0,0.0,0.0,0.0,0.0,0.0,0.0,0.0,0.0,0.0,0.0,0.0,0.0,0.0,0.0,0.0,0.0,0.0,0.0,0.0,0.0,0.0,0.0,0.0,0.0,0.0,0.0,0.0,0.0,0.0,0.0,-2.8442,-2.7066,0.0,0.0,0.0,0.0,0.0,0.0,-2.3699,-2.3744,-2.3744,-2.5057,-2.6559,-2.6562,-2.8873,-3.1865,-3.3927,-3.5424,-3.6952,-3.9031,-3.9879,-4.0278,-4.0308,-4.0741,-4.0965,-4.0382,-3.9664,-3.8751,0.0,0.0,-3.5145,-3.4454,-3.3933,-3.3458,-3.3068,-3.1797,-3.1006,-3.1122,-2.9907,-2.9465,-3.052,-3.0696,-3.2773,-3.7757,-3.7836,-3.8039,-3.8982,-3.7114,-3.6273,-3.6832,-3.8126,-3.9015,-3.9413,-4.1321,-4.051,-3.6925,-3.3847,-3.1381,-2.9487,-3.0435,-3.092,-3.1009,-3.2031,-3.2509,-3.2671,-3.2732,-3.2191,-3.1335,-3.1311,-2.984,-2.7535,-2.6245,-2.4899,-2.3573,0.0,0.0,0.0,0.0,0.0,0.0,0.0,0.0,0.0,0.0,0.0,0.0,0.0,0.0,0.0,0.0,0.0,0.0,0.0,0.0,0.0,0.0,0.0,0.0,0.0,0.0,0.0,0.0,0.0,0.0,0.0,0.0,0.0,0.0,0.0,0.0,0.0,0.0,0.0,0.0,0.0,-2.8427,-2.8397,0.0,0.0,0.0,0.0,0.0,0.0,0.0,0.0,0.0,0.0,-2.6537,-2.7493,-2.852,-3.0091,-3.2038,-3.4562,-3.6148,-3.7428,-3.8694,-3.8793,-3.8762,-3.9153,-3.8643,-3.8135,-3.8162,-3.6881,-3.534,-3.4008,-3.3499,-3.3104,-3.2614,-3.3539,-3.3791,-3.2477,-3.255,0.0,-3.0368,0.0,-3.0721,-3.062,-3.1725,-3.3008,-3.4312,-3.4339,-3.4209,-3.3983,-3.5076,-3.5371,-3.4746,-3.6417,-3.7197,-3.6977,-3.7822,-3.7697,-3.6685,-3.446,-3.2392,-3.0613,-3.0044,-2.9806,-2.9806,-3.0134,-3.0432,-3.0778,-3.1318,-3.2086,-3.2896,-3.2575,-3.2019,-3.1249,-3.0085,-2.8862,-2.7723,0.0,0.0,0.0,0.0,0.0,0.0,0.0,0.0,0.0,0.0,0.0,0.0,0.0,0.0,0.0,0.0,0.0,0.0,0.0,0.0,0.0,0.0,0.0,0.0,0.0,0.0,0.0,0.0,0.0,0.0,0.0,0.0,0.0,0.0,0.0,0.0,0.0,0.0,0.0,0.0,0.0,0.0,0.0,0.0,0.0,0.0,0.0,0.0,0.0,0.0,0.0,-2.7126,-2.7709,-2.8547,-2.9579,-3.0911,0.0,-3.3724,-3.5789,-3.7075,-3.7942,-3.8257,-3.7962,-3.7368,-3.6778,-3.5892,-3.4996,-3.4438,-3.3194,-3.2003,-3.1249,-3.0896,-3.0852,0.0,0.0,0.0,-3.204,-3.1979,-3.1742,0.0,-3.1775,0.0,-3.2064,-3.3106,-3.3796,-3.3796,-3.333,-3.2816,-3.2456,-3.311,-3.33,-3.272,-3.3646,-3.4543,-3.5466,-3.6185,-3.7107,-3.8217,-3.6627,-3.5153,-3.3628,-3.1598,-3.0314,-2.9539,-2.9047,-2.9059,-2.9567,-3.0626,-3.2046,-3.3521,-3.3862,-3.4089,-3.4149,-3.2971,-3.1808,-3.0761,0.0,0.0,0.0,0.0,0.0,0.0,0.0,0.0,0.0,0.0,0.0,0.0,0.0,0.0,0.0,0.0,0.0,0.0,0.0,0.0,0.0,0.0,0.0,0.0,0.0,0.0,0.0,0.0,0.0,0.0,0.0,0.0,0.0,0.0,0.0,0.0,0.0,0.0,0.0,0.0,0.0,0.0,0.0,0.0,0.0,0.0,0.0,0.0,0.0,0.0,-2.791,-2.8442,-2.9699,-3.1001,-3.2302,-3.3529,-3.4771,-3.6013,-3.721,-3.8018,-3.8403,-3.7808,-3.7092,-3.5982,-3.3912,-3.2707,-3.1653,-3.0163,-2.9317,-2.8942,-2.89,-2.8598,-2.8811,-3.0083,0.0,-2.9983,-3.1724,-3.107,-3.0934,-3.2424,-3.2938,-3.3294,-3.3847,-3.4399,-3.4751,-3.4826,-3.3937,-3.3368,-3.3203,-3.2287,-3.162,-3.136,-3.1112,-3.1971,-3.436,-3.5804,-3.7638,-3.9785,-3.929,-3.8567,-3.7496,-3.4214,-3.2015,-3.0526,-2.907,-2.8631,-2.9016,-3.0328,-3.1996,-3.3822,-3.5273,-3.6211,-3.6577,-3.5399,-3.4297,-3.3161,0.0,0.0,0.0,0.0,0.0,0.0,0.0,0.0,0.0,0.0,-2.2682,-2.2547,0.0,0.0,0.0,0.0,0.0,0.0,0.0,0.0,0.0,0.0,0.0,0.0,0.0,0.0,0.0,0.0,0.0,0.0,0.0,0.0,0.0,0.0,0.0,0.0,0.0,0.0,0.0,0.0,0.0,0.0,0.0,0.0,0.0,0.0,0.0,0.0,0.0,0.0,-2.9385,-3.1794,-3.2572,-3.3739,-3.4966,-3.5744,-3.6492,-3.724,-3.8018,-3.8721,-3.8894,-3.7359,-3.5634,-3.3842,-3.1943,-2.9642,0.0,0.0,-2.7169,-2.6832,-2.6274,-2.7413,-2.8598,-2.9153,-3.0097,-3.0884,-3.1263,-3.1925,-3.2111,0.0,-3.2546,-3.3294,-3.3847,-3.4399,-3.4914,-3.5366,-3.5619,-3.5587,-3.5046,-3.5338,-3.4771,-3.3267,-3.1762,-3.1469,-3.2568,-3.5963,-3.748,-3.7122,-4.014,-4.0896,-3.9564,-3.6637,-3.5107,-3.46,-3.107,-2.9483,-2.9589,-3.0568,-3.2348,-3.4751,-3.6815,-3.8266,-3.9061,-3.8346,-3.7344,-3.6034,0.0,0.0,0.0,0.0,0.0,0.0,0.0,-2.2868,-2.3139,-2.3866,-2.3646,-2.3579,-2.3917,-2.271,-2.1908,0.0,0.0,0.0,0.0,0.0,0.0,0.0,0.0,0.0,0.0,0.0,-2.0872,-2.1186,0.0,0.0,0.0,-2.3011,-2.331,0.0,0.0,0.0,0.0,0.0,0.0,0.0,0.0,0.0,0.0,0.0,0.0,0.0,0.0,0.0,0.0,0.0,-2.9265,-3.2243,-3.3589,-3.4936,-3.6207,-3.7195,-3.7689,-3.8063,-3.8736,-3.917,-3.8868,-3.6636,-3.4966,-3.2911,-2.9426,0.0,0.0,0.0,-2.3934,-2.3897,-2.3987,-2.5287,0.0,-2.7533,-2.8152,-2.9026,-3.0559,-3.0797,-3.1046,-3.1757,-3.2817,-3.3721,-3.4274,-3.4826,-3.5378,-3.5931,-3.6219,-3.6245,-3.5981,-3.6219,-3.5651,-3.4113,-3.3262,-3.3126,-3.3759,-3.6159,-3.8222,-3.9795,-4.1317,-4.2552,-4.3365,-3.992,-3.8035,-3.7255,-3.3391,-3.1095,-3.0074,-3.045,-3.1882,-3.4145,-3.6534,-3.8422,-3.9751,-4.0037,-3.9223,-3.7737,0.0,0.0,0.0,0.0,0.0,0.0,0.0,-2.3182,-2.3371,-2.4357,-2.4371,-2.4326,-2.4536,-2.3227,-2.2273,0.0,0.0,0.0,0.0,0.0,0.0,0.0,0.0,0.0,0.0,0.0,0.0,-2.0917,-2.2099,0.0,0.0,0.0,0.0,0.0,-2.3595,-2.3595,0.0,0.0,0.0,0.0,0.0,-2.3595,0.0,0.0,0.0,0.0,0.0,0.0,0.0,0.0,-2.8203,-3.0791,-3.2632,-3.4622,-3.6447,-3.73,-3.7853,-3.8332,-3.9005,-3.9145,-3.8517,-3.6104,-3.4386,-3.2096,-2.7472,-2.5365,0.0,-2.1581,-2.123,-2.1526,-2.2085,0.0,-2.442,0.0,-2.6022,-2.6984,-2.9568,-2.9563,-2.9967,0.0,-3.3031,0.0,-3.4663,-3.5115,-3.5655,-3.6307,-3.6358,-3.6358,-3.6358,-3.6358,-3.5966,-3.4872,-3.5041,-3.5392,-3.576,-3.7052,-3.9254,-4.2337,-4.2228,-4.3652,-4.626,-4.3119,-4.0972,-3.9532,-3.5967,-3.3017,-3.0721,-3.0421,-3.1315,-3.3172,-3.5567,-3.7628,-3.9159,-4.0426,-3.9938,-3.8673,0.0,0.0,0.0,0.0,0.0,0.0,0.0,-2.2475,-2.2405,-2.4259,-2.39,-2.3832,-2.4678,-2.374,-2.283,0.0,0.0,0.0,0.0,0.0,0.0,0.0,0.0,0.0,0.0,0.0,0.0,-2.1605,-2.2323,0.0,0.0,0.0,0.0,0.0,0.0,-2.3595,-2.3595,0.0,0.0,0.0,0.0,0.0,0.0,0.0,0.0,0.0,0.0,0.0,0.0,0.0,0.0,-2.729,-2.8697,-3.2108,-3.5504,-3.4981,0.0,0.0,-3.8302,-3.8238,-3.7616,-3.6302,-3.372,-3.0565,-2.7033,0.0,-2.2661,-2.0413,-2.0376,-2.0794,-2.0835,-2.19,-2.307,-2.4083,0.0,-2.6505,-2.8062,-2.9567,-3.0708,-3.1386,0.0,0.0,-3.4625,-3.4763,-3.5228,-3.6282,-3.6358,-3.6358,-3.6358,-3.6358,-3.6358,-3.625,-3.7217,-3.7546,-3.7148,-3.9186,-4.0323,-4.0546,-4.2294,-4.4103,-4.5956,-4.5453,-4.4233,-4.2303,-3.859,-3.5111,-3.2028,-3.0824,-3.1003,-3.237,-3.4556,-3.6173,-3.7397,-3.8629,-3.8914,-3.8523,0.0,0.0,0.0,0.0,0.0,0.0,-2.2489,-2.2215,-2.2329,-2.3555,-2.3457,-2.3306,-2.3351,-2.3301,-2.3208,-2.3002,0.0,0.0,0.0,0.0,0.0,0.0,0.0,0.0,0.0,0.0,-2.1554,-2.1695,-2.2353,0.0,0.0,0.0,0.0,0.0,0.0,-2.3595,-2.3595,-2.3595,0.0,0.0,0.0,0.0,0.0,0.0,0.0,0.0,0.0,0.0,-2.3684,0.0,0.0,0.0,-2.5674,-2.8248,0.0,0.0,-3.5011,-3.6567,-3.8003,-3.8585,-3.815,-3.5793,-3.3459,-3.0744,-2.6752,0.0,-2.2196,-2.0639,-2.0225,-2.015,-2.015,-2.0856,-2.1677,-2.238,-2.2941,0.0,-2.6773,-2.7394,-2.8662,-3.1537,-3.2277,-3.3257,-3.5039,-3.5215,-3.5529,-3.6307,-3.6358,-3.6358,-3.6358,-3.6358,-3.6358,-3.6358,-3.7494,-3.8362,-3.883,-4.0449,-4.1632,-4.237,-4.2733,-4.4214,-4.6456,-4.5653,-4.4853,-4.3864,-3.9594,-3.5509,-3.175,-2.8931,-2.797,-2.8416,-3.003,-3.1831,-3.3659,-3.4781,-3.5907,-3.6552,0.0,0.0,0.0,0.0,0.0,-2.1084,-2.1985,-2.1981,-2.2104,-2.2772,-2.3029,-2.2945,-2.2434,-2.2979,-2.3381,-2.3462,-2.2143,0.0,0.0,0.0,0.0,0.0,0.0,0.0,0.0,0.0,-2.182,-2.1994,-2.2637,-2.3176,0.0,0.0,-2.3595,-2.3595,0.0,0.0,0.0,0.0,0.0,0.0,0.0,0.0,0.0,0.0,0.0,0.0,0.0,0.0,0.0,0.0,0.0,0.0,0.0,0.0,0.0,0.0,-3.3245,-3.5295,-3.706,-3.7715,-3.7317,-3.4966,-3.2657,-2.9872,0.0,0.0,-2.1945,-2.0677,-2.0087,-1.9798,-1.9798,-2.0137,-2.0589,-2.1154,0.0,-2.2723,-2.5573,-2.605,-2.7381,-3.0834,-3.1386,-3.2378,-3.46,-3.5403,-3.5943,-3.6332,-3.6358,-3.6358,-3.6358,-3.6358,-3.6358,-3.6358,-3.7494,-3.8469,-3.936,-4.0817,-4.2033,-4.2873,-4.3025,-4.4382,-4.6532,-4.6129,-4.5691,-4.5004,-4.0533,-3.6204,-3.1912,-2.7294,-2.5046,-2.4597,-2.5219,-2.671,-2.8796,-3.0068,-3.1592,-3.2947,0.0,0.0,0.0,0.0,0.0,0.0,-2.1919,-2.1638,-2.1499,-2.2031,-2.2636,-2.2812,-2.2353,-2.2879,-2.3396,-2.3578,-2.3011,0.0,0.0,0.0,0.0,0.0,0.0,0.0,0.0,0.0,-2.2709,-2.2709,-2.3281,-2.3595,-2.3595,-2.3595,-2.3595,-2.3595,0.0,0.0,0.0,0.0,0.0,0.0,0.0,0.0,0.0,0.0,0.0,0.0,0.0,0.0,0.0,0.0,0.0,0.0,0.0,0.0,0.0,0.0,-3.0417,-3.3814,-3.516,-3.4992,-3.4353,-3.3932,-3.0977,-2.7394,0.0,0.0,-2.1832,-2.015,-1.9798,-1.9798,-1.9798,-1.9811,-1.9999,-2.063,-2.1594,0.0,-2.4594,-2.6239,-2.7682,0.0,-2.9465,-3.0683,-3.2893,-3.5077,-3.6358,-3.6358,-3.6358,-3.6358,-3.6358,-3.6358,-3.6358,-3.6358,-3.7494,-3.8107,-3.8107,-4.0462,-4.1368,-4.098,-4.302,-4.4577,-4.579,-4.7425,-4.7401,-4.5847,-4.181,-3.7448,-3.2779,-2.6324,-2.2863,-2.1361,-2.0633,-2.1341,-2.2897,-2.4495,-2.6074,-2.7662,0.0,0.0,0.0,0.0,0.0,0.0,0.0,-2.032,-2.0248,-2.0426,-2.1038,-2.1371,-2.122,-2.2218,-2.3073,-2.355,-2.3041,0.0,0.0,0.0,0.0,0.0,0.0,0.0,0.0,0.0,-2.2677,-2.3176,-2.3477,-2.3794,-2.4158,-2.3752,-2.3595,-2.3595,-2.3595,-2.3595,0.0,0.0,0.0,0.0,0.0,0.0,-2.3336,0.0,0.0,0.0,0.0,0.0,0.0,0.0,0.0,0.0,0.0,0.0,0.0,0.0,0.0,0.0,-3.2976,-3.3264,-3.2777,-3.1483,-2.9335,-2.6973,-2.5026,0.0,-2.1594,-2.1066,-2.0652,-2.0441,-2.0441,-2.0702,-2.1267,-2.2196,-2.2648,-2.3452,0.0,0.0,0.0,-3.0344,-3.278,-3.4562,-3.5253,-3.5956,-3.6358,-3.6358,-3.6358,-3.6358,-3.6358,-3.6722,-3.6747,-3.637,-3.7494,-3.8107,-3.8107,-4.0462,-4.1536,-4.1412,-4.3687,-4.5095,-4.5846,-4.7682,-4.8044,-4.7004,-4.3653,-3.8823,-3.2809,-2.7055,-2.2213,-1.8288,-1.6872,-1.714,-1.8269,-1.8851,-2.0903,-2.3482,0.0,0.0,0.0,0.0,0.0,0.0,0.0,-1.9899,-1.9989,-1.972,-2.0722,-2.1365,-2.1111,-2.2248,-2.3176,-2.3565,-2.3447,0.0,0.0,0.0,0.0,0.0,0.0,0.0,0.0,-2.221,-2.2888,-2.3845,-2.3676,-2.3887,-2.4456,-2.3872,-2.3729,-2.3984,-2.3714,-2.3599,0.0,0.0,0.0,0.0,0.0,0.0,-2.2579,0.0,0.0,0.0,0.0,0.0,0.0,0.0,0.0,0.0,0.0,0.0,0.0,0.0,-2.4725,-2.7521,0.0,-3.0848,-3.0814,-2.9573,-2.7769,0.0,0.0,0.0,0.0,0.0,-2.0916,-2.097,-2.0756,-2.1117,-2.1707,-2.2397,-2.2862,-2.3565,0.0,0.0,0.0,-3.0796,-3.3483,-3.5203,-3.5416,-3.5994,-3.6358,-3.6358,-3.6358,-3.6358,-3.6358,-3.6684,-3.6722,-3.637,-3.7262,-3.7622,-3.7507,-3.9784,-4.0872,-4.0617,-4.3257,-4.4731,-4.5126,-4.7086,-4.7905,-4.7695,-4.4738,-4.01,0.0,-2.6829,-2.073,-1.5686,-1.2269,-1.1704,-1.2956,-1.337,-1.5373,-1.7976,0.0,0.0,0.0,0.0,0.0,0.0,0.0,-2.0228,-2.0408,-1.9765,-2.1395,-2.2368,-2.1754,-2.2832,-2.364,-2.3729,0.0,0.0,0.0,0.0,0.0,0.0,0.0,0.0,-2.224,-2.2551,-2.3338,-2.4597,-2.3954,-2.3999,-2.4657,-2.3969,-2.4014,-2.4552,-2.3865,-2.3525,0.0,0.0,0.0,0.0,0.0,0.0,0.0,0.0,0.0,0.0,0.0,0.0,0.0,0.0,0.0,0.0,0.0,0.0,0.0,0.0,0.0,0.0,0.0,-2.7792,-2.8414,-2.7766,-2.6116,0.0,0.0,0.0,0.0,0.0,0.0,0.0,0.0,-2.123,-2.1644,-2.1757,-2.2611,-2.3464,0.0,-2.6101,0.0,-3.047,-3.2227,-3.342,-3.3859,-3.5391,-3.6358,-3.6358,-3.6358,-3.6358,-3.6358,-3.6408,-3.6408,-3.6358,-3.6897,-3.6923,-3.637,-3.8751,-3.9609,-3.9015,-4.2192,-4.3785,-4.4002,-4.5892,-4.7204,-4.796,-4.5346,-4.1542,-3.636,-2.64,-1.9206,-1.3897,-0.7527,-0.575,-0.6926,-0.8153,-0.9752,-1.1579,0.0,0.0,0.0,0.0,0.0,0.0,0.0,0.0,0.0,0.0,-2.0991,-2.1874,-2.171,-2.2832,-2.4014,0.0,0.0,0.0,0.0,0.0,0.0,0.0,0.0,0.0,-2.1838,-2.2419,-2.3251,-2.4445,-2.4413,-2.467,-2.5201,-2.4626,-2.4477,-2.4552,-2.3406,-2.2615,0.0,0.0,0.0,0.0,0.0,0.0,0.0,0.0,0.0,0.0,-2.0832,-2.067,0.0,0.0,0.0,0.0,0.0,0.0,0.0,0.0,-2.1195,-2.2056,-2.2242,0.0,-2.4075,-2.3894,-2.3057,-2.2171,0.0,0.0,0.0,0.0,0.0,0.0,0.0,0.0,0.0,-2.4431,-2.4519,-2.477,-2.5749,-2.816,0.0,-3.1675,-3.3696,-3.4675,-3.3972,-3.5391,-3.6358,-3.6358,-3.6358,-3.6358,-3.6358,-3.6759,-3.6797,-3.637,-3.6897,-3.6923,-3.637,-3.8751,-3.983,-3.9664,-4.2479,-4.4091,-4.4726,-4.6152,-4.7281,-4.7986,-4.7494,-4.471,-3.994,-3.1903,-2.3742,-1.5706,-0.9278,-0.4732,-0.17,-0.2056,-0.3828,-0.626,0.0,0.0,0.0,0.0,0.0,0.0,0.0,0.0,0.0,0.0,0.0,0.0,0.0,0.0,0.0,0.0,0.0,0.0,0.0,0.0,0.0,0.0,0.0,-2.1844,-2.2143,-2.2488,-2.3435,-2.4935,-2.4717,-2.4912,-2.5499,-2.4897,-2.4431,-2.4126,-2.2847,-2.2055,0.0,0.0,0.0,0.0,-2.155,0.0,0.0,0.0,0.0,0.0,-2.0194,-2.0105,0.0,-1.9798,-1.9798,-1.9798,0.0,0.0,0.0,0.0,-2.0309,-2.0811,-2.042,-2.1611,-2.2865,-2.2548,-2.2184,-2.1794,0.0,0.0,0.0,0.0,0.0,0.0,0.0,0.0,0.0,0.0,-2.5259,-2.6038,0.0,0.0,-3.0156,-3.1989,-3.3508,-3.4474,-3.4638,-3.5692,-3.6358,-3.6358,-3.6358,-3.6358,-3.6358,-3.6646,-3.6671,-3.637,-3.6646,-3.6659,-3.6358,-3.8211,-3.936,-3.9885,-4.1544,-4.2898,-4.3952,-4.5026,-4.5834,-4.6465,-4.7648,-4.5975,-4.1968,-3.5992,-2.7861,-1.8464,-1.1239,-0.4386,0.1322,0.1934,0.1681,0.0712,0.0,0.0,0.0,0.0,0.0,0.0,0.0,0.0,0.0,0.0,0.0,0.0,0.0,0.0,0.0,0.0,0.0,0.0,0.0,0.0,0.0,0.0,0.0,-2.2203,-2.2709,-2.2813,-2.3625,-2.53,-2.4956,-2.5016,-2.545,-2.494,-2.4277,-2.3345,-2.2165,-2.1574,0.0,0.0,-2.1455,-2.1594,-2.143,0.0,0.0,0.0,0.0,0.0,0.0,0.0,0.0,-1.9798,-1.9798,-1.9798,-1.9798,0.0,0.0,0.0,0.0,0.0,-2.0012,-2.1619,-2.2994,-2.2154,-2.1995,-2.192,0.0,0.0,0.0,0.0,0.0,0.0,0.0,0.0,0.0,0.0,0.0,0.0,-2.9063,-2.8812,-2.9322,-3.1825,-3.2646,-3.362,-3.4961,-3.5818,-3.627,-3.6358,-3.6358,-3.6358,-3.6358,-3.6358,-3.6358,-3.6358,-3.6358,-3.6358,-3.6358,-3.7494,-3.8649,-3.9623,-4.0012,-4.0969,-4.2458,-4.3153,-4.3844,-4.4572,-4.6947,-4.6356,-4.3383,-3.9312,-3.2142,-2.2832,-1.4412,-0.603,0.1732,0.4044,0.6013,0.7217,0.0,0.0,0.0,0.0,0.0,0.0,0.0,0.0,0.0,0.0,0.0,0.0,0.0,0.0,0.0,0.0,0.0,0.0,0.0,0.0,0.0,-2.5409,-2.4058,-2.3116,-2.2724,-2.3191,-2.361,-2.3909,-2.4941,-2.5226,-2.4746,-2.5241,-2.4206,-2.1991,-2.126,-2.0913,-2.0825,-2.0806,-2.133,-2.2108,-2.1167,0.0,0.0,0.0,0.0,0.0,0.0,0.0,0.0,-1.9798,-1.9798,-1.9798,-1.9798,0.0,0.0,0.0,0.0,0.0,-2.0966,-2.187,-2.2072,-2.0592,-2.0564,-2.0765,0.0,0.0,0.0,0.0,0.0,0.0,0.0,0.0,0.0,0.0,0.0,-2.8586,-3.0721,-3.0382,-3.0254,-3.1347,-3.2247,-3.2968,-3.3433,-3.4801,-3.5868,-3.632,-3.6358,-3.6358,-3.6358,-3.6358,-3.6358,-3.6358,-3.6358,-3.6358,-3.6358,-3.7494,-3.8198,-3.8366,-3.8358,-3.9339,-4.116,-4.1551,-4.2568,-4.422,-4.684,-4.7057,-4.5277,-4.2564,-3.7527,-3.0596,-2.1429,-1.227,-0.3334,0.304,0.702,0.9118,0.0,0.0,0.0,0.0,0.0,0.0,0.0,0.0,0.0,0.0,0.0,0.0,0.0,0.0,0.0,0.0,0.0,0.0,0.0,0.0,0.0,-2.5076,-2.4492,-2.3849,-2.3191,-2.3445,-2.3789,-2.4163,-2.4777,-2.4881,-2.4582,-2.3868,-2.2824,-2.1649,-2.067,-2.059,-2.1104,-2.1104,-2.1581,-2.2234,0.0,0.0,0.0,0.0,0.0,0.0,0.0,0.0,0.0,0.0,-1.9798,-1.9798,-1.9798,0.0,0.0,0.0,0.0,0.0,-2.0439,-2.1204,-2.1681,-2.0903,-2.1368,-2.1857,0.0,0.0,0.0,0.0,0.0,0.0,0.0,0.0,-2.6163,-2.8712,-2.9063,-2.9578,-3.116,-3.0585,-3.0335,-3.1267,-3.2018,-3.2758,-3.3421,-3.4474,-3.5328,-3.5881,-3.5918,-3.6056,-3.6345,-3.6358,-3.6358,-3.6358,-3.6358,-3.6358,-3.6358,-3.6883,-3.7507,-3.8094,-3.7431,-3.8159,-4.0169,-4.0632,-4.1313,-4.2351,-4.5463,-4.617,-4.506,-4.4705,-4.1181,-3.5379,-2.9012,-2.0738,-1.1133,-0.1584,0.3692,0.596,0.0,0.0,0.0,0.0,0.0,0.0,0.0,0.0,0.0,0.0,0.0,0.0,0.0,0.0,0.0,0.0,0.0,0.0,0.0,0.0,-2.4806,-2.4806,-2.4672,-2.4313,-2.361,-2.3759,-2.4029,-2.4388,-2.4657,-2.4686,-2.4371,-2.2522,-2.1602,-2.1438,-2.0424,-2.0564,-2.1493,-2.1631,-2.1995,-2.2447,0.0,0.0,0.0,0.0,0.0,0.0,0.0,0.0,0.0,0.0,0.0,0.0,0.0,0.0,0.0,-1.9798,-1.9798,-1.9861,-2.0125,-2.0928,-2.1681,-2.1681,0.0,-2.2736,-2.2711,0.0,0.0,0.0,0.0,0.0,0.0,-2.5724,0.0,-3.0557,-3.0545,-3.0545,-3.1637,-3.0929,-3.0673,-3.17,-3.2,-3.2488,-3.3355,-3.3814,-3.4181,-3.4433,-3.4581,-3.4838,-3.5242,-3.5688,-3.5966,-3.5966,-3.6263,-3.6358,-3.6358,-3.6358,-3.6803,-3.7665,-3.6517,-3.7053,-3.9244,-3.9763,-4.0243,-4.0762,-4.4043,-4.4813,-4.3924,-4.5612,-4.3802,-3.9579,-3.594,-2.8388,-1.8284,-0.8007,-0.2684,-0.0778,0.0,0.0,0.0,0.0,0.0,0.0,0.0,0.0,0.0,0.0,0.0,0.0,0.0,0.0,0.0,0.0,0.0,0.0,0.0,0.0,-2.554,-2.554,-2.491,-2.4313,-2.361,-2.4223,-2.4268,-2.367,-2.4926,-2.4917,-2.3725,-2.2334,-2.1376,-2.0871,-2.0719,-2.0941,-2.1518,-2.2033,-2.2573,-2.2927,-2.192,0.0,0.0,0.0,0.0,0.0,0.0,0.0,0.0,0.0,0.0,0.0,0.0,0.0,-1.9798,-1.9798,-1.9798,-2.0024,-2.1079,-2.1794,-2.2246,-2.2246,0.0,0.0,-2.3527,0.0,0.0,0.0,0.0,0.0,0.0,-2.6854,-2.8411,-2.9691,-3.0683,-3.1662,-3.2805,-3.2308,-3.2051,-3.2907,-3.2329,-3.2027,-3.2213,-3.2249,-3.2017,-3.1365,-3.1746,-3.2029,-3.2063,-3.3613,-3.4581,-3.4581,-3.5763,-3.6358,-3.6358,-3.6358,-3.6452,-3.6521,-3.5332,-3.597,-3.8076,-3.8647,-3.9548,-4.0738,-4.3357,-4.3559,-4.2205,-4.4729,-4.5284,-4.4232,-4.1331,-3.3251,-2.2435,-1.595,-1.2621,-1.1417,0.0,0.0,0.0,0.0,0.0,0.0,0.0,0.0,0.0,0.0,0.0,0.0,0.0,0.0,0.0,0.0,0.0,0.0,0.0,-2.6213,-2.5467,-2.5467,-2.4927,-2.4313,-2.361,-2.3849,-2.3864,-2.3595,-2.3747,-2.3531,-2.3054,-2.1753,-2.1028,-2.0785,-2.0717,-2.0832,-2.1041,-2.1933,-2.2234,-2.2108,-2.2033,-2.1594,0.0,0.0,0.0,0.0,0.0,0.0,0.0,0.0,-1.9798,-1.9798,0.0,-1.9798,-1.9798,-1.9798,-1.9798,-1.9899,-2.0326,-2.1355,-2.2309,-2.2309,0.0,0.0,0.0,0.0,0.0,0.0,0.0,0.0,0.0,0.0,-2.9628,-3.106,-3.1938,-3.2704,-3.3483,-3.3008,-3.2747,-3.3093,-3.2488,-3.1979,-3.1586,-3.1037,-3.0601,-3.0526,-3.0409,-3.0746,-3.1667,-3.3188,-3.4149,-3.4374,-3.5667,-3.6358,-3.6358,-3.6358,-3.6194,-3.5843,-3.509,-3.5807,-3.7924,-3.7964,-3.8766,-4.0227,-4.2051,-4.2253,-4.1393,-4.3098,-4.458,-4.5626,-4.4629,-4.0307,-3.4176,-2.9877,-2.6173,-2.337,0.0,0.0,0.0,0.0,0.0,0.0,0.0,0.0,0.0,0.0,0.0,0.0,0.0,0.0,0.0,0.0,0.0,0.0,-2.6852,-2.5955,-2.5416,-2.5416,-2.488,-2.4313,-2.361,-2.3595,-2.3699,-2.3924,-2.3316,-2.2798,-2.2314,-2.1269,-2.0696,-2.0472,-2.0612,-2.0718,-2.0781,-2.1656,-2.1832,-2.1518,-2.1895,-2.1594,0.0,0.0,0.0,0.0,0.0,0.0,0.0,0.0,-1.9798,0.0,0.0,0.0,0.0,0.0,-1.9798,-1.9798,-1.9798,-2.0903,-2.2046,0.0,0.0,0.0,0.0,0.0,0.0,0.0,-2.8649,0.0,-2.9691,0.0,-3.0218,-3.1499,-3.2478,-3.3206,-3.3583,-3.3319,-3.3081,-3.3081,-3.2566,-3.1736,-3.0584,-2.9659,-2.8969,-2.844,-2.8412,-2.8834,-2.971,-3.1706,-3.2919,-3.3282,-3.4961,-3.5843,-3.5843,-3.6019,-3.583,-3.5278,-3.4901,-3.5541,-3.7137,-3.7183,-3.7812,-3.8984,-4.0385,-4.0671,-4.0346,-4.1533,-4.3849,-4.6649,-4.7006,-4.5843,-4.3656,-4.1213,-3.8263,-3.5623,0.0,0.0,0.0,0.0,0.0,0.0,0.0,0.0,0.0,0.0,0.0,0.0,0.0,0.0,0.0,0.0,0.0,0.0,-2.6852,-2.5955,-2.54,-2.54,-2.4865,-2.4298,-2.361,-2.361,-2.3954,-2.4582,-2.3987,-2.2993,-2.1602,-2.1022,-2.0459,-1.9823,-2.0401,-2.0718,-2.0743,-2.1255,-2.1493,-2.1481,-2.1493,-2.1493,-2.143,0.0,0.0,0.0,0.0,0.0,0.0,0.0,-1.9798,0.0,0.0,0.0,0.0,0.0,-1.9798,-1.9811,-1.9798,-2.0627,0.0,0.0,0.0,0.0,0.0,0.0,0.0,0.0,0.0,-2.9114,-2.9691,-2.9817,-2.9993,-3.0532,-3.2001,-3.3081,-3.3081,-3.3081,-3.3081,-3.3081,-3.2554,-3.1321,-2.9046,-2.8219,-2.6952,-2.4598,-2.5225,-2.5723,-2.5732,-2.901,-3.0874,-3.0874,-3.3373,-3.4726,-3.4726,-3.5265,-3.5253,-3.4713,-3.4713,-3.5008,-3.5482,-3.6165,-3.6691,-3.709,-3.8324,-3.8893,-3.8999,-4.0141,-4.3353,-4.7623,-4.8615,-4.922,-4.9391,-4.8468,-4.8073,-4.8,0.0,0.0,0.0,0.0,0.0,0.0,0.0,0.0,0.0,0.0,0.0,0.0,0.0,0.0,0.0,0.0,0.0,0.0,-2.6738,-2.5832,-2.5267,-2.5267,-2.438,-2.3804,-2.3595,-2.4038,-2.408,-2.3833,-2.2781,-2.2075,-2.1602,-2.0566,-2.0003,-1.9823,-2.0401,-2.0439,-2.0125,-2.1079,-2.1267,-2.0978,-2.1757,-2.1832,-2.1468,0.0,0.0,0.0,0.0,0.0,0.0,0.0,0.0,0.0,0.0,0.0,0.0,-1.9924,-2.0087,-2.0326,-1.9911,0.0,0.0,0.0,0.0,0.0,0.0,0.0,0.0,0.0,-3.0608,-3.0281,-3.0821,-3.0922,-3.0972,-3.1135,-3.224,-3.3081,-3.3081,-3.3081,-3.3081,-3.3081,-3.2215,-3.0917,-2.9012,-2.77,-2.6249,-2.4549,-2.4385,-2.4629,-2.5234,-2.8301,-3.0105,-3.0442,-3.3179,-3.4726,-3.4726,-3.4889,-3.4688,-3.4148,-3.4148,-3.4638,-3.5495,-3.5332,-3.5869,-3.7037,-3.7395,-3.8072,-3.9139,-4.2576,-4.5698,-4.848,-4.9815,-5.0331,-5.0364,-5.0451,-5.0482,-5.0454,0.0,0.0,0.0,0.0,0.0,0.0,0.0,0.0,0.0,0.0,0.0,0.0,0.0,0.0,0.0,0.0,0.0,0.0,0.0,-2.5746,-2.531,-2.5598,-2.4296,-2.3584,-2.3569,-2.4206,-2.4035,-2.3059,-2.2374,-2.1914,-2.1602,-2.0617,-2.0462,-2.0974,-2.1041,-2.0888,-2.0617,-2.104,-2.1021,-2.0794,-2.1631,-2.192,-2.1794,0.0,0.0,0.0,0.0,0.0,0.0,0.0,0.0,0.0,0.0,0.0,0.0,-2.0175,-2.0225,-2.0338,-2.0439,0.0,0.0,0.0,0.0,0.0,0.0,0.0,0.0,0.0,-3.1449,-3.1085,-3.1625,-3.1537,-3.1461,-3.1675,-3.2478,-3.3081,-3.3081,-3.3081,-3.2993,-3.2754,-3.1938,-3.0741,-2.9039,-2.7782,-2.6457,-2.4723,-2.4515,-2.4616,-2.5147,-2.7569,-2.9139,-2.9541,-3.1788,-3.2898,-3.2641,-3.2858,-3.2599,-3.2082,-3.2298,-3.2889,-3.3766,-3.4158,-3.4814,-3.5723,-3.6654,-3.8025,-3.9899,-4.3426,-4.6167,-4.8222,-4.9449,-5.0088,-5.0332,-5.0874,-5.1322,-5.1632,0.0,0.0,0.0,0.0,0.0,0.0,0.0,0.0,0.0,0.0,0.0,0.0,0.0,0.0,0.0,0.0,0.0,0.0,0.0,0.0,-2.5424,-2.6118,-2.4563,-2.3643,-2.3607,-2.4083,-2.3673,-2.2338,-2.2445,-2.2181,-2.1602,-2.1125,-2.1551,-2.2671,-2.2042,-2.1771,-2.1767,-2.1096,-2.072,-2.0693,-2.1242,-2.1794,-2.2184,-2.1732,0.0,0.0,0.0,0.0,0.0,0.0,0.0,0.0,0.0,0.0,0.0,-2.0464,-2.025,-2.0112,0.0,0.0,0.0,0.0,0.0,0.0,0.0,0.0,-3.2277,-3.2754,0.0,-3.1662,-3.2064,-3.1725,-3.1574,-3.2127,-3.2654,-3.3018,-3.3068,-3.3031,-3.2805,-3.2277,-3.1687,-3.0691,-2.908,-2.8393,-2.7267,-2.5126,-2.524,-2.5462,-2.5462,-2.6921,-2.8007,-2.8377,-2.9572,-2.9939,-2.9272,-2.9858,-2.9869,-2.9351,-2.9799,-3.0445,-3.1288,-3.2777,-3.3577,-3.3874,-3.6147,-3.8483,-4.0814,-4.3084,-4.5245,-4.7159,-4.8075,-4.8908,-4.9645,-5.0169,-5.0962,-5.179,0.0,0.0,0.0,0.0,0.0,0.0,0.0,0.0,0.0,0.0,0.0,0.0,0.0,0.0,0.0,0.0,0.0,0.0,0.0,0.0,-2.4864,-2.5539,-2.4759,-2.4283,-2.4267,-2.3324,-2.2511,-2.1747,-2.1799,-2.1733,-2.1602,-2.1586,-2.1978,-2.2685,-2.256,-2.2228,-2.1767,-2.1096,-2.0474,-2.0075,-2.1079,-2.1556,-2.1707,-2.202,-2.2133,0.0,0.0,0.0,0.0,0.0,0.0,0.0,-2.0614,-2.0778,-2.0978,-2.0213,-2.0225,-2.0627,0.0,0.0,0.0,0.0,0.0,0.0,0.0,0.0,-3.1486,-3.1198,-3.1989,-3.2478,-3.1712,-3.1474,-3.1574,-3.2127,-3.2315,-3.2554,-3.3018,-3.2692,-3.2353,-3.2227,-3.1361,-3.0295,-2.9044,-2.8393,-2.7522,-2.6213,-2.5793,-2.5546,-2.5546,-2.6351,-2.6842,-2.6942,-2.8347,-2.8899,-2.8352,-2.8847,-2.9038,-2.8937,-2.9038,-2.986,-3.1211,-3.1532,-3.2599,-3.4251,-3.5893,-3.7897,-4.021,-4.2697,-4.4628,-4.6215,-4.7473,-4.8587,-4.9549,-4.9822,-5.0498,-5.1269,0.0,0.0,0.0,0.0,0.0,0.0,0.0,0.0,0.0,0.0,0.0,0.0,0.0,0.0,0.0,0.0,0.0,0.0,0.0,0.0,-2.4897,-2.4986,-2.5281,-2.4844,-2.351,-2.3111,-2.247,-2.1615,-2.1615,-2.1756,-2.215,-2.255,-2.335,-2.4523,-2.4221,-2.359,-2.2695,-2.1997,-2.1154,-2.0263,-2.0853,-2.1405,-2.1882,-2.1907,-2.2083,-2.2234,-2.1681,0.0,0.0,0.0,0.0,0.0,0.0,0.0,-2.0978,-2.0388,-2.0426,-2.084,0.0,0.0,0.0,0.0,0.0,0.0,0.0,0.0,-3.1248,-3.0721,-3.1499,-3.2089,-3.1499,-3.1386,-3.1486,-3.1763,-3.1813,-3.1926,-3.2227,-3.2014,-3.1725,-3.1474,-3.0959,-3.0144,-2.901,-2.8949,-2.8342,-2.7024,-2.6587,-2.6188,-2.5721,-2.5755,-2.5636,-2.5376,-2.6323,-2.6562,-2.6034,-2.6489,-2.6721,-2.6721,-2.6721,-2.773,-2.9676,-3.1084,-3.2669,-3.4375,-3.5585,-3.7534,-3.996,-4.1815,-4.3613,-4.518,-4.5716,-4.7067,-4.8689,-4.8792,-4.988,-5.123,0.0,0.0,0.0,0.0,0.0,0.0,0.0,0.0,0.0,0.0,0.0,0.0,0.0,0.0,0.0,0.0,0.0,0.0,0.0,0.0,0.0,-2.4552,-2.5649,-2.5199,-2.2799,-2.3036,-2.2762,-2.176,-2.1912,0.0,0.0,0.0,-2.4824,-2.6572,-2.5875,-2.495,-2.3775,-2.3013,-2.19,-2.0743,-2.092,-2.1443,-2.2133,-2.187,-2.2058,-2.2397,-2.1933,-2.1782,-2.1782,-2.1782,0.0,0.0,0.0,0.0,-2.097,-2.0769,-2.0718,-2.0891,0.0,0.0,0.0,0.0,0.0,0.0,0.0,0.0,-3.0871,-3.0545,-3.0896,-3.1223,-3.1135,-3.111,-3.1148,-3.1248,-3.1248,-3.1286,-3.1386,-3.1311,-3.1097,-3.067,-3.0532,-3.0068,-2.9026,-2.9365,-2.8994,-2.7536,-2.7327,-2.6972,-2.6106,-2.5483,-2.4826,-2.419,-2.4482,-2.4241,-2.3457,-2.3955,-2.4281,-2.4453,-2.4967,-2.6178,-2.8287,-3.0854,-3.2816,-3.4162,-3.5082,-3.6971,-3.9556,-4.0694,-4.2292,-4.3961,-4.3903,-4.5464,-4.7761,-4.7849,-4.9343,-5.125,0.0,0.0,0.0,0.0,0.0,0.0,0.0,0.0,0.0,0.0,0.0,0.0,0.0,0.0,0.0,0.0,0.0,0.0,-2.3837,0.0,0.0,-2.4517,-2.5163,-2.5107,-2.4055,-2.3076,-2.2456,-2.2311,-2.3061,0.0,0.0,0.0,0.0,-2.6587,0.0,0.0,-2.4293,0.0,0.0,0.0,-2.1707,-2.1895,-2.1694,-2.2573,-2.2902,-2.2952,-2.2877,-2.2912,-2.2912,-2.2912,-2.2912,0.0,0.0,0.0,-2.1895,-2.0941,-2.0718,-2.0803,0.0,0.0,0.0,0.0,0.0,0.0,0.0,0.0,-2.9377,-2.9817,-3.0331,-3.057,-3.0093,-3.0005,-3.0168,-3.0645,-3.0721,-3.0871,-3.1323,-3.0997,-3.0696,-3.062,-3.0193,-2.9641,-2.8988,-2.9001,-2.8737,-2.8014,-2.7541,-2.7267,-2.7123,-2.6067,-2.5142,-2.4226,-2.4175,-2.3504,-2.2148,-2.292,-2.3807,-2.4815,-2.7077,-2.8629,-2.9449,-3.0762,-3.2123,-3.3514,-3.3899,-3.557,-3.8173,-3.9478,-4.0863,-4.2239,-4.3291,-4.5274,-4.7607,-4.8068,-4.9243,-5.0695,0.0,0.0,0.0,0.0,0.0,0.0,0.0,0.0,0.0,0.0,0.0,0.0,0.0,0.0,0.0,-2.5009,-2.433,-2.4003,-2.4148,-2.4382,-2.4525,-2.4446,-2.4729,-2.4382,-2.3247,-2.3125,-2.3101,-2.315,0.0,0.0,0.0,-2.5313,-2.5662,0.0,0.0,0.0,0.0,0.0,0.0,0.0,0.0,-2.1707,-2.1581,-2.2372,-2.2673,-2.2711,-2.2965,-2.3078,-2.3078,-2.3078,-2.3078,-2.2927,-2.2121,0.0,0.0,0.0,-2.0413,0.0,0.0,0.0,0.0,0.0,0.0,0.0,0.0,0.0,-2.8536,-2.88,-2.9038,-2.9327,-2.9729,-2.9792,-2.9767,-2.9679,-2.9942,-3.0118,-3.0018,-3.0093,-3.0156,-3.0156,-2.9654,-2.9089,-2.8524,-2.8461,-2.8235,-2.7682,-2.7419,-2.7042,-2.6504,-2.5721,-2.4818,-2.385,-2.3463,-2.3255,-2.3213,-2.3217,-2.3774,-2.4827,-2.6932,-2.8179,-2.8619,-3.0005,-3.1683,-3.3449,-3.4264,-3.5589,-3.7263,-3.8734,-4.0048,-4.1236,-4.2449,-4.4777,-4.7529,-4.7807,-4.914,-5.0875,0.0,0.0,0.0,0.0,0.0,0.0,0.0,0.0,0.0,0.0,0.0,0.0,0.0,0.0,0.0,0.0,-2.4353,-2.4088,-2.4552,-2.4334,-2.4316,-2.4668,-2.4878,-2.4433,-2.3191,-2.3585,-2.3942,0.0,0.0,0.0,-2.6312,-2.5785,-2.5654,0.0,-2.596,-2.508,0.0,0.0,0.0,0.0,0.0,-2.1606,-2.1543,-2.2096,-2.2221,-2.2196,-2.2887,-2.2977,-2.2949,-2.3027,-2.2977,-2.2786,-2.1958,-2.1606,0.0,0.0,0.0,0.0,0.0,0.0,0.0,0.0,0.0,0.0,0.0,0.0,-2.7934,-2.8072,-2.7996,-2.8197,-2.9189,-2.9365,-2.9264,-2.8976,-2.9176,-2.9264,-2.8976,-2.9176,-2.9365,-2.9365,-2.8988,-2.8499,-2.7946,-2.7896,-2.767,-2.7118,-2.708,-2.676,-2.5997,-2.5575,-2.4933,-2.3891,-2.3274,-2.3243,-2.3999,-2.3929,-2.4381,-2.5226,-2.684,-2.778,-2.8151,-2.976,-3.1513,-3.3368,-3.409,-3.5135,-3.6448,-3.7818,-3.9261,-4.0744,-4.1959,-4.4504,-4.751,-4.771,-4.9193,-5.1102,0.0,0.0,0.0,0.0,0.0,0.0,0.0,0.0,0.0,0.0,0.0,0.0,-2.6814,-2.6624,-2.6036,-2.4732,-2.4597,-2.4552,-2.4582,-2.5164,-2.5505,-2.5437,-2.6069,0.0,-2.5246,-2.4727,-2.4755,0.0,0.0,0.0,-2.5568,-2.5517,-2.5112,-2.4408,-2.4408,-2.4323,-2.4182,0.0,0.0,0.0,0.0,-2.1958,-2.1543,-2.2096,-2.1983,-2.1669,-2.2749,-2.2799,-2.2435,-2.2902,-2.2786,-2.2347,-2.2284,-2.1907,-2.138,0.0,0.0,0.0,0.0,0.0,0.0,0.0,0.0,0.0,0.0,-2.7708,-2.7469,-2.7996,-2.7695,-2.7507,-2.8084,-2.8197,-2.8348,-2.885,-2.8511,-2.836,-2.8863,-2.8499,-2.8197,-2.8197,-2.816,-2.7934,-2.7381,-2.7318,-2.7092,-2.6609,-2.6571,-2.6502,-2.6502,-2.6465,-2.5943,-2.4933,-2.3986,-2.3486,-2.3559,-2.4931,-2.5902,-2.6422,-2.7766,-2.8716,-2.9355,-3.0597,-3.1893,-3.3102,-3.2533,-3.3607,-3.5799,-3.6565,-3.8405,-4.0813,-4.225,-4.471,-4.7549,-4.8073,-4.9512,-5.1185,0.0,0.0,0.0,0.0,0.0,0.0,0.0,0.0,0.0,0.0,0.0,0.0,0.0,-2.6841,-2.6408,-2.5929,-2.5495,-2.5255,-2.5255,-2.5121,-2.5179,-2.5488,-2.5747,-2.5759,-2.5497,-2.5733,-2.5716,0.0,0.0,-2.525,-2.5446,-2.4957,-2.4579,-2.4292,-2.4292,-2.4002,-2.3543,-2.3185,0.0,0.0,-2.2447,-2.2196,-2.2033,-2.2234,-2.2184,-2.2121,-2.2862,-2.2952,-2.2874,-2.3015,-2.294,-2.2711,-2.2008,-2.1644,-2.1305,-2.0376,-1.9962,-2.0012,0.0,0.0,0.0,0.0,0.0,-2.5511,-2.5912,-2.6389,-2.6703,-2.6527,-2.664,-2.6816,-2.7017,-2.7632,-2.8059,-2.7896,-2.8009,-2.8047,-2.7896,-2.8009,-2.8109,-2.8109,-2.7795,-2.7494,-2.7306,-2.6967,-2.6747,-2.6546,-2.6533,-2.6533,-2.6533,-2.6533,-2.6314,-2.5955,-2.5004,-2.448,-2.448,-2.5681,-2.6582,-2.7316,-2.8147,-2.9211,-3.0616,-3.1404,-3.2402,-3.3412,-3.3191,-3.4053,-3.5719,-3.6956,-3.8405,-4.0104,-4.2032,-4.4346,-4.6627,-4.7245,-4.8668,-5.032,0.0,0.0,0.0,0.0,0.0,0.0,0.0,0.0,0.0,-2.7907,0.0,0.0,0.0,0.0,-2.6841,-2.6617,-2.5989,-2.5704,-2.5929,-2.5564,-2.5599,-2.6177,-2.6477,-2.6491,-2.6221,-2.6438,-2.6337,0.0,0.0,0.0,0.0,-2.4579,-2.4309,-2.4292,-2.4292,-2.3826,0.0,0.0,0.0,-2.3027,-2.2535,-2.2422,-2.2585,-2.2585,-2.2585,-2.2661,-2.3226,-2.3301,-2.3078,-2.3078,-2.2887,-2.2447,-2.1719,-2.123,-2.0778,-2.0024,-1.9798,-1.9962,-2.0715,0.0,0.0,0.0,0.0,-2.4356,-2.4732,-2.5385,-2.5799,-2.541,-2.5774,-2.6226,-2.6496,-2.7055,-2.7494,-2.7318,-2.7431,-2.7494,-2.7306,-2.7444,-2.7557,-2.7557,-2.7231,-2.7005,-2.7005,-2.6747,-2.6533,-2.6533,-2.6533,-2.6533,-2.6533,-2.6533,-2.6383,-2.6025,-2.5664,-2.537,-2.5004,-2.6277,-2.7162,-2.7736,-2.8882,-3.0083,-3.133,-3.2194,-3.3107,-3.3937,-3.3937,-3.4436,-3.5372,-3.6783,-3.8204,-3.9719,-4.1742,-4.3951,-4.6068,-4.662,-4.7922,-4.9432,0.0,0.0,0.0,0.0,0.0,0.0,0.0,0.0,-2.8345,-2.8528,0.0,0.0,0.0,0.0,0.0,-2.6707,-2.6063,-2.5959,-2.6572,-2.6617,-2.6901,-2.7595,-2.8203,-2.8263,-2.759,-2.6878,-2.6457,0.0,0.0,0.0,0.0,0.0,-2.4367,-2.4292,-2.435,-2.3884,-2.3138,0.0,-2.3078,-2.3053,-2.256,-2.2673,-2.3128,-2.3103,-2.3115,-2.3263,-2.3816,-2.3665,-2.3128,-2.3103,-2.2447,-2.1556,-2.1506,-2.0715,-1.9798,-1.9798,-1.9798,-1.9798,0.0,0.0,0.0,0.0,0.0,0.0,-2.4494,-2.4757,-2.4782,-2.4795,-2.5197,-2.5724,-2.637,-2.6483,-2.659,-2.7118,-2.6791,-2.6653,-2.718,-2.6804,-2.6533,-2.6533,-2.6533,-2.6533,-2.6533,-2.6533,-2.6533,-2.6533,-2.6533,-2.6533,-2.6533,-2.6533,-2.6025,-2.5075,-2.6013,-2.6094,-2.5075,-2.6854,-2.7723,-2.7855,-3.0185,-3.1315,-3.1429,-3.2961,-3.3987,-3.4624,-3.4624,-3.4624,-3.4721,-3.6001,-3.7724,-3.9761,-4.1358,-4.3614,-4.6003,-4.6339,-4.7396,-4.8645,0.0,0.0,0.0,0.0,0.0,-3.0139,-3.0451,-2.9385,-2.8708,0.0,0.0,0.0,-2.8389,-2.8308,-2.8248,-2.8053,-2.7874,-2.7634,-2.732,-2.7305,-2.743,-2.761,-2.7754,-2.755,-2.6826,-2.6616,-2.596,0.0,0.0,0.0,0.0,0.0,0.0,0.0,-2.4851,-2.4681,-2.3943,-2.3365,-2.3376,-2.3703,-2.3138,-2.3489,-2.4305,-2.3916,-2.4004,-2.4381,-2.4544,-2.4494,-2.4293,-2.3891,-2.3552,-2.31,-2.187,-2.0715,-1.9798,-1.9798,-1.9798,-1.9798,-1.9798,0.0,0.0,0.0,0.0,0.0,-2.2836,-2.3314,-2.3715,-2.4142,-2.4343,-2.4607,-2.5172,-2.5272,-2.5322,-2.5473,-2.6038,-2.6584,-2.6666,-2.6553,-2.6533,-2.6533,-2.6533,-2.6533,-2.6533,-2.6533,-2.6533,-2.6533,-2.6533,-2.6533,-2.6533,-2.6533,-2.6383,-2.6094,-2.6892,-2.7204,-2.6989,-2.8103,-2.9199,-3.0305,-3.0954,-3.2127,-3.3705,-3.4104,-3.4688,-3.5316,-3.5316,-3.5316,-3.5412,-3.672,-3.8136,-3.9761,-4.1358,-4.3204,-4.5057,-4.5477,-4.6428,-4.7552,0.0,0.0,0.0,0.0,0.0,-2.9968,-3.009,-2.9501,-2.9146,0.0,0.0,0.0,-2.9056,-2.9011,-2.9011,-2.9011,-2.8757,-2.8547,-2.8412,-2.8158,-2.8008,-2.8008,-2.8263,-2.7935,-2.6885,-2.6614,-2.5883,0.0,0.0,0.0,-2.3138,-2.4221,0.0,0.0,0.0,0.0,0.0,0.0,-2.3768,-2.3966,-2.3627,-2.4155,-2.5109,-2.4782,-2.5021,-2.5473,-2.5234,-2.5146,-2.5059,-2.4519,-2.4029,-2.3389,-2.1945,-2.1029,-2.0464,-2.0225,-2.0326,-2.0451,-2.0225,-2.0162,-2.0363,-2.1154,0.0,0.0,-2.1845,-2.2221,-2.2548,-2.2887,-2.3138,-2.3464,-2.4017,-2.4117,-2.4192,-2.4443,-2.5021,-2.5586,-2.6038,-2.637,-2.6533,-2.6533,-2.6533,-2.6533,-2.6533,-2.6533,-2.6533,-2.6533,-2.6533,-2.6533,-2.6533,-2.685,-2.6973,-2.6973,-2.7802,-2.8247,-2.8247,-2.9386,-3.0393,-3.1315,-3.2237,-3.3332,-3.4624,-3.4894,-3.5207,-3.5622,-3.5622,-3.5622,-3.5684,-3.6646,-3.8058,-3.9726,-4.0836,-4.2543,-4.4382,-4.4654,-4.5419,-4.6351,0.0,0.0,-3.1345,-3.0731,-3.0552,-3.0342,-2.9864,-2.9729,-2.9714,0.0,-2.9729,-2.9714,-2.9789,-2.9729,-2.9684,-2.9684,-2.9146,-2.9026,-2.9549,-2.9026,-2.8712,-2.8712,-2.9137,-2.8714,-2.7238,-2.6511,-2.5738,-2.4878,-2.3666,-2.3138,-2.3245,-2.4724,-2.5398,-2.5453,0.0,0.0,0.0,-2.4567,-2.4175,-2.4004,-2.4067,-2.4695,-2.5598,-2.5661,-2.6013,-2.6458,-2.5875,-2.5686,-2.5611,-2.5084,-2.4117,-2.2902,-2.1983,-2.1594,-2.1393,-2.0903,-2.1104,-2.138,-2.0945,-2.0806,-2.0991,-2.197,-2.1531,0.0,-2.1393,-2.1543,-2.1581,-2.1581,-2.197,-2.2472,-2.2977,-2.3078,-2.3314,-2.3816,-2.3954,-2.4368,-2.5448,-2.6038,-2.6389,-2.6521,-2.6533,-2.6533,-2.6533,-2.6533,-2.6533,-2.6533,-2.6533,-2.6533,-2.6533,-2.7297,-2.767,-2.767,-2.862,-2.9129,-2.9129,-3.069,-3.1501,-3.16,-3.3604,-3.464,-3.4736,-3.5316,-3.5622,-3.5622,-3.5622,-3.5622,-3.5622,-3.6097,-3.758,-3.9526,-4.0074,-4.1745,-4.3886,-4.3979,-4.4506,-4.5207,0.0,-3.1482,-3.1437,-3.136,-3.0866,-3.0657,-3.1091,-3.0687,-3.0522,-3.1076,-3.0672,-3.0537,-3.1091,-3.0657,-3.0313,-3.0313,-3.0208,-2.9983,-2.9609,-2.946,-2.9385,-2.9385,-2.8414,-2.7506,-2.6581,-2.5371,-2.4334,-2.347,-2.3248,-2.3424,-2.406,-2.5007,-2.5398,-2.5453,0.0,0.0,0.0,-2.435,-2.4175,-2.4042,-2.4481,-2.5034,-2.5649,-2.6113,-2.6433,-2.6508,-2.6395,-2.6289,-2.6201,-2.5636,-2.4418,-2.3027,-2.2874,-2.2209,-2.1468,-2.1355,-2.1405,-2.1468,-2.1355,-2.133,-2.138,-2.1594,-2.182,0.0,-2.1556,-2.1832,-2.2146,-2.2146,-2.2234,-2.2472,-2.2977,-2.3078,-2.3115,-2.3288,-2.369,-2.4368,-2.5448,-2.5686,-2.5937,-2.6471,-2.6533,-2.6533,-2.6533,-2.6533,-2.6533,-2.6533,-2.6533,-2.6533,-2.6533,-2.7297,-2.767,-2.767,-2.9254,-3.0072,-3.0072,-3.1592,-3.2648,-3.3187,-3.412,-3.4894,-3.5407,-3.5515,-3.5622,-3.5622,-3.5622,-3.5622,-3.5622,-3.5694,-3.6911,-3.8759,-3.9858,-4.1431,-4.3114,-4.3755,-4.4308,-4.4743,-3.1407,-3.1482,-3.1482,-3.1482,-3.124,-3.1135,-3.1422,-3.124,-3.1255,-3.1928,-3.1719,-3.1509,-3.1482,-3.1225,-3.1016,-3.1016,-3.0702,-3.0324,-2.9999,-2.9648,-2.9457,-2.9457,-2.8436,-2.7882,-2.7852,-2.6245,-2.5121,-2.4606,-2.438,-2.4047,-2.3708,-2.4894,-2.5066,0.0,0.0,0.0,0.0,-2.416,-2.4175,-2.4054,-2.4594,-2.5134,-2.5661,-2.6239,-2.6533,-2.6533,-2.6533,-2.6533,-2.6395,-2.5485,-2.4833,-2.4268,-2.374,-2.3376,-2.3037,-2.2472,-2.251,-2.2611,-2.2046,-2.1895,-2.197,-2.2234,-2.2108,0.0,0.0,-2.1895,-2.1983,-2.2246,-2.187,-2.1656,-2.2209,-2.2083,-2.2083,-2.2636,-2.2962,-2.3728,-2.5372,-2.5598,-2.5699,-2.6,-2.6025,-2.5925,-2.5674,-2.5636,-2.5749,-2.6013,-2.6302,-2.6533,-2.6533,-2.767,-2.8363,-2.8363,-3.0011,-3.1058,-3.1435,-3.254,-3.3443,-3.4087,-3.48,-3.5253,-3.5622,-3.5622,-3.5622,-3.5622,-3.5622,-3.5622,-3.5622,-3.5622,-3.632,-3.7567,-3.9266,-4.0619,-4.1728,-4.3213,-4.3744,-4.3727,-3.1482,-3.1482,-3.1482,-3.1482,-3.1482,-3.1482,-3.1482,-3.1482,-3.1764,-3.2422,-3.2512,-3.2317,-3.1779,-3.1719,-3.1721,-3.1898,-3.0932,-3.0409,-3.0632,-2.9688,-2.9142,-2.926,-2.8655,-2.8569,-2.9117,-2.7523,-2.6553,-2.6363,-2.5823,-2.4945,-2.391,-2.4882,-2.4743,0.0,0.0,0.0,0.0,-2.4021,-2.4223,-2.4205,-2.4757,-2.5222,-2.5661,-2.6239,-2.6533,-2.6533,-2.6533,-2.6533,-2.6395,-2.5435,-2.5335,-2.5448,-2.4582,-2.4544,-2.4644,-2.3728,-2.3791,-2.3954,-2.3037,-2.2799,-2.2874,-2.3213,-2.2711,-2.2159,0.0,0.0,0.0,-2.2133,-2.1531,-2.1091,-2.143,-2.1129,-2.1117,-2.2008,-2.2334,-2.3088,-2.487,-2.531,-2.5523,-2.5737,-2.5385,-2.5084,-2.4971,-2.4971,-2.5146,-2.5561,-2.6138,-2.6533,-2.6533,-2.8117,-2.9002,-2.9002,-3.0644,-3.1853,-3.2586,-3.3235,-3.3937,-3.4624,-3.5253,-3.5622,-3.5622,-3.5622,-3.5622,-3.5622,-3.5622,-3.5622,-3.5622,-3.5622,-3.5871,-3.6429,-3.845,-3.9498,-4.0203,-4.2196,-4.2727,-4.2437,-3.1482,-3.1482,-3.1482,-3.1482,-3.1482,-3.1482,-3.1482,-3.1482,-3.1764,-3.2422,-3.2512,-3.2482,-3.2407,-3.2407,-3.2647,-3.3215,-3.0999,-3.0218,-3.1887,-2.967,-2.8591,-2.926,-2.8581,-2.8313,-2.8525,-2.7639,-2.719,-2.7152,-2.6398,-2.6284,-2.669,-2.5641,-2.5077,0.0,-2.4548,0.0,0.0,-2.399,-2.428,-2.477,-2.5297,-2.5548,-2.5661,-2.6239,-2.6533,-2.6533,-2.6533,-2.6533,-2.6508,-2.6382,-2.5963,-2.5573,-2.5448,-2.5146,-2.4795,-2.4669,-2.4682,-2.4695,-2.4569,-2.4544,-2.4431,-2.4004,-2.4167,-2.4067,-2.2636,0.0,-2.3314,-2.1882,0.0,-2.1995,-2.1568,0.0,0.0,-2.1556,-2.2397,-2.3125,-2.3315,-2.428,-2.5272,-2.6251,-2.4619,-2.3966,-2.5372,-2.5511,-2.5536,-2.5586,-2.6138,-2.6533,-2.6533,-2.8117,-2.9002,-2.9002,-3.0644,-3.1853,-3.2586,-3.3235,-3.3937,-3.4624,-3.5253,-3.5622,-3.5622,-3.5622,-3.5622,-3.5622,-3.5622,-3.5622,-3.5622,-3.5622,-3.5622,-3.5807,-3.7249,-3.8146,-3.8833,-4.0442,-4.0998,-4.0927,-3.1482,-3.1482,-3.1347,-3.1001,-3.127,-3.1405,-3.1001,-3.2243,-3.3066,-3.2587,-3.3529,-3.4098,-3.3694,-3.3649,-3.3568,-3.3314,-3.1888,-3.0728,-3.0099,-2.916,-2.8802,-2.9125,-2.8969,-2.9244,-3.0188,-2.8685,-2.7891,-2.7825,-2.7045,-2.635,-2.5821,-2.5306,-2.4862,-2.4436,-2.3859,0.0,-2.3527,-2.3853,-2.4318,-2.487,-2.5385,-2.5799,-2.6126,-2.6433,-2.6533,-2.6533,-2.6533,-2.6533,-2.6483,-2.6076,-2.6013,-2.6038,-2.5699,-2.5674,-2.5711,-2.5372,-2.5272,-2.5209,-2.4908,-2.482,-2.4845,-2.4908,-2.4632,-2.4243,-2.3853,-2.3627,-2.3389,-2.3012,0.0,0.0,0.0,0.0,0.0,0.0,-2.2146,-2.2774,-2.3027,-2.3263,-2.3904,-2.5335,-2.4406,-2.3653,-2.369,-2.3979,-2.4167,-2.4167,-2.5008,-2.5902,-2.6725,-2.7863,-2.8892,-2.9752,-3.0896,-3.1853,-3.2586,-3.3235,-3.3937,-3.4624,-3.5253,-3.5622,-3.5622,-3.5622,-3.5622,-3.5622,-3.5622,-3.5622,-3.5622,-3.5622,-3.5622,-3.5656,-3.6239,-3.6774,-3.7521,-3.9858,-4.04,-4.0017,-3.1482,0.0,-3.1375,-3.0866,-3.121,-3.136,-3.0866,-3.2422,-3.3455,-3.2856,-3.4053,-3.4981,-3.5026,-3.4723,-3.4523,-3.4373,-3.2851,-3.1171,-2.9601,-2.8866,-2.8457,-2.8375,-2.8923,-2.9707,-3.088,-2.9523,-2.8824,-2.8783,-2.7701,-2.6645,-2.5561,-2.5355,-2.4972,-2.4406,-2.3853,-2.3678,-2.3841,-2.4255,-2.4757,-2.531,-2.5686,-2.6088,-2.6533,-2.6533,-2.6533,-2.6533,-2.6533,-2.6533,-2.6402,-2.5975,-2.6113,-2.6389,-2.5963,-2.6126,-2.6445,-2.5963,-2.5837,-2.5749,-2.5372,-2.5272,-2.5322,-2.5536,-2.4908,-2.4293,-2.4544,-2.3954,-2.3439,-2.3703,-2.3238,0.0,0.0,0.0,-2.1845,-2.1543,0.0,-2.2749,-2.2686,-2.2736,-2.3226,-2.4456,-2.4243,-2.3552,-2.2422,-2.2949,-2.3314,-2.3078,-2.4042,-2.5192,-2.6614,-2.7475,-2.8689,-3.024,-3.1087,-3.1853,-3.2586,-3.3093,-3.3735,-3.4624,-3.5098,-3.5407,-3.5622,-3.5622,-3.5622,-3.5622,-3.5622,-3.5622,-3.5622,-3.5622,-3.5622,-3.5622,-3.5622,-3.5854,-3.6448,-3.8779,-3.9256,-3.8786,-3.1482,-3.1482,0.0,-3.1437,-3.1467,-3.1467,-3.1437,-3.1511,-3.2078,-3.3305,-3.3514,-3.4292,-3.6207,-3.5365,-3.544,-3.7361,-3.3547,-3.1365,-3.2008,-2.9083,-2.7156,-2.6776,-2.8216,-2.9147,-2.9376,-2.9923,-3.0211,-3.024,-2.8502,-2.7683,-2.7604,-2.6253,-2.5548,-2.5523,-2.5008,-2.5046,-2.5523,-2.5536,-2.5887,-2.6483,-2.6496,-2.6508,-2.6533,-2.6533,-2.6533,-2.6533,-2.6533,-2.6533,-2.6533,-2.6508,-2.6508,-2.6533,-2.6508,-2.6508,-2.6533,-2.6508,-2.6496,-2.6496,-2.6483,-2.6483,-2.6276,-2.5737,-2.5197,-2.4657,-2.4142,-2.4004,-2.3816,-2.3276,-2.3577,-2.3778,-2.3153,-2.3027,-2.2736,-2.1656,-2.2874,0.0,0.0,-2.2924,-2.3966,-2.4017,-2.4004,-2.3552,-2.2422,-2.3314,-2.374,-2.3115,-2.369,-2.4606,-2.6069,-2.6909,-2.8226,-3.0225,-3.1087,-3.1853,-3.2586,-3.2641,-3.3287,-3.4576,-3.4624,-3.4988,-3.5622,-3.5622,-3.5622,-3.5622,-3.5622,-3.5622,-3.5622,-3.5622,-3.5622,-3.5622,-3.5622,-3.5622,-3.5723,-3.6581,-3.6915,-3.6898,0.0,0.0,-3.139,-3.0926,-3.1225,-3.1616,-3.2123,-3.2916,-3.4113,-3.5848,-3.724,-3.8495,-3.9571,-3.9355,-3.8785,-3.7935,-3.5512,-3.3666,-3.288,-3.0881,-2.9718,-2.9516,-2.9903,-2.99,-2.9624,-2.9278,-2.8923,-2.8556,-2.7484,-2.6905,-2.6905,-2.5996,-2.5799,-2.6126,-2.5222,-2.5109,-2.5598,-2.5598,-2.5711,-2.5925,-2.637,-2.6533,-2.6533,-2.6533,-2.6533,-2.6533,-2.6533,-2.6533,-2.6533,-2.6533,-2.6533,-2.6533,-2.6533,-2.6533,-2.6533,-2.6533,-2.6533,-2.6533,-2.6533,-2.6798,-2.6866,-2.6314,-2.5749,-2.5197,-2.4657,-2.4255,-2.3941,-2.3753,-2.4155,-2.4368,-2.3816,-2.3703,-2.3339,-2.2221,-2.2811,-2.2975,0.0,-2.2297,-2.3025,-2.3389,-2.3766,-2.3552,-2.2422,-2.2661,-2.2799,-2.2611,-2.3205,-2.4411,-2.6208,-2.7425,-2.8785,-3.0393,-3.1113,-3.164,-3.1853,-3.2772,-3.3495,-3.3937,-3.4847,-3.5362,-3.5622,-3.5622,-3.5622,-3.5622,-3.5622,-3.5622,-3.5622,-3.5622,-3.5622,-3.5622,-3.5622,-3.5622,-3.5723,-3.6485,-3.6772,-3.6793,-3.1556,-3.1482,-3.1332,-3.0941,-3.1435,-3.1901,-3.1988,-3.3412,-3.5074,-3.6684,-3.8723,-4.0661,-4.216,-4.1666,-4.0705,-3.9755,-3.7295,-3.5043,-3.323,-3.2273,-3.1293,-3.0286,-3.0565,-3.0375,-2.9646,-2.9076,-2.8433,-2.767,-2.7109,-2.6722,-2.6521,-2.6076,-2.6101,-2.6496,-2.5724,-2.5586,-2.59,-2.59,-2.59,-2.5937,-2.6314,-2.6533,-2.6533,-2.6533,-2.6533,-2.6533,-2.6533,-2.6533,-2.6533,-2.6533,-2.6533,-2.6533,-2.6533,-2.6659,-2.6716,-2.6584,-2.6672,-2.6703,-2.6584,-2.6716,-2.6904,-2.6622,-2.6189,-2.5711,-2.4983,-2.4858,-2.4757,-2.4368,-2.4883,-2.5297,-2.4933,-2.4707,-2.4205,-2.31,-2.3201,-2.3125,0.0,-2.2385,-2.2736,-2.3027,-2.3464,-2.3326,-2.2397,-2.2485,-2.2417,-2.2082,-2.2893,-2.4202,-2.6048,-2.7381,-2.8861,-3.0477,-3.118,-3.1482,-3.1482,-3.268,-3.3391,-3.3582,-3.4704,-3.5362,-3.5622,-3.5622,-3.5622,-3.5622,-3.5622,-3.5622,-3.5622,-3.5622,-3.5622,-3.5622,-3.5622,-3.5622,-3.5673,-3.618,-3.6211,-3.5994,-3.1735,-3.1497,-3.1453,-3.1453,-3.2004,-3.2108,-3.1214,-3.3086,-3.4939,-3.6072,-3.8256,-4.0908,-4.4028,-4.2281,-4.1404,-4.2578,-3.8854,-3.5554,-3.3458,-3.3219,-3.1964,-2.9289,-3.0416,-3.0537,-2.9429,-2.9377,-2.8799,-2.7643,-2.7385,-2.6967,-2.6533,-2.6533,-2.6533,-2.6533,-2.6533,-2.6533,-2.6533,-2.6533,-2.6533,-2.6533,-2.6521,-2.6589,-2.6589,-2.6589,-2.6589,-2.6521,-2.6533,-2.6533,-2.6533,-2.6533,-2.6533,-2.6533,-2.6559,-2.6866,-2.718,-2.6691,-2.6892,-2.7168,-2.671,-2.6571,-2.6559,-2.6533,-2.6533,-2.6176,-2.5109,-2.5674,-2.6126,-2.5071,-2.5711,-2.6533,-2.6533,-2.6013,-2.5285,-2.4217,-2.3991,-2.3766,-2.3153,-2.3078,-2.3078,-2.3115,-2.309,-2.2865,-2.2372,-2.2811,-2.2725,-2.1734,-2.2802,-2.4136,-2.5517,-2.6915,-2.8521,-3.0417,-3.115,-3.1482,-3.1482,-3.2272,-3.3002,-3.3582,-3.4333,-3.4988,-3.5622,-3.5622,-3.5622,-3.5622,-3.5622,-3.5622,-3.5622,-3.5622,-3.5622,-3.5622,-3.5622,-3.5639,-3.5673,-3.5639,-3.5144,-3.4479,-3.1704,-3.1352,-3.1221,-3.1221,-3.1035,-3.0989,-3.1436,-3.3054,-3.5339,-3.8539,-4.1342,-4.3659,-4.5486,-4.4414,-4.3204,-4.257,-3.9483,-3.7349,-3.6784,-3.5215,-3.3796,-3.2667,-3.2187,-3.1179,-2.9745,-2.9287,-2.8511,-2.7405,-2.693,-2.6603,-2.6533,0.0,0.0,-2.6533,-2.6533,-2.6533,-2.6533,-2.6533,-2.6533,-2.6521,-2.7162,-2.7417,-2.7417,-2.7417,-2.7417,-2.7284,-2.6714,-2.6533,-2.6533,-2.6533,-2.6533,-2.6596,-2.6942,-2.7168,-2.7331,-2.7607,-2.7494,-2.7256,-2.7105,-2.7067,-2.6967,-2.6634,-2.6533,-2.6345,-2.5561,-2.5611,-2.5737,-2.546,-2.5963,-2.6533,-2.6533,-2.6339,-2.5887,-2.4795,-2.3904,-2.3314,-2.309,-2.3078,-2.3288,-2.3728,-2.3389,-2.2865,-2.2372,-2.3328,-2.3511,-2.2298,-2.3964,-2.5194,-2.5517,-2.7806,-2.9297,-2.9804,-3.0941,-3.1482,-3.1482,-3.2718,-3.3443,-3.3582,-3.48,-3.5407,-3.5622,-3.5622,-3.5622,-3.5622,-3.5622,-3.5622,-3.5622,-3.5622,-3.5622,-3.5622,-3.5622,-3.5977,-3.6417,-3.5825,-3.4864,-3.3836,-3.2093,-3.1933,-3.171,-3.1168,-3.1392,-3.1828,-3.2341,-3.3261,-3.5295,-3.9035,-4.1695,-4.391,-4.5579,-4.5067,-4.4207,-4.3436,-4.0107,-3.7801,-3.7312,-3.6132,-3.4977,-3.3947,-3.3294,-3.2177,-3.0532,-2.9716,-2.8649,-2.7281,-2.6967,-2.6703,-2.6533,0.0,0.0,0.0,0.0,-2.6533,-2.6533,-2.6533,-2.6714,-2.704,-2.755,-2.792,0.0,-2.7855,-2.767,-2.7604,-2.6782,-2.6533,-2.6533,-2.6533,-2.6533,-2.6553,-2.7105,-2.7444,-2.7708,-2.8009,-2.8059,-2.7946,-2.7708,-2.7469,-2.7205,-2.6904,-2.6816,-2.6603,-2.5787,-2.5975,-2.6189,-2.5699,-2.605,-2.6533,-2.6533,-2.6251,-2.5724,-2.4644,-2.413,-2.3703,-2.314,-2.3351,-2.354,-2.3615,-2.3552,-2.3201,-2.2385,-2.3489,-2.4073,-2.3437,-2.5261,-2.6278,-2.5979,-2.8515,-2.9864,-2.9594,-3.1405,-3.2108,-3.1482,-3.3474,-3.4154,-3.3649,-3.4958,-3.5622,-3.5622,-3.5622,-3.5622,-3.5622,-3.5622,-3.5622,-3.5622,-3.5622,-3.5622,-3.5656,-3.5994,-3.6182,-3.6281,-3.6117,-3.5251,-3.4046,-3.2705,-3.2809,-3.2568,-3.1249,-3.2384,-3.3658,-3.397,-3.4223,-3.5597,-3.8982,-4.121,-4.3239,-4.5426,-4.5078,-4.4566,-4.4373,-4.0618,-3.7783,-3.6634,-3.6445,-3.5692,-3.4186,-3.4048,-3.3219,-3.1537,-3.0382,-2.9001,-2.7394,-2.7243,-2.6929,-2.6533,0.0,0.0,0.0,0.0,0.0,-2.6533,-2.6533,-2.6973,-2.7736,-2.7802,-2.8363,-2.9066,-2.8182,-2.7855,-2.7736,-2.685,-2.6533,-2.6533,-2.6609,-2.6634,-2.6747,-2.7306,-2.7821,-2.8235,-2.831,-2.8612,-2.8825,-2.8348,-2.7808,-2.7394,-2.7394,-2.7331,-2.7017,-2.6038,-2.6527,-2.6892,-2.5912,-2.6113,-2.6533,-2.6533,-2.5988,-2.5285,-2.4356,-2.4494,-2.4368,-2.3389,-2.3615,-2.3728,-2.3301,-2.369,0.0,-2.2728,-2.3703,-2.4433,-2.4533,-2.628,-2.7132,-2.6613,-2.8921,-3.0043,-2.9594,-3.1869,-3.2677,-3.1735,-3.4123,-3.4856,-3.387,-3.5058,-3.5622,-3.5622,-3.5622,-3.5622,-3.5622,-3.5622,-3.5622,-3.5622,-3.5622,-3.5622,-3.569,-3.6485,-3.6348,-3.5826,-3.6481,-3.5918,-3.4695,-3.3274,-3.3154,-3.2846,-3.1246,-3.259,-3.4477,-3.6311,-3.7387,-3.9025,-4.1769,-4.3531,-4.5349,-4.7539,-4.625,-4.4797,-4.3751,-4.1138,-3.9019,-3.7824,-3.686,-3.6031,-3.529,-3.4826,-3.3796,-3.2102,-3.057,-2.9202,-2.7959,-2.7055,-2.6553,-2.6533,-2.6533,-2.6533,0.0,0.0,0.0,-2.6533,-2.6533,-2.6973,-2.7736,-2.8492,-2.9317,-2.995,-2.9129,-2.8748,-2.8556,-2.704,-2.6533,-2.6596,-2.6979,-2.713,-2.7318,-2.8323,-2.8699,-2.8875,-2.9365,-2.9227,-2.89,-2.8812,-2.8386,-2.7959,-2.7959,-2.762,-2.7231,-2.703,-2.6791,-2.6553,-2.6352,-2.6458,-2.6533,-2.6533,-2.5988,-2.5536,-2.5347,-2.4657,-2.4067,-2.3879,-2.3527,-2.3427,-2.3803,-2.3941,-2.4151,-2.4575,-2.482,-2.4664,-2.3881,-2.5564,-2.6666,-2.6583,-2.8083,-2.9131,-2.9564,-3.0522,-3.1704,-3.314,-3.3678,-3.4377,-3.5234,-3.5492,-3.5622,-3.5622,-3.5622,-3.5622,-3.5622,-3.5622,-3.5622,-3.5622,-3.5622,-3.5622,-3.569,-3.6485,-3.6666,-3.6498,-3.6631,-3.6197,-3.5334,-3.4412,-3.3586,-3.2981,-3.2555,-3.4199,-3.6157,-3.7814,-3.9496,-4.1029,-4.2275,-4.2785,-4.3638,-4.5516,-4.4688,-4.3652,-4.2685,-4.0078,-3.8216,-3.7673,-3.681,-3.6245,-3.5981,-3.5165,-3.4211,-3.3119,-3.0922,-2.9377,-2.8536,-2.7143,-2.6533,-2.6533,-2.6533,-2.6533,-2.6533,0.0,-2.6533,-2.6533,-2.6533,-2.7229,-2.8427,-2.8812,-2.9504,-3.0208,-2.9317,-2.8748,-2.8182,-2.6905,-2.6533,-2.6609,-2.7092,-2.7281,-2.7469,-2.8586,-2.8925,-2.9038,-2.9616,-2.9591,-2.9377,-2.9377,-2.8963,-2.8536,-2.8536,-2.7896,-2.7281,-2.7281,-2.6854,-2.6533,-2.6533,-2.6533,-2.6533,-2.6533,-2.6239,-2.5937,-2.5649,-2.5423,-2.5071,-2.4506,-2.4418,-2.4305,-2.4029,-2.4255,-2.4305,-2.4124,-2.4343,-2.4688,-2.505,-2.6293,-2.7045,-2.7141,-2.8382,-2.925,-2.9564,-3.0851,-3.1854,-3.2467,-3.3522,-3.4062,-3.4046,-3.4378,-3.4752,-3.5098,-3.5098,-3.5098,-3.5098,-3.547,-3.5407,-3.5098,-3.547,-3.5622,-3.5695,-3.6463,-3.647,-3.6147,-3.6552,-3.5962,-3.4942,-3.5434,-3.4353,-3.3727,-3.4161,-3.6081,-3.7839,-3.873,-4.0538,-4.2173,-4.2916,-4.2288,-4.2287,-4.3983,-4.3719,-4.3013,-4.1841,-3.9415,-3.7725,-3.7283,-3.6671,-3.6307,-3.6194,-3.524,-3.4412,-3.3746,-3.126,-2.9628,-2.8925,-2.7394,-2.6647,-2.6533,-2.6533,-2.6533,-2.6533,-2.6533,-2.6533,-2.6533,-2.6533,-2.7351,-2.8748,-2.8748,-2.9254,-2.995,-2.9066,-2.8298,-2.7604,-2.6782,-2.6533,-2.6609,-2.7092,-2.7356,-2.7657,-2.8762,-2.9026,-2.9038,-2.9616,-2.9628,-2.949,-2.9729,-2.9289,-2.8787,-2.89,-2.8097,-2.7281,-2.7281,-2.6854,-2.6533,-2.6533,-2.6533,-2.6533,-2.6533,-2.6533,-2.6314,-2.585,-2.6063,-2.5975,-2.5109,-2.5247,-2.5071,-2.4117,-2.4481,-2.4381,-2.3178,-2.3775,-2.4747,-2.5948,-2.6686,-2.719,-2.759,-2.8712,-2.943,-2.9579,-3.121,-3.2048,-3.1958,-3.338,-3.3707,-3.3005,-3.343,-3.3887,-3.4382,-3.4382,-3.4382,-3.4431,-3.5098,-3.5161,-3.4847,-3.5362,-3.5622,-3.565,-3.6241,-3.6101,-3.5649,-3.6188,-3.5706,-3.4607,-3.5472,-3.5746,-3.5865,-3.5448,-3.7236,-3.8755,-3.8856,-3.9898,-4.1839,-4.5253,-4.4718,-4.4781,-4.6721,-4.6375,-4.485,-4.1931,-4.0935,-3.9505,-3.7367,-3.6671,-3.6144,-3.5642,-3.5052,-3.4223,-3.3181,-3.1436,-3.0005,-2.8925,-2.777,-2.6954,-2.6533,-2.6533,-2.6533,-2.6533,-2.6533,-2.6533,-2.6533,-2.6533,-2.704,-2.7802,-2.7802,-2.8363,-2.9002,-2.8182,-2.7802,-2.7604,-2.6782,-2.6533,-2.6609,-2.7092,-2.7607,-2.8222,-2.9352,-2.9352,-2.9038,-2.9616,-2.9063,-2.8486,-2.9515,-2.9001,-2.8298,-2.88,-2.8097,-2.7281,-2.7281,-2.6854,-2.6533,-2.6533,-2.6533,-2.6533,-2.6533,-2.6533,-2.6508,-2.6389,-2.5988,-2.5636,-2.5536,-2.5159,-2.4669,-2.4067,-2.4481,-2.4381,-2.3178,-2.4223,-2.4853,-2.4563,-2.5174,-2.6165,-2.7524,-2.8293,-2.8966,-2.9564,-3.0298,-3.1524,-3.3305,-3.2951,-3.3315,-3.4311,-3.382,-3.3633,-3.3684,-3.3684,-3.3684,-3.3735,-3.4382,-3.4988,-3.5515,-3.5577,-3.5622,-3.5599,-3.5726,-3.5714,-3.5602,-3.5658,-3.5553,-3.531,-3.7434,-3.6625,-3.6118,-3.6905,-3.7764,-3.8693,-3.971,-4.0237,-4.1361,-4.3579,-4.3803,-4.4289,-4.5463,-4.501,-4.3733,-4.1363,-3.9951,-3.845,-3.6874,-3.6483,-3.6257,-3.6044,-3.519,-3.4512,-3.4073,-3.18,-3.0231,-2.9453,-2.7996,-2.7005,-2.6533,-2.6533,-2.6533,-2.6533,-2.6533,-2.671,-2.6929,-2.6672,-2.7152,-2.8131,-2.7802,-2.792,-2.8182,-2.7868,-2.7417,-2.6905,-2.6589,-2.6533,-2.6609,-2.7092,-2.7431,-2.7745,-2.8524,-2.8624,-2.8549,-2.9101,-2.8725,-2.8273,-2.9063,-2.8699,-2.816,-2.8386,-2.7858,-2.7281,-2.7281,-2.6854,-2.6533,-2.6533,-2.6533,-2.6533,-2.6533,-2.6533,-2.6533,-2.6533,-2.6264,-2.6113,-2.6113,-2.5636,-2.5096,-2.4556,-2.4393,-2.4191,-2.3844,-2.4328,-2.4851,-2.5422,-2.5827,-2.6494,-2.7486,-2.7832,-2.8652,-3.0088,-3.0013,-3.0717,-3.2302,-3.246,-3.2604,-3.2725,-3.2859,-3.2958,-3.2986,-3.2986,-3.3235,-3.3582,-3.3887,-3.4382,-3.5052,-3.5407,-3.5622,-3.5537,-3.5201,-3.5025,-3.4981,-3.4924,-3.4936,-3.4846,-3.9071,-3.76,-3.6734,-3.8241,-3.8504,-3.8906,-4.0086,-4.0275,-4.0499,-4.1308,-4.2168,-4.3169,-4.4317,-4.3891,-4.2968,-4.1429,-3.9673,-3.8121,-3.6977,-3.6628,-3.6219,-3.5893,-3.514,-3.4575,-3.4248,-3.2164,-3.0733,-3.003,-2.8511,-2.7406,-2.6703,-2.6596,-2.6533,-2.6533,-2.6628,-2.6917,-2.7268,-2.7042,-2.7462,-2.8144,-2.7754,-2.7507,-2.7351,-2.7351,-2.6973,-2.6533,-2.6533,-2.6533,-2.6584,-2.6917,-2.7042,-2.7168,-2.7883,-2.7996,-2.7971,-2.8524,-2.8185,-2.777,-2.8499,-2.816,-2.7657,-2.7821,-2.7444,-2.7042,-2.7042,-2.6741,-2.6533,-2.6533,-2.6533,-2.6533,-2.6533,-2.6533,-2.6533,-2.6533,-2.6533,-2.6533,-2.6533,-2.6101,-2.5598,-2.4908,-2.4481,-2.4251,-2.4313,-2.4292,-2.4749,-2.5792,-2.619,-2.6645,-2.7072,-2.7564,-2.8438,-2.987,-3.0052,-3.0597,-3.1467,-3.2003,-3.1988,-3.1482,-3.2003,-3.2249,-3.2272,-3.2272,-3.2625,-3.3339,-3.3479,-3.3987,-3.464,-3.5316,-3.547,-3.5258,-3.4554,-3.4415,-3.4526,-3.4288,-3.4442,-3.4771,-3.9693,-3.8807,-3.8329,-3.9471,-3.9672,-3.9685,-3.9697,-3.9697,-3.9509,-3.8956,-4.0016,-4.1775,-4.4185,-4.3774,-4.3214,-4.2595,-4.0926,-3.936,-3.8198,-3.707,-3.5881,-3.4788,-3.4726,-3.4211,-3.3119,-3.2503,-3.1675,-3.0608,-2.9465,-2.8348,-2.7256,-2.6716,-2.6533,-2.6546,-2.703,-2.7268,-2.7318,-2.7858,-2.777,-2.7281,-2.7281,-2.7012,-2.6533,-2.6533,-2.6533,-2.6533,-2.6533,-2.6533,-2.6533,-2.6533,-2.6533,-2.6735,-2.7758,-2.7733,-2.7406,-2.7959,-2.7344,-2.6716,-2.7821,-2.7318,-2.6684,-2.7155,-2.6879,-2.6533,-2.6533,-2.6533,-2.6533,-2.6533,-2.6533,-2.6533,-2.6533,-2.6533,-2.6533,-2.6533,-2.6533,-2.6533,-2.6533,-2.6521,-2.605,-2.4946,-2.4808,-2.4671,-2.434,-2.4292,-2.453,-2.505,-2.5774,-2.6238,-2.6238,-2.7584,-2.8381,-2.841,-3.0393,-3.1452,-3.1482,-3.1482,-3.1482,-3.1482,-3.1482,-3.1482,-3.1524,-3.1524,-3.191,-3.2641,-3.3287,-3.3987,-3.464,-3.5316,-3.5207,-3.4528,-3.3887,-3.3966,-3.4438,-3.3774,-3.4352,-3.5489,-4.0892,-4.0002,-3.927,-3.9634,-3.9697,-3.9697,-3.9697,-3.9697,-3.9496,-3.8944,-3.9246,-4.031,-4.2314,-4.278,-4.2753,-4.2637,-4.0926,-3.936,-3.8198,-3.6619,-3.5655,-3.5303,-3.4562,-3.3997,-3.3646,-3.234,-3.1311,-3.062,-2.949,-2.8561,-2.7833,-2.7281,-2.7218,-2.757,-2.7369,-2.7708,-2.836,-2.7795,-2.7657,-2.777,-2.703,-2.6615,-2.6533,-2.6533,-2.6533,-2.6533,-2.6533,-2.6533,-2.6533,-2.6533,-2.6533,-2.6584,-2.6866,-2.6866,-2.6829,-2.7381,-2.703,-2.6615,-2.7344,-2.7017,-2.6571,-2.6747,-2.6659,-2.6533,-2.6533,-2.6533,-2.6533,-2.6533,-2.6533,-2.6533,-2.6533,-2.6533,-2.6533,-2.6533,-2.6533,-2.6395,-2.5925,-2.5561,-2.5071,-2.4343,-2.4397,-2.4787,-2.5676,-2.5676,-2.6027,-2.6972,-2.6418,-2.6069,-2.6156,-2.7551,-2.8555,-2.9088,-3.0229,-3.1061,-3.1482,-3.1973,-3.1973,-3.1482,-3.2437,-3.2632,-3.2213,-3.2662,-3.2496,-3.1925,-3.3036,-3.3699,-3.3987,-3.464,-3.4783,-3.4528,-3.3836,-3.3666,-3.382,-3.3593,-3.4053,-3.4876,-4.2242,-4.0932,-3.9697,-3.9697,-3.9697,-3.9622,-3.9421,-3.9766,-3.9763,-3.8983,-3.9246,-3.9957,-4.0907,-4.1723,-4.2363,-4.2593,-4.0926,-3.944,-3.8491,-3.6599,-3.5537,-3.5532,-3.4426,-3.3809,-3.3596,-3.2554,-3.165,-3.0909,-2.9578,-2.8649,-2.8097,-2.7758,-2.7657,-2.7795,-2.7871,-2.8059,-2.8298,-2.8009,-2.7858,-2.7733,-2.7042,-2.671,-2.6533,-2.6533,-2.6533,-2.6559,-2.6703,-2.6766,-2.6766,-2.6766,-2.6766,-2.6798,-2.6596,-2.6533,-2.6596,-2.6866,-2.6728,-2.6596,-2.6879,-2.6798,-2.6533,-2.6533,-2.6533,-2.6533,-2.6533,-2.6533,-2.6533,-2.6533,-2.6533,-2.6533,-2.6533,-2.6533,-2.6533,-2.6533,-2.6533,-2.6264,-2.5674,-2.5322,-2.4962,-2.4502,-2.4745,-2.545,-2.668,-2.6445,-2.6685,-2.7913,-2.6847,-2.6052,-2.5908,-2.7115,-2.8005,-2.8428,-2.9711,-3.0601,-3.1029,-3.1752,-3.2063,-3.1913,-3.2736,-3.3036,-3.2886,-3.3051,-3.2811,-3.2287,-3.3364,-3.3921,-3.405,-3.4987,-3.5087,-3.4609,-3.4426,-3.4164,-3.389,-3.3878,-3.4292,-3.4857,-4.3324,-4.1353,-3.9634,-3.9634,-3.9634,-3.9471,-3.8956,-3.9866,-4.0175,-3.903,-3.9856,-4.0446,-3.9954,-4.0746,-4.165,-4.2238,-4.0812,-3.9637,-3.8987,-3.6701,-3.5429,-3.5417,-3.4433,-3.3608,-3.3081,-3.3031,-3.2466,-3.1336,-2.9754,-2.8725,-2.8222,-2.8147,-2.7846,-2.7444,-2.8398,-2.826,-2.7406,-2.8398,-2.8222,-2.7281,-2.7243,-2.6917,-2.6533,-2.6533,-2.6533,-2.6596,-2.7042,-2.7256,-2.7281,-2.7281,-2.7281,-2.7205,-2.6798,-2.6584,-2.6533,-2.6533,-2.6533,-2.6533,-2.6533,-2.6533,-2.6533,-2.6533,-2.6533,-2.6533,-2.6533,-2.6533,-2.6533,-2.6533,-2.6533,-2.6533,-2.6533,-2.6533,-2.6533,-2.6533,-2.6496,-2.6201,-2.5624,-2.5602,-2.5524,-2.5161,-2.5712,-2.6524,-2.7453,-2.6695,-2.6671,-2.7872,-2.7051,-2.6226,-2.5686,-2.6466,-2.692,-2.6931,-2.9147,-3.0343,-3.0341,-3.1161,-3.1958,-3.2647,-3.2602,-3.2931,-3.3544,-3.2976,-3.3006,-3.3561,-3.4237,-3.4529,-3.4697,-3.5991,-3.5772,-3.4659,-3.5329,-3.5179,-3.4472,-3.4472,-3.4906,-3.5359,-4.2879,-4.0847,-3.9069,-3.9069,-3.9069,-3.9019,-3.8894,-3.9543,-3.9728,-3.8978,-3.915,-3.9473,-3.9881,-3.9346,-3.8944,-3.9181,-3.9618,-3.9637,-3.9001,-3.6413,-3.469,-3.4348,-3.3656,-3.3206,-3.3081,-3.2641,-3.1888,-3.0796,-2.998,-2.9515,-2.9377,-2.8511,-2.826,-2.8511,-2.7934,-2.7758,-2.7896,-2.7745,-2.7519,-2.7243,-2.6816,-2.6647,-2.6533,-2.6533,-2.6533,-2.6546,-2.6603,-2.6929,-2.7281,-2.7281,-2.7281,-2.7331,-2.762,-2.713,-2.6533,-2.6533,-2.6533,-2.6533,-2.6533,-2.6533,-2.6533,-2.6533,-2.6533,-2.6533,-2.6533,-2.6533,-2.6533,-2.6533,-2.6533,-2.6533,-2.6533,-2.6533,-2.6533,-2.6533,-2.6088,-2.5611,-2.5084,-2.5537,-2.5756,-2.5263,-2.6229,-2.7212,-2.7935,-2.7112,-2.6878,-2.7733,-2.6963,-2.6471,-2.6264,-2.686,-2.7284,-2.7473,-2.931,-3.0499,-3.0912,-3.1826,-3.2871,-3.4008,-3.3499,-3.3604,-3.4262,-3.4637,-3.4322,-3.3529,-3.4194,-3.4529,-3.455,-3.4877,-3.4845,-3.4566,-3.4722,-3.4664,-3.4472,-3.4472,-3.4906,-3.5359,-4.1802,-4.005,-3.8567,-3.8831,-3.8655,-3.8666,-3.9235,-3.9836,-4.0231,-4.0158,-4.0164,-4.0304,-4.0603,-4.0118,-3.9508,-3.9006,-3.9006,-3.8837,-3.8141,-3.5954,-3.4641,-3.4658,-3.3617,-3.3081,-3.3081,-3.2767,-3.2064,-3.0972,-3.0181,-2.9654,-2.939,-2.8775,-2.8373,-2.816,-2.7821,-2.7544,-2.7356,-2.7306,-2.713,-2.6879,-2.6647,-2.6533,-2.6533,-2.6533,-2.6615,-2.6866,-2.7118,-2.757,-2.8034,-2.8034,-2.8034,-2.8047,-2.8097,-2.7695,-2.7205,-2.7205,-2.6854,-2.6533,-2.6533,-2.6533,-2.6533,-2.6533,-2.6533,-2.6533,-2.6533,-2.6533,-2.6533,-2.6533,-2.6533,-2.6533,-2.6533,-2.6533,-2.6445,-2.6101,-2.6025,-2.5724,-2.4933,-2.5754,-2.6365,-2.6115,-2.7229,-2.8269,-2.8984,-2.8363,-2.7986,-2.8039,-2.7748,-2.7369,-2.6866,-2.801,-2.8542,-2.8158,-2.9679,-3.0899,-3.1573,-3.2786,-3.3769,-3.4472,-3.4113,-3.4292,-3.4951,-3.5011,-3.4801,-3.4427,-3.4786,-3.4955,-3.4948,-3.5316,-3.5254,-3.5022,-3.5316,-3.5232,-3.4951,-3.4951,-3.4887,-3.4691,-4.0651,-3.9233,-3.8126,-3.8817,-3.8488,-3.8523,-3.973,-4.0477,-4.105,-4.1576,-4.1587,-4.1587,-4.1587,-4.142,-4.0916,-3.9986,-3.8827,-3.7857,-3.72,-3.5788,-3.5135,-3.5476,-3.425,-3.3518,-3.3428,-3.3107,-3.2465,-3.1491,-3.036,-2.9503,-2.8925,-2.885,-2.826,-2.7306,-2.7682,-2.7344,-2.6559,-2.6967,-2.6892,-2.6533,-2.6533,-2.6533,-2.6533,-2.6533,-2.6804,-2.7344,-2.7808,-2.8335,-2.88,-2.88,-2.88,-2.8737,-2.8348,-2.8172,-2.8122,-2.821,-2.7507,-2.6703,-2.6703,-2.6653,-2.6647,-2.6647,-2.6647,-2.6647,-2.6647,-2.6647,-2.6634,-2.6546,-2.6533,-2.6533,-2.6533,-2.6533,-2.6302,-2.5799,-2.6063,-2.6068,-2.5254,-2.6257,-2.7211,-2.7644,-2.8512,-2.9435,-3.0159,-2.9605,-2.8974,-2.8464,-2.8673,-2.8459,-2.7657,-2.9353,-3.01,-2.9416,-3.0443,-3.1519,-3.2556,-3.3754,-3.4427,-3.4622,-3.4532,-3.4846,-3.5489,-3.4906,-3.4951,-3.5504,-3.5504,-3.5468,-3.5385,-3.5984,-3.583,-3.5246,-3.603,-3.5902,-3.537,-3.5474,-3.4839,-3.3876,-4.0748,-3.8896,-3.7698,-3.8691,-3.8802,-3.9203,-4.0368,-4.1081,-4.1521,-4.1601,-4.1587,-4.1587,-4.1587,-4.0746,-4.0073,-3.9899,-3.8827,-3.7857,-3.7289,-3.6547,-3.5882,-3.5561,-3.5669,-3.5503,-3.4961,-3.3105,-3.2058,-3.1875,-3.0522,-2.9503,-2.8925,-2.8448,-2.7896,-2.7268,-2.6879,-2.6684,-2.6533,-2.6622,-2.6609,-2.6533,-2.6533,-2.6533,-2.6533,-2.6533,-2.6804,-2.7293,-2.7381,-2.777,-2.8235,-2.8235,-2.8235,-2.8298,-2.8687,-2.8486,-2.8197,-2.8662,-2.8348,-2.7846,-2.7846,-2.7507,-2.7155,-2.7155,-2.7155,-2.7155,-2.7155,-2.7155,-2.7017,-2.6553,-2.6533,-2.6533,-2.6533,-2.6533,-2.6496,-2.6408,-2.5988,-2.5927,-2.6517,-2.7368,-2.8441,-2.9729,-2.9778,-2.9955,-3.0613,-2.9219,-2.8277,-2.8176,-2.8195,-2.8499,-2.9136,-2.9921,-3.1026,-3.2459,-3.2162,-3.2672,-3.4103,-3.3811,-3.4218,-3.534,-3.4756,-3.4846,-3.5504,-3.5385,-3.54,-3.5504,-3.5504,-3.5164,-3.466,-3.4751,-3.4405,-3.3878,-3.454,-3.4748,-3.4696,-3.5295,-3.4839,-3.3876,-4.0755,-3.9627,-3.8897,-3.9725,-3.9613,-3.9953,-4.1404,-4.1638,-4.185,-4.2467,-4.1947,-4.185,-4.2467,-4.1518,-4.0831,-4.0831,-3.9798,-3.8706,-3.7814,-3.6792,-3.6187,-3.5924,-3.5778,-3.5388,-3.481,-3.3451,-3.2479,-3.1961,-3.1044,-2.9819,-2.8473,-2.8222,-2.7657,-2.6829,-2.6647,-2.6533,-2.6533,-2.6533,-2.6533,-2.6533,-2.6533,-2.6533,-2.6533,-2.6533,-2.6804,-2.7318,-2.762,-2.7896,-2.8197,-2.8812,-2.8812,-2.8649,-2.9214,-2.9214,-2.9063,-2.9315,-2.8787,-2.8109,-2.8109,-2.7708,-2.7356,-2.7657,-2.7507,-2.7356,-2.7657,-2.772,-2.7657,-2.7394,-2.7344,-2.7344,-2.7344,-2.7105,-2.6904,-2.6904,-2.6427,-2.6266,-2.6655,-2.7657,-2.8641,-2.9302,-2.9767,-3.0169,-3.0438,-2.9589,-2.8888,-2.8574,-2.8837,-2.9298,-2.9966,-3.0972,-3.2206,-3.3595,-3.3893,-3.4297,-3.5026,-3.4726,-3.4891,-3.5504,-3.519,-3.519,-3.5504,-3.5504,-3.5504,-3.5504,-3.5504,-3.5115,-3.4472,-3.4472,-3.4083,-3.3529,-3.3829,-3.4158,-3.4454,-3.4286,-3.3835,-3.3101,-4.09,-4.0364,-4.0124,-4.0817,-4.0524,-4.0815,-4.2334,-4.2252,-4.229,-4.317,-4.2548,-4.229,-4.317,-4.2548,-4.2029,-4.2029,-4.0916,-3.9871,-3.8979,-3.7798,-3.6967,-3.6724,-3.6229,-3.5672,-3.5054,-3.4189,-3.3216,-3.2128,-3.154,-3.0173,-2.8109,-2.8109,-2.7519,-2.6533,-2.6533,-2.6533,-2.6533,-2.6533,-2.6533,-2.6533,-2.6533,-2.6533,-2.6533,-2.6533,-2.6804,-2.7356,-2.7908,-2.8109,-2.826,-2.9252,-2.9302,-2.9001,-2.9453,-2.9679,-2.9792,-2.9792,-2.9176,-2.8461,-2.8335,-2.7996,-2.777,-2.8185,-2.7984,-2.777,-2.8197,-2.8298,-2.826,-2.8134,-2.8109,-2.8109,-2.8109,-2.7758,-2.7431,-2.7306,-2.703,-2.6861,-2.6985,-2.7945,-2.8858,-2.9398,-2.9918,-3.0283,-3.0619,-3.01,-2.9666,-2.934,-2.9947,-3.0583,-3.105,-3.2437,-3.3606,-3.4545,-3.5207,-3.5504,-3.5504,-3.5504,-3.5504,-3.5504,-3.5504,-3.5504,-3.5504,-3.5504,-3.5504,-3.5504,-3.5504,-3.5026,-3.4247,-3.4247,-3.3769,-3.3051,-3.3215,-3.3436,-3.371,-3.3296,-3.265,-3.2,-4.1576,-4.0689,-4.026,-4.131,-4.1532,-4.1864,-4.3055,-4.32,-4.317,-4.325,-4.325,-4.325,-4.325,-4.325,-4.3155,-4.3155,-4.2111,-4.142,-4.1322,-4.0067,-3.8883,-3.7798,-3.8023,-3.7853,-3.7198,-3.5659,-3.4101,-3.2533,-3.1623,-3.0173,-2.8109,-2.8109,-2.7519,-2.6533,-2.6533,-2.6533,-2.6533,-2.6533,-2.6533,-2.6533,-2.6533,-2.6533,-2.6533,-2.6533,-2.6804,-2.7356,-2.7908,-2.8109,-2.8197,-2.8787,-2.8963,-2.8938,-2.8976,-2.9365,-2.9792,-2.9792,-2.9729,-2.9553,-2.9013,-2.8837,-2.8812,-2.885,-2.8837,-2.8825,-2.8863,-2.8875,-2.8725,-2.821,-2.8109,-2.8109,-2.8109,-2.8072,-2.7871,-2.7369,-2.767,-2.8058,-2.8307,-2.8934,-3.0064,-3.1962,-3.1034,-3.0671,-3.1738,-3.0625,-2.9993,-3.0457,-3.141,-3.235,-3.3161,-3.4214,-3.5267,-3.6253,-3.5753,-3.5504,-3.5504,-3.5504,-3.5504,-3.5504,-3.5504,-3.5504,-3.5504,-3.5504,-3.5504,-3.5504,-3.5504,-3.4771,-3.3559,-3.3559,-3.2826,-3.1676,-3.2347,-3.2136,-3.1575,-3.2688,-3.2054,-3.0639,-4.2644,-4.2304,-4.2126,-4.2563,-4.2644,-4.2805,-4.325,-4.3329,-4.3329,-4.3329,-4.3329,-4.3329,-4.3329,-4.3329,-4.3165,-4.2761,-4.169,-4.1011,-4.1011,-3.975,-3.8765,-3.8199,-3.8322,-3.7898,-3.6851,-3.6215,-3.5117,-3.3449,-3.2522,-3.1007,-2.8983,-2.8375,-2.7519,-2.6533,-2.6533,-2.6533,-2.6533,-2.6533,-2.6533,-2.6533,-2.6533,-2.6533,-2.6533,-2.6533,-2.6804,-2.7356,-2.7908,-2.8109,-2.8247,-2.9151,-2.9227,-2.8988,-2.9352,-2.9616,-2.9792,-2.9792,-2.9792,-2.9741,-2.9528,-2.9202,-2.9013,-2.9377,-2.9202,-2.9026,-2.939,-2.9465,-2.9402,-2.9202,-2.9151,-2.9151,-2.9151,-2.8863,-2.8662,-2.8812,-2.8423,-2.828,-2.8673,-2.9269,-2.9815,-3.0238,-3.0392,-3.0509,-3.0586,-3.0441,-3.0684,-3.1565,-3.2266,-3.3347,-3.4951,-3.5921,-3.666,-3.706,-3.6447,-3.6118,-3.6118,-3.6118,-3.5908,-3.5504,-3.5504,-3.5504,-3.5504,-3.5504,-3.5504,-3.5439,-3.4839,-3.4047,-3.3165,-3.26,-3.1582,-3.0515,-3.1077,-3.1174,-3.1012,-3.1199,-3.1124,-3.0829,-4.3329,-4.3329,-4.3329,-4.3329,-4.3329,-4.3329,-4.3329,-4.3329,-4.3329,-4.3329,-4.3329,-4.3329,-4.3329,-4.3329,-4.3075,-4.2417,-4.1671,-4.1077,-4.0873,-3.9853,-3.909,-3.8766,-3.8706,-3.8108,-3.6806,-3.6776,-3.5895,-3.4027,-3.3031,-3.1659,-2.9742,-2.8775,-2.777,-2.6716,-2.6716,-2.6697,-2.6533,-2.6533,-2.6533,-2.6533,-2.6533,-2.6533,-2.6533,-2.6533,-2.6804,-2.7356,-2.7908,-2.8222,-2.8511,-2.9465,-2.9528,-2.9264,-2.9666,-2.9792,-2.9792,-2.9792,-2.9792,-2.9792,-2.9792,-2.9628,-2.9515,-2.9741,-2.949,-2.9302,-2.9704,-2.9792,-2.9842,-3.0018,-3.0043,-3.0093,-3.0269,-2.9967,-2.9779,-3.0018,-2.9541,-2.9214,-2.9428,-2.9942,-3.0206,-2.9993,-3.0495,-3.0771,-3.057,-3.0733,-3.1229,-3.215,-3.3131,-3.4644,-3.6647,-3.7341,-3.7719,-3.7719,-3.73,-3.6985,-3.6776,-3.6387,-3.5953,-3.5504,-3.5504,-3.5504,-3.5504,-3.5504,-3.5504,-3.5424,-3.4461,-3.3681,-3.2987,-3.1985,-3.0966,-3.0099,-3.0445,-3.0528,-3.0337,-3.0241,-3.0294,-3.0449,-4.325,-4.325,-4.3329,-4.325,-4.325,-4.3329,-4.3329,-4.3329,-4.3329,-4.3329,-4.3329,-4.3329,-4.3329,-4.3329,-4.3075,-4.2417,-4.2357,-4.2073,-4.1414,-4.0756,-4.0113,-3.9454,-3.9424,-3.8796,-3.7434,-3.7404,-3.6325,-3.4027,-3.3031,-3.182,-3.0362,-2.9361,-2.8348,-2.7293,-2.7293,-2.6979,-2.6533,-2.6533,-2.6533,-2.6533,-2.6533,-2.6533,-2.6533,-2.6533,-2.6804,-2.7369,-2.7908,-2.8461,-2.9026,-2.9603,-2.9792,-2.9792,-2.9792,-2.9792,-2.9792,-2.9792,-2.9792,-2.9804,-2.9804,-3.0206,-3.0482,-2.993,-2.9804,-2.9804,-2.9804,-2.9804,-2.9955,-3.0507,-3.062,-3.0771,-3.1298,-3.1386,-3.1223,-3.0708,-3.1047,-3.121,-3.0696,-3.1072,-3.1599,-3.2139,-3.1725,-3.1612,-3.2152,-3.1712,-3.1625,-3.2164,-3.418,-3.6269,-3.8322,-3.8392,-3.8407,-3.8407,-3.8392,-3.8078,-3.7419,-3.6148,-3.5519,-3.5519,-3.5504,-3.5504,-3.5519,-3.5519,-3.5504,-3.5424,-3.4409,-3.3628,-3.3001,-3.1999,-3.1213,-3.0609,-3.0609,-3.0063,-2.946,-2.9968,-2.9632,-2.9013,-4.229,-4.2725,-4.3076,-4.229,-4.2805,-4.3329,-4.3329,-4.3329,-4.3329,-4.3329,-4.3329,-4.3329,-4.3329,-4.3329,-4.3075,-4.2417,-4.1938,-4.119,-4.0083,-4.0247,-4.0113,-3.9454,-3.9424,-3.8796,-3.7434,-3.7404,-3.6626,-3.5052,-3.3394,-3.2148,-3.1375,-2.9693,-2.8549,-2.7858,-2.7858,-2.7557,-2.703,-2.703,-2.6816,-2.6533,-2.6533,-2.6533,-2.6571,-2.6892,-2.7381,-2.7934,-2.8486,-2.9051,-2.9566,-2.9729,-2.9792,-2.9792,-2.9792,-2.9792,-2.9792,-2.9792,-3.0068,-3.0369,-3.0369,-3.0758,-3.0934,-3.0018,-3.0357,-3.0821,-3.0457,-3.0369,-3.052,-3.1047,-3.0871,-3.0771,-3.1298,-3.1386,-3.1336,-3.1185,-3.1286,-3.1336,-3.1185,-3.1625,-3.1888,-3.1662,-3.1838,-3.1888,-3.165,-3.2525,-3.3112,-3.3281,-3.565,-3.7315,-3.7928,-3.872,-3.911,-3.911,-3.8197,-3.7823,-3.8093,-3.6836,-3.6193,-3.6193,-3.5729,-3.5744,-3.6193,-3.6193,-3.5938,-3.5484,-3.4611,-3.3716,-3.2667,-3.1391,-3.0325,-2.9486,-2.9899,-2.9599,-2.9096,-2.9668,-2.9745,-2.9566,-4.2371,-4.282,-4.3076,-4.2371,-4.282,-4.3329,-4.3329,-4.3329,-4.3329,-4.3329,-4.3329,-4.3329,-4.3329,-4.3329,-4.3075,-4.2417,-4.1758,-4.0755,-3.9239,-3.9936,-3.9935,-3.8811,-3.9177,-3.8916,-3.7823,-3.7539,-3.6677,-3.5288,-3.3521,-3.2272,-3.149,-2.9967,-2.885,-2.8109,-2.8109,-2.767,-2.6954,-2.6954,-2.6766,-2.6533,-2.6533,-2.6659,-2.6816,-2.7155,-2.7758,-2.8473,-2.88,-2.9302,-2.9792,-2.9792,-2.9792,-2.9792,-2.9792,-2.9792,-2.9792,-2.9792,-3.0181,-3.062,-3.062,-3.1148,-3.1512,-3.0645,-3.0909,-3.1311,-3.0997,-3.0922,-3.1072,-3.1612,-3.1474,-3.1411,-3.1951,-3.2051,-3.2051,-3.2051,-3.2051,-3.2051,-3.2051,-3.234,-3.2441,-3.2102,-3.2353,-3.2428,-3.2089,-3.2982,-3.3878,-3.4727,-3.5874,-3.6958,-3.7753,-3.8383,-3.8782,-3.8782,-3.8136,-3.7988,-3.8392,-3.736,-3.6731,-3.6492,-3.6327,-3.6342,-3.6492,-3.6746,-3.6424,-3.5595,-3.4775,-3.3628,-3.2266,-3.1125,-3.0093,-2.9302,-2.9654,-2.9578,-2.9315,-2.9666,-2.993,-3.0093,-4.3155,-4.325,-4.325,-4.3155,-4.325,-4.3329,-4.3329,-4.3329,-4.3329,-4.3329,-4.3329,-4.3329,-4.3329,-4.3329,-4.309,-4.2506,-4.1848,-4.0781,-3.9141,-3.986,-3.9728,-3.8095,-3.89,-3.9125,-3.8497,-3.7778,-3.6635,-3.5033,-3.3395,-3.2105,-3.118,-3.0203,-2.9252,-2.826,-2.821,-2.7595,-2.6672,-2.6622,-2.6571,-2.6533,-2.6533,-2.6766,-2.7218,-2.7318,-2.7984,-2.8875,-2.8976,-2.934,-2.9792,-2.9792,-2.9792,-2.9804,-2.9854,-2.9867,-2.988,-2.9917,-3.0319,-3.0758,-3.0758,-3.1512,-3.2164,-3.1662,-3.1537,-3.1524,-3.1474,-3.1461,-3.1625,-3.2177,-3.2252,-3.239,-3.2968,-3.3081,-3.3081,-3.3081,-3.3081,-3.3081,-3.3081,-3.3081,-3.3081,-3.3081,-3.3081,-3.3081,-3.3081,-3.3081,-3.394,-3.5894,-3.521,-3.5534,-3.751,-3.7753,-3.7829,-3.7919,-3.8278,-3.8422,-3.8482,-3.7823,-3.721,-3.6671,-3.7165,-3.715,-3.6671,-3.7157,-3.681,-3.5798,-3.4841,-3.349,-3.1898,-3.108,-3.0382,-2.9792,-2.9842,-2.9829,-2.9804,-2.9842,-3.0181,-3.0557,-4.2111,-4.2725,-4.2996,-4.2111,-4.2725,-4.3329,-4.3329,-4.3329,-4.3329,-4.3329,-4.3329,-4.3329,-4.3329,-4.3329,-4.3284,-4.3135,-4.2521,-4.1786,-4.0887,-4.0592,-4.0248,-3.9862,-3.9533,-3.9349,-3.92,-3.8018,-3.6635,-3.5033,-3.3395,-3.2105,-3.118,-3.0203,-2.9666,-2.9402,-2.895,-2.8373,-2.772,-2.7293,-2.6854,-2.6533,-2.6533,-2.6596,-2.6798,-2.7595,-2.8072,-2.8398,-2.9289,-2.9691,-2.9792,-2.9792,-2.9792,-2.9867,-3.0306,-3.0432,-3.052,-3.0922,-3.1436,-3.1863,-3.1863,-3.2365,-3.2867,-3.2742,-3.2717,-3.2591,-3.2139,-3.2039,-3.219,-3.2767,-3.2528,-3.239,-3.2968,-3.3081,-3.3081,-3.3081,-3.3081,-3.3081,-3.3081,-3.3081,-3.3081,-3.3081,-3.3081,-3.3081,-3.3081,-3.3081,-3.3641,-3.4897,-3.4815,-3.521,-3.6448,-3.7343,-3.8234,-3.9017,-3.8594,-3.8646,-3.9185,-3.8512,-3.8108,-3.7973,-3.7599,-3.7614,-3.7973,-3.7271,-3.6534,-3.5856,-3.4971,-3.3661,-3.1964,-3.1881,-3.1047,-2.9829,-3.0269,-3.0168,-2.9842,-3.0281,-3.052,-3.0658,-4.2548,-4.29,-4.3076,-4.2548,-4.29,-4.3329,-4.3329,-4.3329,-4.3329,-4.3329,-4.3329,-4.3329,-4.3329,-4.3329,-4.3329,-4.3329,-4.3015,-4.2551,-4.1893,-4.1235,-4.0726,-4.0412,-3.9768,-3.9424,-3.9424,-3.8407,-3.7094,-3.548,-3.383,-3.245,-3.118,-3.0203,-2.9641,-2.9365,-2.9063,-2.8624,-2.8072,-2.7519,-2.7268,-2.7218,-2.6954,-2.7168,-2.7708,-2.8285,-2.8674,-2.8988,-2.9578,-2.9792,-2.9792,-2.9792,-2.9792,-2.9842,-3.0131,-3.0407,-3.067,-3.0947,-3.1587,-3.2215,-3.2215,-3.2641,-3.3081,-3.3081,-3.3081,-3.3006,-3.2692,-3.2629,-3.2717,-3.3018,-3.283,-3.2717,-3.3018,-3.3081,-3.3081,-3.3081,-3.3081,-3.3081,-3.3081,-3.3081,-3.3081,-3.3081,-3.3081,-3.3081,-3.3081,-3.3081,-3.3556,-3.4581,-3.4664,-3.5129,-3.6132,-3.719,-3.8069,-3.862,-3.8763,-3.905,-3.9424,-3.9065,-3.8641,-3.8091,-3.8299,-3.8065,-3.7621,-3.7403,-3.6524,-3.5264,-3.4875,-3.3747,-3.2076,-3.2212,-3.1549,-3.0583,-3.0871,-3.0809,-3.0595,-3.0884,-3.0984,-3.106,-4.3329,-4.3329,-4.3329,-4.3329,-4.3329,-4.3329,-4.3329,-4.3329,-4.3329,-4.3329,-4.3329,-4.3329,-4.3329,-4.3329,-4.3329,-4.3329,-4.3329,-4.3105,-4.2566,-4.1908,-4.1309,-4.0756,-3.9993,-3.9589,-3.9589,-3.8916,-3.7775,-3.6144,-3.4693,-3.3175,-3.1483,-3.0611,-2.982,-2.9202,-2.9013,-2.8749,-2.8417,-2.7629,-2.7738,-2.8265,-2.7578,-2.7883,-2.88,-2.89,-2.9227,-2.9654,-2.9754,-2.9792,-2.9792,-2.9792,-2.9792,-2.9829,-3.0018,-3.0382,-3.0783,-3.0984,-3.1662,-3.2353,-3.2353,-3.2717,-3.3081,-3.3081,-3.3081,-3.3081,-3.3081,-3.3081,-3.3081,-3.3081,-3.3081,-3.3081,-3.3081,-3.3081,-3.3081,-3.3081,-3.3081,-3.3081,-3.3081,-3.3081,-3.3081,-3.3081,-3.3081,-3.3081,-3.3081,-3.3081,-3.3556,-3.4581,-3.4511,-3.5061,-3.6369,-3.7175,-3.7663,-3.8069,-3.8943,-3.9424,-3.9424,-3.9424,-3.887,-3.7829,-3.8708,-3.8253,-3.671,-3.7116,-3.6332,-3.4664,-3.4511,-3.3617,-3.2227,-3.2315,-3.1976,-3.1399,-3.1499,-3.1474,-3.1399,-3.1499,-3.1587,-3.1738,-4.3329,-4.3329,-4.3329,-4.3329,-4.3329,-4.3329,-4.3329,-4.3329,-4.3329,-4.3329,-4.3329,-4.3329,-4.3329,-4.3329,-4.3329,-4.3329,-4.3329,-4.3299,-4.321,-4.2581,-4.2192,-4.2102,-4.092,-4.0262,-4.0262,-3.9619,-3.8485,-3.6836,-3.6101,-3.4696,-3.2762,-3.2119,-3.1345,-3.0344,-2.9365,-2.931,-2.9961,-2.8066,-2.8068,-2.9201,-2.7837,-2.7657,-2.8273,-2.875,-2.8976,-2.9114,-2.9616,-2.9792,-2.9792,-2.9792,-2.9792,-2.9955,-3.0884,-3.1223,-3.1486,-3.2453,-3.2842,-3.2955,-3.2955,-3.3018,-3.3081,-3.3081,-3.3081,-3.3081,-3.3081,-3.3081,-3.3081,-3.3081,-3.3081,-3.3081,-3.3081,-3.3081,-3.3081,-3.3081,-3.3081,-3.3081,-3.3081,-3.3081,-3.3081,-3.3081,-3.3081,-3.3081,-3.3081,-3.3081,-3.3556,-3.4581,-3.3882,-3.4594,-3.7434,-3.6852,-3.7252,-3.9104,-3.9337,-3.9424,-3.9424,-3.9424,-3.887,-3.7829,-3.7919,-3.7377,-3.6244,-3.548,-3.4979,-3.4664,-3.3713,-3.2912,-3.2252,-3.2754,-3.234,-3.1436,-3.1913,-3.1813,-3.1449,-3.1926,-3.2416,-3.2855,-4.3329,-4.3329,-4.3329,-4.3329,-4.3329,-4.3329,-4.3329,-4.3329,-4.3329,-4.3329,-4.3329,-4.3329,-4.3329,-4.3329,-4.3329,-4.3329,-4.3,-4.294,-4.3314,-4.2028,-4.1429,-4.1803,-4.0561,-3.9843,-3.9843,-3.9574,-3.9043,-3.8354,-3.7157,-3.5894,-3.4641,-3.3014,-3.1937,-3.1461,-3.0062,-2.9909,-3.0745,-2.9171,-2.9256,-3.0336,-2.9041,-2.8673,-2.9076,-2.9315,-2.9415,-2.949,-3.0055,-3.0055,-2.9842,-3.0143,-3.0043,-2.993,-3.0708,-3.116,-3.1549,-3.2353,-3.283,-3.3081,-3.3081,-3.3081,-3.3081,-3.3081,-3.3081,-3.3081,-3.3081,-3.3081,-3.3081,-3.3081,-3.3081,-3.3081,-3.3081,-3.3332,-3.3533,-3.3533,-3.3796,-3.3884,-3.3583,-3.3533,-3.3533,-3.3533,-3.3809,-3.3872,-3.3571,-3.3533,-3.39,-3.4607,-3.4802,-3.5682,-3.7677,-3.7904,-3.8442,-3.9337,-3.9424,-3.9424,-3.9424,-3.8782,-3.7979,-3.693,-3.6318,-3.5842,-3.5359,-3.4897,-3.4345,-3.3797,-3.3313,-3.293,-3.2717,-3.2968,-3.278,-3.2353,-3.2604,-3.2554,-3.2365,-3.2604,-3.2855,-3.3081]},{"header":{"parameterUnit":"m.s-1","parameterCategory":1,"la1":30.6,"la2":28.766,"lo1":-90.7593,"lo2":-88.6598,"dy":0.0162,"dx":0.0183,"nx":116,"ny":114,"refTime":"2023-06-17T00:00:00:Z","depth":0,"parameterNumber":3,"parameterNumberName":"V-component_of_WINDS"},"data":[0.0,0.0,0.0,0.0,0.0,0.0,0.0,0.0,0.0,0.0,0.0,0.0,0.0,0.0,0.0,0.0,0.0,0.0,0.0,0.0,0.0,0.0,0.0,0.0,0.0,0.0,0.0,0.0,0.0,0.0,0.0,0.0,0.0,0.0,0.0,0.0,0.0,0.0,0.0,0.0,0.0,0.0,0.0,0.0,0.0,0.0,0.0,0.0,0.0,0.0,0.0,0.0,0.0,0.0,0.0,0.0,0.0,0.0,0.0,0.0,0.0,0.0,0.0,0.0,0.0,0.0,0.0,0.0,0.0,0.0,0.0,0.0,0.0,0.0,0.0,0.0,0.0,0.0,0.0,0.0,0.0,0.0,0.0,0.0,0.0,0.0,0.0,0.0,0.0,0.0,0.0,0.0,0.0,0.0,0.0,0.0,0.0,0.0,0.0,0.0,0.0,0.0,0.0,0.0,0.0,0.0,0.0,0.0,0.0,0.0,0.0,0.0,0.0,0.0,0.0,0.0,0.0,0.0,0.0,0.0,0.0,0.0,0.0,0.0,0.0,0.0,0.0,0.0,0.0,0.0,0.0,0.0,0.0,0.0,0.0,0.0,0.0,0.0,0.0,0.0,0.0,0.0,0.0,0.0,0.0,0.0,0.0,0.0,0.0,0.0,0.0,0.0,0.0,0.0,0.0,0.0,0.0,0.0,0.0,0.0,0.0,0.0,0.0,0.0,0.0,0.0,0.0,0.0,0.0,0.0,0.0,0.0,0.0,0.0,0.0,0.0,0.0,0.0,0.0,0.0,0.0,0.0,0.0,0.0,0.0,0.0,0.0,0.0,0.0,0.0,0.0,0.0,0.0,0.0,0.0,0.0,0.0,0.0,0.0,0.0,0.0,0.0,0.0,0.0,0.0,0.0,0.0,0.0,0.0,0.0,0.0,0.0,0.0,0.0,0.0,0.0,0.0,0.0,0.0,0.0,0.0,0.0,0.0,0.0,0.0,0.0,0.0,0.0,0.0,0.0,0.0,0.0,0.0,0.0,0.0,0.0,0.0,0.0,0.0,0.0,0.0,0.0,0.0,0.0,0.0,0.0,0.0,0.0,0.0,0.0,0.0,0.0,0.0,0.0,0.0,0.0,0.0,0.0,0.0,0.0,0.0,0.0,0.0,0.0,0.0,0.0,0.0,0.0,0.0,0.0,0.0,0.0,0.0,0.0,0.0,0.0,0.0,0.0,0.0,0.0,0.0,0.0,0.0,0.0,0.0,0.0,0.0,0.0,0.0,0.0,0.0,0.0,0.0,0.0,0.0,0.0,0.0,0.0,0.0,0.0,0.0,0.0,0.0,0.0,0.0,0.0,0.0,0.0,0.0,0.0,0.0,0.0,0.0,0.0,0.0,0.0,0.0,0.0,0.0,0.0,0.0,0.0,0.0,0.0,0.0,0.0,0.0,0.0,0.0,0.0,0.0,0.0,0.0,0.0,0.0,0.0,0.0,0.0,0.0,0.0,0.0,0.0,0.0,0.0,0.0,0.0,0.0,0.0,0.0,0.0,0.0,0.0,0.0,0.0,0.0,0.0,0.0,0.0,0.0,0.0,0.0,0.0,0.0,0.0,0.0,0.0,0.0,0.0,0.0,0.0,0.0,0.0,0.0,0.0,0.0,0.0,0.0,0.0,0.0,0.0,0.0,0.0,0.0,0.0,0.0,0.0,0.0,0.0,0.0,0.0,0.0,0.0,0.0,0.0,0.0,0.0,0.0,0.0,0.0,0.0,0.0,0.0,0.0,0.0,0.0,0.0,0.0,0.0,0.0,0.0,0.0,0.0,0.0,0.0,0.0,0.0,0.0,0.0,0.0,0.0,0.0,0.0,0.0,0.0,0.0,0.0,0.0,0.0,0.0,0.0,0.0,0.0,0.0,0.0,0.0,0.0,0.0,0.0,0.0,0.0,0.0,0.0,0.0,0.0,0.0,0.0,0.0,0.0,0.0,0.0,0.0,0.0,0.0,0.0,0.0,0.0,0.0,0.0,0.0,0.0,0.0,0.0,0.0,0.0,0.0,0.0,0.0,0.0,0.0,0.0,0.0,0.0,0.0,0.0,0.0,0.0,0.0,0.0,0.0,0.0,0.0,0.0,0.0,0.0,0.0,0.0,0.0,0.0,0.0,0.0,0.0,0.0,0.0,0.0,0.0,0.0,0.0,0.0,0.0,0.0,0.0,0.0,0.0,0.0,0.0,0.0,0.0,0.0,0.0,0.0,0.0,0.0,0.0,0.0,0.0,0.0,0.0,0.0,0.0,0.0,0.0,0.0,0.0,0.0,0.0,0.0,0.0,0.0,0.0,0.0,0.0,0.0,0.0,0.0,0.0,0.0,0.0,0.0,0.0,0.0,0.0,0.0,0.0,0.0,0.0,0.0,0.0,0.0,0.0,0.0,0.0,0.0,0.0,0.0,0.0,0.0,0.0,0.0,0.0,0.0,0.0,0.0,0.0,0.0,0.0,0.0,0.0,0.0,0.0,0.0,0.0,0.0,0.0,0.0,0.0,0.0,0.0,0.0,0.0,0.0,0.0,0.0,0.0,0.0,0.0,0.0,0.0,0.0,0.0,0.0,0.0,0.0,0.0,0.0,0.0,0.0,0.0,0.0,0.0,0.0,0.0,0.0,0.0,0.0,0.0,0.0,0.0,0.0,0.0,0.0,0.0,0.0,0.0,0.0,0.0,0.0,0.0,0.0,0.0,0.0,0.0,0.0,0.0,0.0,0.0,0.0,0.0,0.0,0.0,0.0,0.0,0.0,0.0,0.0,0.0,0.0,0.0,0.0,0.0,0.0,0.0,0.0,0.0,0.0,0.0,0.0,0.0,0.0,0.0,0.0,0.0,0.0,0.0,0.0,0.0,0.0,0.0,0.0,0.0,0.0,0.0,0.0,0.0,0.0,0.0,0.0,0.0,0.0,0.0,0.0,0.0,0.0,0.0,0.0,0.0,0.0,0.0,0.0,0.0,0.0,0.0,0.0,0.0,0.0,0.0,0.0,0.0,0.0,0.0,0.0,0.0,0.0,0.0,0.0,0.0,0.0,0.0,0.0,0.0,0.0,0.0,0.0,0.0,0.0,0.0,0.0,0.0,0.0,0.0,0.0,0.0,0.0,0.0,0.0,0.0,0.0,0.0,0.0,0.0,0.0,0.0,0.0,0.0,0.0,0.0,0.0,0.0,0.0,0.0,0.0,0.0,0.0,0.0,0.0,0.0,0.0,0.0,0.0,0.0,0.0,0.0,0.0,0.0,0.0,0.0,0.0,0.0,0.0,0.0,0.0,0.0,0.0,0.0,0.0,0.0,0.0,0.0,0.0,0.0,0.0,0.0,0.0,0.0,0.0,0.0,0.0,0.0,0.0,0.0,0.0,0.0,0.0,0.0,0.0,0.0,0.0,0.0,0.0,0.0,0.0,0.0,0.0,0.0,0.0,0.0,0.0,0.0,0.0,0.0,0.0,0.0,0.0,0.0,0.0,0.0,0.0,0.0,0.0,0.0,0.0,0.0,0.0,0.0,0.0,0.0,0.0,0.0,0.0,0.0,0.0,0.0,0.0,0.0,0.0,0.0,0.0,0.0,0.0,0.0,0.0,0.0,0.0,0.0,0.0,0.0,0.0,0.0,0.0,0.0,0.0,0.0,0.0,0.0,0.0,0.0,0.0,0.0,0.0,0.0,0.0,0.0,0.0,0.0,0.0,0.0,0.0,0.0,0.0,0.0,0.0,0.0,0.0,0.0,0.0,0.0,0.0,0.0,0.0,0.0,0.0,0.0,0.0,0.0,0.0,0.0,0.0,0.0,0.0,0.0,0.0,0.0,0.0,0.0,0.0,0.0,0.0,0.0,0.0,0.0,0.0,0.0,0.0,0.0,0.0,0.0,0.0,0.0,0.0,0.0,0.0,0.0,0.0,0.0,0.0,0.0,0.0,0.0,0.0,0.0,0.0,0.0,0.0,0.0,0.0,0.0,0.0,0.0,0.0,0.0,0.0,0.0,0.0,0.0,0.0,0.0,0.0,0.0,0.0,0.0,0.0,0.0,0.0,0.0,0.0,0.0,0.0,0.0,0.0,0.0,0.0,0.0,0.0,0.0,0.0,0.0,0.0,0.0,0.0,0.0,0.0,0.0,0.0,0.0,0.0,0.0,0.0,0.0,0.0,0.0,0.0,0.0,0.0,0.0,0.0,0.0,0.0,0.0,0.0,0.0,0.0,0.0,0.0,0.0,0.0,0.0,0.0,0.0,0.0,0.0,0.0,0.0,0.0,0.0,0.0,0.0,0.0,0.0,0.0,0.0,0.0,0.0,0.0,0.0,0.0,0.0,0.0,0.0,0.0,0.0,0.0,0.0,0.0,0.0,0.0,0.0,0.0,0.0,0.0,0.0,0.0,0.0,0.0,0.0,0.0,0.0,0.0,0.0,0.0,0.0,0.0,0.0,0.0,0.0,0.0,0.0,0.0,0.0,0.0,0.0,0.0,0.0,0.0,0.0,0.0,0.0,0.0,0.0,0.0,0.0,0.0,0.0,0.0,0.0,0.0,0.0,0.0,0.0,0.0,0.0,0.0,0.0,0.0,0.0,0.0,0.0,0.0,0.0,0.0,0.0,0.0,0.0,0.0,0.0,0.0,0.0,0.0,0.0,0.0,0.0,0.0,0.0,0.0,0.0,0.0,0.0,0.0,0.0,0.0,0.0,0.0,0.0,0.0,0.0,0.0,0.0,0.0,0.0,0.0,0.0,0.0,0.0,0.0,0.0,0.0,0.0,0.0,0.0,0.0,0.0,0.0,0.0,0.0,0.0,0.0,0.0,0.0,0.0,0.0,0.0,0.0,0.0,0.0,0.0,0.0,0.0,0.0,0.0,0.0,0.0,0.0,0.0,0.0,0.0,0.0,0.0,0.0,0.0,0.0,0.0,0.0,0.0,0.0,0.0,0.0,0.0,0.0,0.0,0.0,0.0,0.0,0.0,0.0,0.0,0.0,0.0,0.0,0.0,0.0,0.0,0.0,0.0,0.0,0.0,0.0,0.0,0.0,0.0,0.0,0.0,0.0,0.0,0.0,0.0,0.0,0.0,0.0,0.0,0.0,0.0,0.0,0.0,0.0,0.0,0.0,0.0,0.0,0.0,0.0,0.0,0.0,0.0,0.0,0.0,0.0,0.0,0.0,0.0,0.0,0.0,0.0,0.0,0.0,0.0,0.0,0.0,0.0,0.0,0.0,0.0,0.0,0.0,0.0,0.0,0.0,0.0,0.0,0.0,0.0,0.0,0.0,0.0,0.0,0.0,0.0,0.0,0.0,0.0,0.0,0.0,0.0,0.0,0.0,0.0,0.0,0.0,0.0,0.0,0.0,0.0,0.0,0.0,0.0,0.0,0.0,0.0,0.0,0.0,0.0,0.0,0.0,0.0,0.0,0.0,0.0,0.0,0.0,0.0,0.0,0.0,0.0,0.0,0.0,0.0,0.0,0.0,0.0,0.0,0.0,0.0,0.0,0.0,0.0,0.0,0.0,0.0,0.0,0.0,0.0,0.0,0.0,0.0,0.0,0.0,0.0,0.0,0.0,0.0,0.0,0.0,0.0,0.0,0.0,0.0,0.0,0.0,0.0,0.0,0.0,0.0,0.0,0.0,0.0,0.0,0.0,0.0,0.0,0.0,0.0,0.0,0.0,0.0,0.0,0.0,0.0,0.0,0.0,0.0,0.0,0.0,0.0,0.0,0.0,0.0,0.0,0.0,0.0,0.0,0.0,0.0,0.0,0.0,0.0,0.0,0.0,0.0,0.0,0.0,0.0,0.0,0.0,0.0,0.0,0.0,0.0,0.0,0.0,0.0,0.0,0.0,0.0,0.0,0.0,0.0,0.0,0.0,0.0,0.0,0.0,0.0,0.0,0.0,0.0,0.0,0.0,0.0,0.0,0.0,0.0,0.0,0.0,0.0,0.0,0.0,0.0,0.0,0.0,0.0,0.0,0.0,0.0,0.0,0.0,0.0,0.0,0.0,0.0,0.0,0.0,0.0,0.0,0.0,0.0,0.0,0.0,0.0,0.0,0.0,0.0,0.0,0.0,-1.4593,-1.4386,0.0,0.0,0.0,0.0,0.0,0.0,0.0,0.0,0.0,0.0,0.0,0.0,0.0,0.0,0.0,0.0,0.0,0.0,0.0,0.0,0.0,0.0,0.0,0.0,0.0,0.0,0.0,0.0,0.0,0.0,0.0,0.0,0.0,0.0,0.0,0.0,0.0,0.0,0.0,0.0,0.0,0.0,0.0,0.0,0.0,0.0,0.0,0.0,0.0,0.0,0.0,0.0,0.0,0.0,0.0,0.0,0.0,0.0,0.0,0.0,0.0,0.0,0.0,0.0,0.0,0.0,0.0,0.0,0.0,0.0,0.0,0.0,0.0,0.0,0.0,0.0,0.0,0.0,0.0,0.0,0.0,0.0,0.0,0.0,0.0,0.0,0.0,0.0,0.0,0.0,0.0,0.0,0.0,0.0,0.0,0.0,0.0,0.0,0.0,0.0,0.0,0.0,0.0,0.0,0.0,0.0,0.0,0.0,0.0,0.0,0.0,0.0,0.0,0.0,-1.6409,-1.6046,0.0,0.0,0.0,0.0,0.0,0.0,0.0,0.0,0.0,0.0,0.0,0.0,0.0,0.0,0.0,0.0,0.0,0.0,0.0,0.0,0.0,0.0,0.0,0.0,0.0,0.0,0.0,0.0,0.0,0.0,0.0,0.0,0.0,0.0,0.0,0.0,0.0,0.0,0.0,0.0,0.0,0.0,0.0,0.0,0.0,0.0,0.0,0.0,0.0,0.0,0.0,0.0,0.0,0.0,0.0,0.0,0.0,0.0,0.0,0.0,0.0,0.0,0.0,0.0,0.0,0.0,0.0,0.0,0.0,0.0,0.0,0.0,0.0,0.0,0.0,0.0,0.0,0.0,0.0,0.0,0.0,0.0,0.0,0.0,0.0,0.0,0.0,0.0,0.0,0.0,0.0,0.0,0.0,0.0,0.0,0.0,0.0,0.0,0.0,0.0,0.0,0.0,0.0,0.0,0.0,0.0,0.0,0.0,-1.7887,-1.8084,-1.8708,-1.8639,-1.883,-1.9102,-1.7965,-1.7505,-1.7557,-1.7517,0.0,0.0,0.0,0.0,0.0,0.0,0.0,0.0,0.0,0.0,0.0,0.0,0.0,0.0,0.0,0.0,0.0,0.0,0.0,0.0,0.0,0.0,0.0,0.0,0.0,0.0,0.0,0.0,0.0,0.0,0.0,0.0,0.0,0.0,0.0,0.0,0.0,0.0,-2.1066,-2.1619,-2.1775,-2.1569,0.0,0.0,0.0,0.0,0.0,0.0,0.0,0.0,0.0,0.0,0.0,0.0,0.0,0.0,0.0,0.0,0.0,0.0,0.0,0.0,0.0,0.0,0.0,0.0,0.0,0.0,0.0,0.0,0.0,0.0,0.0,0.0,0.0,0.0,0.0,0.0,0.0,0.0,0.0,0.0,0.0,0.0,0.0,0.0,-0.713,-0.8982,0.0,0.0,0.0,0.0,0.0,0.0,0.0,0.0,0.0,0.0,0.0,0.0,0.0,-1.6807,-1.8478,-1.7942,-1.7974,-1.8536,-1.8058,-1.7942,-1.8019,-1.8449,-1.9171,-2.0014,-1.8427,0.0,-1.7846,-1.7952,0.0,0.0,0.0,0.0,0.0,0.0,0.0,0.0,0.0,0.0,0.0,0.0,0.0,0.0,0.0,0.0,0.0,0.0,0.0,0.0,0.0,0.0,0.0,0.0,0.0,0.0,0.0,0.0,0.0,0.0,0.0,0.0,0.0,0.0,0.0,0.0,-2.0288,-2.1405,-2.2422,-2.2661,-2.2949,-2.3188,-2.1581,-2.0928,-2.0978,-2.0263,0.0,0.0,0.0,0.0,0.0,0.0,0.0,0.0,0.0,0.0,0.0,0.0,0.0,0.0,0.0,0.0,0.0,0.0,0.0,0.0,0.0,0.0,0.0,0.0,0.0,0.0,0.0,0.0,0.0,0.0,0.0,0.0,0.0,0.0,0.0,0.0,0.0,0.0,0.0,-0.5012,-0.6607,-0.8456,-0.9151,-0.9834,0.0,0.0,0.0,0.0,0.0,0.0,0.0,0.0,0.0,-1.5735,-1.6374,-1.7143,-1.8162,-1.8471,-1.8658,-1.8599,-1.8216,-1.8092,-1.8284,-1.8035,-1.8076,-1.8367,-1.7586,-1.6138,-1.4383,-1.6055,-1.618,-1.5236,0.0,0.0,0.0,0.0,-1.5479,-1.4484,0.0,0.0,0.0,0.0,0.0,0.0,0.0,0.0,0.0,0.0,0.0,0.0,0.0,0.0,0.0,-1.9597,0.0,0.0,0.0,0.0,0.0,0.0,0.0,0.0,0.0,0.0,0.0,0.0,0.0,-2.3226,-2.3778,-2.4054,-2.4356,-2.4582,-2.359,-2.2548,-2.1481,-2.0957,-2.0275,0.0,0.0,0.0,0.0,0.0,0.0,0.0,0.0,0.0,0.0,0.0,0.0,0.0,0.0,0.0,0.0,0.0,0.0,0.0,0.0,0.0,0.0,0.0,0.0,0.0,0.0,0.0,0.0,0.0,0.0,0.0,0.0,0.0,0.0,0.0,0.0,0.0,0.0,-0.3724,-0.4867,-0.6923,-0.8019,-0.9059,0.0,0.0,0.0,0.0,0.0,0.0,-1.6084,-1.5096,-1.5128,-1.6484,-1.6619,-1.6961,-1.7392,-1.7936,-1.778,-1.6904,-1.658,-1.6374,-1.6304,-1.5775,-1.5218,-1.4759,-1.4463,-1.2553,-0.9938,-1.3142,-1.4122,-1.3632,-1.385,-1.4371,-1.505,-1.5458,-1.4935,-1.3928,0.0,0.0,0.0,0.0,0.0,0.0,0.0,0.0,0.0,0.0,0.0,0.0,0.0,0.0,-2.0162,-2.1267,-2.0941,-2.068,0.0,0.0,0.0,0.0,0.0,0.0,0.0,0.0,0.0,0.0,0.0,0.0,0.0,-2.6578,-2.6804,-2.6382,-2.5699,-2.4833,-2.369,-2.1568,-2.0941,-2.128,0.0,0.0,0.0,0.0,0.0,0.0,0.0,0.0,0.0,0.0,0.0,0.0,0.0,0.0,0.0,0.0,0.0,0.0,0.0,0.0,0.0,0.0,0.0,0.0,0.0,0.0,0.0,0.0,0.0,0.0,0.0,0.0,0.0,0.0,0.0,0.0,0.0,0.0,0.0,-0.3714,-0.6083,0.0,0.0,0.0,0.0,-1.4792,-1.5497,-1.6377,-1.7472,-1.6336,-1.6257,-1.761,-1.6515,-1.6237,-1.6899,-1.5688,-1.4169,-1.2437,-1.1945,-1.1123,-1.0034,-1.0496,-1.003,-0.8861,-0.7835,-0.6482,-0.5224,-0.9352,-1.0337,-0.9281,-1.0282,-1.1382,-1.2531,-1.3987,-1.3944,-1.2919,0.0,0.0,0.0,0.0,0.0,0.0,0.0,0.0,0.0,0.0,0.0,0.0,0.0,-2.0539,-2.187,-2.3,-2.3251,-2.2887,-2.1794,0.0,0.0,0.0,0.0,0.0,0.0,0.0,0.0,0.0,0.0,0.0,0.0,0.0,0.0,0.0,-2.6929,-2.6276,-2.546,-2.3602,-2.2297,-2.1418,-2.0665,-2.0238,0.0,0.0,0.0,0.0,0.0,0.0,0.0,0.0,0.0,0.0,0.0,0.0,0.0,0.0,0.0,0.0,0.0,0.0,0.0,0.0,0.0,0.0,0.0,0.0,0.0,0.0,0.0,0.0,0.0,0.0,0.0,0.0,0.0,0.0,0.0,0.0,0.0,-0.3279,-0.5083,0.0,-0.9211,-1.0677,-1.2554,-1.5045,-1.5377,-1.6085,-1.7558,-1.6951,-1.6347,-1.5988,-1.4782,-1.4065,-1.3839,-1.2523,-1.1231,-0.9935,-0.9707,-0.9092,-0.7928,-0.7354,-0.6043,-0.4124,-0.2924,-0.0426,0.2685,0.1221,-0.1786,-0.5619,-0.6569,-0.7934,-0.9435,-1.0638,-1.0296,-0.889,0.0,0.0,0.0,0.0,0.0,0.0,0.0,0.0,0.0,0.0,0.0,-1.8694,-1.9949,-2.1581,-2.305,-2.418,-2.4255,-2.3627,-2.2133,0.0,0.0,0.0,0.0,0.0,0.0,0.0,0.0,0.0,0.0,0.0,0.0,0.0,0.0,0.0,0.0,0.0,-2.6942,-2.585,-2.4092,-2.1995,-2.1443,-2.1217,-2.1029,0.0,0.0,0.0,0.0,0.0,0.0,0.0,0.0,0.0,0.0,0.0,0.0,0.0,0.0,0.0,0.0,0.0,0.0,0.0,0.0,0.0,0.0,0.0,0.0,0.0,0.0,0.0,0.0,0.0,0.0,0.0,0.0,0.0,0.0,0.0998,0.015,-0.2386,-0.4254,-0.6599,-0.9916,-1.0952,-1.2709,-1.5586,-1.5955,-1.6393,-1.7204,-1.655,-1.5344,-1.3639,-1.2444,-1.1109,-0.98,-0.9011,-0.764,-0.5762,-0.5762,-0.4899,-0.3429,-0.2274,-0.0435,0.1819,0.3022,0.5917,0.9731,1.0275,0.7939,0.3674,0.0308,-0.2194,-0.4023,-0.4762,-0.4399,-0.3109,0.0,0.0,0.0,0.0,0.0,0.0,0.0,0.0,0.0,0.0,-1.7526,-1.8882,-2.0592,-2.2196,-2.3566,-2.4745,-2.3816,-2.2686,-2.1594,-1.9447,0.0,0.0,0.0,0.0,0.0,0.0,0.0,0.0,0.0,0.0,0.0,0.0,0.0,0.0,0.0,0.0,0.0,-2.8109,-2.6239,-2.3178,-2.2636,-2.2385,-2.2272,0.0,0.0,0.0,0.0,0.0,0.0,0.0,0.0,0.0,0.0,0.0,0.0,0.0,0.0,0.0,0.0,0.0,0.0,0.0,0.0,0.0,0.0,0.0,0.0,0.0,0.0,0.0,0.0,0.0,0.0,0.0,0.0,0.0,0.0073,0.1938,0.1891,-0.0756,-0.3575,-0.6735,-1.0348,-1.2792,-1.4794,-1.6448,-1.7406,-1.7447,-1.6243,-1.5103,-1.3248,-1.0637,-0.9424,-0.7667,-0.5237,-0.5147,-0.3372,0.0089,0.0089,0.1336,0.3657,0.4796,0.6614,0.8837,1.0113,1.2504,1.5629,1.7208,1.8389,1.8486,1.0659,0.612,0.3889,0.3943,0.3827,0.4567,0.0,0.0,0.0,0.0,0.0,0.0,0.0,0.0,0.0,0.0,-1.8179,-1.9999,-2.1681,-2.3351,-2.4632,-2.5322,-2.4393,-2.3288,-2.2159,0.0,0.0,0.0,0.0,0.0,0.0,0.0,0.0,0.0,0.0,0.0,0.0,0.0,0.0,0.0,0.0,0.0,0.0,-2.8285,-2.7582,-2.659,-2.4833,-2.413,-2.3879,0.0,0.0,0.0,0.0,0.0,0.0,0.0,0.0,0.0,0.0,0.0,0.0,0.0,0.0,0.0,0.0,0.0,0.0,0.0,0.0,0.0,0.0,0.0,0.0,0.0,0.0,0.0,0.0,0.0,0.0,0.0,-1.3319,-0.9877,-0.3125,-0.0348,0.0747,-0.0292,-0.2764,-0.5457,-0.8384,-1.0976,-1.3512,-1.5866,-1.5964,-1.5497,-1.4513,-1.2774,-1.0199,-0.6879,-0.5586,-0.4258,-0.2739,-0.1918,-0.0544,0.1341,0.1341,0.2585,0.4884,0.6028,0.8261,1.1382,1.3214,1.6555,2.0812,2.2513,2.4574,2.5951,1.935,1.5773,1.4368,1.402,1.4953,1.6946,0.0,0.0,0.0,0.0,0.0,0.0,0.0,0.0,0.0,0.0,-1.8581,-2.0351,-2.1807,-2.3251,-2.4142,-2.4217,-2.3439,-2.2284,-2.0702,0.0,0.0,0.0,0.0,0.0,0.0,0.0,0.0,0.0,0.0,0.0,0.0,0.0,0.0,0.0,0.0,0.0,0.0,0.0,-2.8812,-2.8674,-2.7155,-2.6264,-2.5573,-2.3025,-2.241,-2.2677,-2.1129,-2.1027,-2.143,-2.0563,0.0,0.0,0.0,0.0,0.0,0.0,0.0,0.0,0.0,0.0,0.0,0.0,0.0,0.0,0.0,0.0,0.0,0.0,0.0,0.0,0.0,0.0,0.0,0.0,-1.8579,-1.5834,-1.0524,-0.5716,-0.2315,-0.1165,-0.2977,-0.5309,-0.7957,-0.9657,-1.1754,-1.4418,-1.4353,-1.3291,-1.1486,-1.0294,-0.7897,-0.4071,-0.3198,-0.23,-0.103,-0.0371,0.0643,0.1814,0.2335,0.374,0.6113,0.8285,1.107,1.4365,1.6525,2.019,2.4779,2.6796,2.922,3.1198,0.0,0.0,0.0,0.0,2.3599,2.5488,0.0,0.0,0.0,0.0,0.0,0.0,0.0,0.0,0.0,0.0,0.0,-2.015,-2.128,-2.2322,-2.2749,-2.2259,-2.1707,-2.0564,0.0,0.0,0.0,0.0,0.0,0.0,0.0,0.0,0.0,0.0,0.0,0.0,0.0,0.0,0.0,0.0,0.0,0.0,0.0,0.0,-2.9854,-2.9741,-2.9164,-2.8298,-2.7143,-2.4996,-2.4443,-2.4541,-2.2573,-2.1937,-2.1949,-2.1366,0.0,0.0,0.0,0.0,0.0,0.0,0.0,0.0,0.0,0.0,0.0,0.0,0.0,0.0,0.0,0.0,0.0,0.0,0.0,0.0,0.0,0.0,0.0,0.0,-2.4111,-2.2236,-1.9618,-1.3174,-0.7289,-0.2987,-0.3724,-0.5547,-0.7889,-0.8426,-0.9682,-1.2124,-1.2303,-1.1032,-0.8135,-0.7805,0.0,0.0,0.0,-0.1192,0.0,0.0,0.0648,0.2031,0.3246,0.5159,0.7895,1.0989,1.4338,1.7772,1.974,2.3279,2.7702,3.0018,3.2608,3.4909,3.2527,3.0976,3.005,2.9906,3.0485,3.1358,0.0,0.0,0.0,0.0,0.0,0.0,0.0,0.0,0.0,-1.7225,-1.843,-1.9597,-2.0756,-2.1418,-2.1757,-2.1656,-2.1142,-2.0639,0.0,0.0,0.0,0.0,0.0,0.0,0.0,0.0,0.0,0.0,0.0,0.0,0.0,0.0,0.0,0.0,0.0,0.0,0.0,0.0,-3.0193,-2.9741,-2.9164,-2.8536,-2.7745,-2.5963,-2.5096,-2.4605,-2.3281,-2.3393,-2.4064,-2.2997,-2.3257,-2.3878,-2.294,0.0,0.0,0.0,0.0,0.0,0.0,0.0,0.0,0.0,0.0,0.0,0.0,0.0,0.0,0.0,0.0,0.0,0.0,0.0,0.0,-2.7838,-2.8826,-2.8001,-2.3744,-2.1035,-1.5589,-0.5198,-0.4357,-0.4258,-0.357,-0.5662,-0.7743,-0.9483,-0.9466,-0.8728,-0.6987,-0.5642,-0.3594,-0.0528,-0.0416,-0.0306,0.0,0.0,0.1126,0.3224,0.4401,0.0,1.1854,1.3429,1.6599,2.0981,2.1756,2.4714,2.9182,3.1205,3.4609,3.8469,3.7562,3.7413,3.7563,3.6815,3.6663,3.6782,0.0,0.0,0.0,0.0,0.0,0.0,0.0,0.0,0.0,0.0,-1.8103,-1.8932,-1.9761,-2.01,-2.015,-1.9874,-1.9585,0.0,0.0,0.0,0.0,0.0,0.0,0.0,0.0,0.0,0.0,0.0,0.0,0.0,0.0,0.0,0.0,0.0,0.0,0.0,0.0,0.0,0.0,-2.9767,-2.9478,-2.8863,-2.7984,-2.6866,-2.6113,-2.5494,-2.446,-2.4408,-2.4749,-2.392,-2.4018,-2.4274,-2.3177,-2.2149,-2.1075,0.0,0.0,0.0,0.0,0.0,0.0,0.0,0.0,0.0,0.0,0.0,0.0,0.0,0.0,-2.4179,-2.6107,0.0,-2.9599,-3.1442,-3.1865,-3.0951,-2.8015,-2.4995,-1.9286,-0.8886,-0.6468,-0.4826,-0.2453,-0.289,-0.3883,-0.5431,-0.5496,-0.5146,-0.4392,-0.3605,-0.2172,-0.0108,0.0637,0.1041,0.1023,0.0985,0.1919,0.3796,0.4995,0.7843,1.2148,1.4563,1.8237,2.2715,2.347,2.608,3.0123,3.3187,3.6552,3.9863,3.9944,4.0083,4.023,4.003,3.9483,3.8804,0.0,0.0,0.0,0.0,0.0,0.0,0.0,0.0,0.0,0.0,0.0,-1.8216,-1.8656,-1.8706,-1.853,0.0,0.0,0.0,0.0,0.0,0.0,0.0,0.0,0.0,0.0,0.0,0.0,0.0,0.0,0.0,0.0,0.0,0.0,0.0,0.0,0.0,0.0,0.0,0.0,-2.9792,-2.9792,-2.9176,-2.821,-2.7657,-2.703,-2.6383,-2.5581,-2.5168,-2.4939,-2.4614,-2.4366,-2.415,-2.3382,-2.2811,-2.1927,-1.9293,-1.8584,0.0,0.0,0.0,0.0,0.0,0.0,0.0,0.0,0.0,-2.1521,-2.4032,-2.5438,-2.7118,-2.9917,-3.0972,-3.2139,-3.4361,-3.3839,-3.2699,-3.1132,-2.7497,-2.2079,-1.4036,-0.9595,-0.594,-0.2554,-0.0333,0.0223,-0.1222,-0.1331,-0.1556,-0.2121,-0.2458,-0.2112,-0.0879,0.0432,0.1273,0.1567,0.1908,0.2851,0.4422,0.5815,0.8413,1.2259,1.587,1.9898,2.4111,2.5428,2.7654,3.0735,3.4765,3.7711,3.9753,4.088,4.1203,4.1079,4.1286,4.0768,3.9905,0.0,0.0,0.0,0.0,0.0,0.0,0.0,0.0,0.0,0.0,0.0,0.0,0.0,0.0,0.0,0.0,0.0,0.0,0.0,0.0,0.0,0.0,0.0,0.0,0.0,0.0,0.0,0.0,0.0,0.0,0.0,0.0,0.0,0.0,0.0,0.0,0.0,0.0,0.0,-2.9792,-2.9792,-2.9402,-2.8775,-2.8222,-2.7369,-2.6465,-2.6383,-2.569,-2.4863,-2.5328,-2.5153,-2.4763,-2.5165,-2.3843,-2.2128,-2.1361,0.0,-1.689,-1.6641,-1.6973,-1.7451,-1.7725,-1.8849,-2.0711,0.0,0.0,-2.6845,-2.9285,-3.0603,-3.165,-3.2541,-3.3558,-3.4361,-3.4675,-3.4944,-3.425,-3.1568,-2.9693,-2.664,-2.126,-1.3421,-0.68,-0.2646,0.1548,0.3329,0.1777,0.1659,0.0553,-0.2112,-0.3458,-0.4132,-0.4013,-0.2524,-0.1086,0.0216,0.144,0.3307,0.5807,0.8037,1.1161,1.502,1.86,2.2402,2.6259,2.8599,2.9892,3.0671,3.4543,3.6754,3.7971,4.069,4.195,4.2181,4.1219,4.1453,4.1984,0.0,0.0,0.0,0.0,0.0,0.0,0.0,0.0,0.0,0.0,0.0,0.0,0.0,0.0,0.0,0.0,0.0,0.0,0.0,0.0,0.0,0.0,0.0,0.0,0.0,0.0,0.0,0.0,0.0,0.0,0.0,0.0,0.0,0.0,0.0,0.0,0.0,0.0,0.0,-2.9792,-2.9792,-2.9453,-2.8875,-2.831,-2.7419,-2.6445,-2.5737,-2.5209,0.0,0.0,-2.4519,-2.4304,-2.4267,-2.3109,-2.1475,-2.0227,-1.8889,0.0,-1.8144,-1.7988,-1.8221,-2.0114,-2.1251,-2.2916,-2.6572,-2.787,-2.9034,-3.1535,-3.2654,-3.347,-3.4349,-3.4889,-3.5203,-3.5203,-3.5127,-3.4407,-3.2511,-3.064,-2.8282,-2.5083,-1.9007,-1.1905,-0.3834,0.086,0.4132,0.5976,0.531,0.3424,0.0553,-0.2662,-0.4457,-0.447,-0.3935,-0.1617,0.237,0.3734,0.6715,1.1125,1.3299,1.6125,1.9587,2.1889,2.4608,2.7522,2.9222,3.0507,3.1537,3.4312,3.6805,3.9193,4.1556,4.3408,4.4605,4.3085,4.2694,4.2699,0.0,0.0,0.0,0.0,0.0,0.0,0.0,0.0,0.0,0.0,0.0,0.0,0.0,0.0,0.0,0.0,0.0,0.0,0.0,0.0,0.0,0.0,0.0,0.0,0.0,0.0,0.0,0.0,0.0,0.0,0.0,0.0,0.0,0.0,0.0,0.0,0.0,0.0,0.0,-2.9779,-2.9616,-2.9302,-2.8837,-2.7971,-2.7055,-2.6101,-2.5159,-2.4519,0.0,0.0,-2.3439,-2.3267,-2.3074,-2.228,-2.1178,-1.9629,-1.8813,-1.8506,-1.8711,-1.9013,-1.9728,-2.203,-2.383,-2.5678,-2.8488,-3.001,-3.132,-3.3383,-3.4198,-3.4776,-3.5429,-3.5542,-3.5441,-3.514,-3.4751,-3.4136,-3.3191,-3.1381,-2.9612,-2.7847,-2.4175,-1.8221,-0.9042,-0.3148,0.1575,0.5208,0.3918,0.2074,-0.011,-0.4397,-0.6848,-0.6893,-0.6544,-0.3768,0.1724,0.4287,0.8711,1.5029,1.7984,2.1077,2.4285,2.5764,2.7521,2.9475,3.0036,3.1047,3.2465,3.4519,3.7141,4.0097,4.2201,4.4276,4.5997,4.4739,4.4079,4.3712,0.0,0.0,0.0,0.0,0.0,0.0,0.0,0.0,0.0,0.0,0.0,0.0,0.0,0.0,0.0,0.0,0.0,0.0,0.0,0.0,0.0,0.0,0.0,0.0,0.0,0.0,0.0,0.0,0.0,0.0,0.0,0.0,0.0,0.0,0.0,0.0,0.0,0.0,0.0,-2.9741,-2.9176,-2.895,-2.875,-2.713,-2.6138,-2.5548,-2.5008,0.0,0.0,0.0,-2.2008,-2.1656,-2.2151,-2.2055,0.0,-2.0771,-1.9365,-1.7939,-1.7549,-1.9827,-2.2402,-2.2913,-2.637,-2.9869,-3.0541,-3.2695,-3.4673,-3.5261,-3.5906,-3.6144,-3.5642,-3.5542,-3.519,-3.4123,-3.3935,-3.3665,-3.2894,-3.224,-3.1313,-3.0066,-2.8176,-2.5084,-2.0278,-1.1613,-0.5429,-0.3352,-0.4958,-0.6102,-0.6367,-1.0481,-1.2919,-1.3038,-1.1571,-0.8682,-0.4176,0.1268,0.7925,1.5488,2.0792,2.5199,2.8645,3.035,3.1724,3.2804,3.1809,3.197,3.3169,3.5642,3.7714,3.9553,4.2022,4.4032,4.5535,4.5462,4.5547,4.5485,0.0,0.0,0.0,0.0,0.0,0.0,0.0,0.0,0.0,0.0,0.0,0.0,0.0,0.0,0.0,0.0,0.0,0.0,0.0,0.0,0.0,0.0,0.0,0.0,0.0,0.0,0.0,0.0,0.0,0.0,0.0,0.0,0.0,0.0,0.0,0.0,0.0,0.0,0.0,0.0,-2.8762,-2.8599,-2.8699,-2.6666,-2.5548,-2.4858,0.0,0.0,0.0,0.0,-2.1091,-2.1041,-2.1594,-2.1109,-2.0205,-1.9757,-1.9247,-1.9188,-2.0736,-2.2286,-2.4104,-2.7047,-2.9106,-3.1062,-3.3412,-3.4591,-3.5316,-3.5504,-3.5115,-3.4562,-3.401,-3.3596,-3.3452,-3.3791,-3.3263,-3.3002,-3.3792,-3.2444,-3.1243,-3.0622,-3.0078,-2.8791,-2.636,-1.8177,-1.2021,-0.9401,-1.0759,-1.2576,-1.4597,-1.8762,-2.0085,-1.7775,-1.8034,-1.4694,-0.7289,-0.3578,0.4104,1.5568,2.7031,3.3171,3.4384,3.472,3.4868,3.4857,3.3935,3.3914,3.4717,3.6374,3.8152,4.0054,4.2195,4.4009,4.5368,4.5918,4.578,4.5246,0.0,0.0,0.0,0.0,0.0,0.0,0.0,0.0,0.0,0.0,0.0,0.0,0.0,0.0,0.0,0.0,0.0,0.0,0.0,0.0,0.0,0.0,0.0,0.0,0.0,0.0,0.0,0.0,0.0,0.0,0.0,0.0,0.0,0.0,0.0,0.0,0.0,0.0,0.0,0.0,-2.7582,-2.7193,-2.6967,-2.5121,-2.4092,0.0,0.0,0.0,0.0,-2.0476,-2.0351,-2.0426,-2.0778,-2.0398,-1.9811,-1.961,-1.992,-2.0828,-2.3013,-2.4584,-2.6323,-2.9463,-3.1113,-3.2399,-3.4445,-3.5115,-3.519,-3.5002,-3.4236,-3.337,-3.2616,-3.1851,-3.1504,-3.1966,-3.1325,-3.1278,-3.2739,-3.1874,-3.1273,-3.1898,-3.2141,-3.2141,-3.1791,-2.6737,-2.1797,-1.7596,-1.9367,-2.0948,-2.1854,-2.5752,-2.6778,-2.4096,-2.4413,-2.1526,-1.4728,-1.0241,0.0478,1.7642,3.11,3.8042,3.8882,3.8277,3.7827,3.7441,3.6519,3.6382,3.6768,3.7556,3.8827,4.0406,4.1727,4.3146,4.4463,4.5337,4.5428,4.5135,0.0,0.0,0.0,0.0,0.0,0.0,0.0,0.0,0.0,0.0,0.0,0.0,0.0,0.0,0.0,0.0,0.0,0.0,0.0,0.0,0.0,0.0,0.0,0.0,0.0,0.0,0.0,0.0,0.0,0.0,0.0,0.0,0.0,0.0,0.0,0.0,0.0,0.0,0.0,0.0,0.0,0.0,-2.3866,-2.2711,0.0,0.0,0.0,0.0,0.0,0.0,-1.9886,-1.9924,-1.9924,-2.011,-2.0379,-2.0567,-2.1463,-2.2729,-2.4312,-2.6694,-2.9,-3.0494,-3.2438,-3.3947,-3.3972,-3.4337,-3.4526,-3.3884,-3.3282,-3.2516,0.0,0.0,-2.949,-2.9038,-2.8473,-2.8702,-3.0434,-3.0841,-3.169,-3.3815,-3.4404,-3.5115,-3.6372,-3.6582,-3.4086,-2.7812,-3.0367,-3.1079,-2.8453,-3.1699,-3.2949,-3.1458,-3.0599,-2.8738,-2.584,-1.7967,-0.2478,2.0363,3.2401,3.9451,4.1917,4.0943,4.0479,4.0411,3.9379,3.9088,3.9283,3.9182,3.9753,4.0653,4.0622,4.145,4.2807,4.3679,4.446,4.5044,0.0,0.0,0.0,0.0,0.0,0.0,0.0,0.0,0.0,0.0,0.0,0.0,0.0,0.0,0.0,0.0,0.0,0.0,0.0,0.0,0.0,0.0,0.0,0.0,0.0,0.0,0.0,0.0,0.0,0.0,0.0,0.0,0.0,0.0,0.0,0.0,0.0,0.0,0.0,0.0,0.0,-2.3853,-2.3828,0.0,0.0,0.0,0.0,0.0,0.0,0.0,0.0,0.0,0.0,-2.1973,-2.2563,-2.3406,-2.4476,-2.5828,-2.7863,-2.9534,-3.1267,-3.3636,-3.4322,-3.4445,-3.4946,-3.4491,-3.3591,-3.2306,-3.0947,-2.9654,-2.8536,-2.8109,-2.8274,-2.9366,-2.9027,-2.9895,-3.3339,-3.3268,0.0,-3.4935,0.0,-3.6611,-3.6492,-3.7808,-3.7971,-3.6315,-3.6985,-3.7661,-3.8075,-3.9299,-3.877,-3.5981,-3.5475,-3.3936,-3.1165,-1.7137,-0.363,0.9402,2.4808,3.5195,4.081,4.1351,4.1595,4.1595,4.1286,4.1503,4.1976,4.0814,4.0338,4.0262,3.9692,3.9716,4.0177,4.1031,4.1995,4.2895,0.0,0.0,0.0,0.0,0.0,0.0,0.0,0.0,0.0,0.0,0.0,0.0,0.0,0.0,0.0,0.0,0.0,0.0,0.0,0.0,0.0,0.0,0.0,0.0,0.0,0.0,0.0,0.0,0.0,0.0,0.0,0.0,0.0,0.0,0.0,0.0,0.0,0.0,0.0,0.0,0.0,0.0,0.0,0.0,0.0,0.0,0.0,0.0,0.0,0.0,0.0,-2.2761,-2.3251,-2.3954,-2.482,-2.5937,0.0,-2.8298,-3.003,-3.111,-3.2263,-3.4599,-3.4634,-3.4241,-3.4447,-3.3764,-3.2635,-3.0872,-2.9626,-2.8438,-2.7284,-2.6857,-2.6938,0.0,0.0,0.0,-3.218,-3.3115,-3.4039,0.0,-3.7203,0.0,-3.8212,-3.9454,-4.0277,-4.0277,-4.0613,-4.1255,-4.2107,-4.2762,-4.2241,-4.0405,-4.0276,-3.8702,-3.5466,-2.2066,-1.0465,-0.0667,1.5831,2.7464,3.4671,3.8674,4.1154,4.2382,4.2862,4.349,4.4042,4.2738,4.1388,4.0126,3.9299,3.853,3.7926,3.8775,3.981,4.0821,0.0,0.0,0.0,0.0,0.0,0.0,0.0,0.0,0.0,0.0,0.0,0.0,0.0,0.0,0.0,0.0,0.0,0.0,0.0,0.0,0.0,0.0,0.0,0.0,0.0,0.0,0.0,0.0,0.0,0.0,0.0,0.0,0.0,0.0,0.0,0.0,0.0,0.0,0.0,0.0,0.0,0.0,0.0,0.0,0.0,0.0,0.0,0.0,0.0,0.0,-2.3315,-2.3866,-2.4921,-2.6013,-2.7105,-2.8134,-2.9176,-3.0218,-3.1223,-3.1901,-3.2655,-3.4192,-3.4138,-3.3554,-3.3036,-3.2423,-3.1378,-2.9383,-2.8684,-2.7949,-2.6714,-2.6205,-2.5942,-2.6036,0.0,-2.7959,-2.9843,-3.2174,-3.4356,-3.6011,-3.8058,-3.9679,-4.0337,-4.0995,-4.1414,-4.1504,-4.2284,-4.2709,-4.269,-4.3435,-4.3923,-4.3965,-4.4022,-4.2427,-3.8837,-2.9646,-1.9907,-0.9643,0.5872,1.7576,2.5891,3.3622,3.8837,4.2015,4.3506,4.4726,4.5546,4.4542,4.2653,4.0307,3.9175,3.7662,3.6259,3.6979,3.7924,3.8999,0.0,0.0,0.0,0.0,0.0,0.0,0.0,0.0,0.0,0.0,-1.3096,-1.3018,0.0,0.0,0.0,0.0,0.0,0.0,0.0,0.0,0.0,0.0,0.0,0.0,0.0,0.0,0.0,0.0,0.0,0.0,0.0,0.0,0.0,0.0,0.0,0.0,0.0,0.0,0.0,0.0,0.0,0.0,0.0,0.0,0.0,0.0,0.0,0.0,0.0,0.0,-2.4657,-2.6678,-2.7331,-2.831,-2.934,-2.9993,-3.062,-3.1248,-3.1901,-3.2491,-3.3073,-3.3786,-3.3668,-3.2968,-3.139,-3.0429,0.0,0.0,-2.6467,-2.6253,-2.5595,-2.5675,-2.6436,-2.8153,-2.8437,-2.9565,-3.28,-3.4536,-3.5977,0.0,-3.8445,-3.9679,-4.0337,-4.0995,-4.1609,-4.2147,-4.2827,-4.298,-4.2515,-4.3059,-4.3518,-4.3749,-4.3917,-4.3116,-4.1127,-3.4427,-2.588,-1.5567,-0.4662,0.6844,1.8765,2.5893,3.217,3.7595,4.1419,4.4334,4.6223,4.4685,4.3122,4.1414,3.9136,3.744,3.6266,3.5915,3.6538,3.7642,0.0,0.0,0.0,0.0,0.0,0.0,0.0,-1.3203,-1.3359,-1.3779,-1.3652,-1.3613,-1.3809,-1.426,-1.4777,0.0,0.0,0.0,0.0,0.0,0.0,0.0,0.0,0.0,0.0,0.0,-1.7513,-1.7777,0.0,0.0,0.0,-1.9309,-1.956,0.0,0.0,0.0,0.0,0.0,0.0,0.0,0.0,0.0,0.0,0.0,0.0,0.0,0.0,0.0,0.0,0.0,-2.4556,-2.7055,-2.8185,-2.9315,-3.0382,-3.121,-3.1625,-3.1938,-3.2503,-3.2867,-3.3344,-3.4313,-3.3914,-3.2911,-3.1418,0.0,0.0,0.0,-2.5778,-2.5626,-2.4948,-2.5508,0.0,-2.7294,-2.803,-2.9666,-3.3059,-3.4505,-3.5872,-3.7679,-3.911,-4.0187,-4.0846,-4.1504,-4.2162,-4.2821,-4.3165,-4.3195,-4.288,-4.3165,-4.3635,-4.4257,-4.4341,-4.3562,-4.1876,-3.8439,-3.193,-2.2515,-1.4025,-0.3723,0.8135,1.7565,2.6141,3.3989,3.9444,4.3795,4.698,4.6223,4.4697,4.2543,4.022,3.8088,3.6266,3.5422,3.5627,3.6442,0.0,0.0,0.0,0.0,0.0,0.0,0.0,-1.3519,-1.3698,-1.4062,-1.4,-1.4116,-1.4453,-1.5084,-1.5523,0.0,0.0,0.0,0.0,0.0,0.0,0.0,0.0,0.0,0.0,0.0,0.0,-1.7551,-1.8543,0.0,0.0,0.0,0.0,0.0,-1.9798,-1.9798,0.0,0.0,0.0,0.0,0.0,-1.9798,0.0,0.0,0.0,0.0,0.0,0.0,0.0,0.0,-2.3665,-2.5837,-2.7381,-2.9051,-3.0583,-3.1298,-3.1763,-3.2164,-3.2729,-3.3139,-3.363,-3.4562,-3.4087,-3.2947,-3.1188,-2.9963,0.0,-2.5719,-2.53,-2.5203,-2.4636,0.0,-2.6073,0.0,-2.7542,-2.9448,-3.2695,-3.4159,-3.5714,0.0,-3.9364,0.0,-4.1309,-4.1848,-4.2491,-4.3269,-4.3329,-4.3329,-4.3329,-4.3329,-4.363,-4.4434,-4.4251,-4.3317,-4.1685,-4.0435,-3.597,-2.8288,-2.1749,-1.293,-0.2121,0.9165,1.9984,3.0197,3.7083,4.2834,4.7306,4.7523,4.6209,4.3821,4.1644,3.9307,3.716,3.5453,3.5179,3.5592,0.0,0.0,0.0,0.0,0.0,0.0,0.0,-1.3638,-1.3864,-1.4076,-1.3799,-1.4108,-1.5571,-1.5938,-1.6359,0.0,0.0,0.0,0.0,0.0,0.0,0.0,0.0,0.0,0.0,0.0,0.0,-1.8129,-1.8731,0.0,0.0,0.0,0.0,0.0,0.0,-1.9798,-1.9798,0.0,0.0,0.0,0.0,0.0,0.0,0.0,0.0,0.0,0.0,0.0,0.0,0.0,0.0,-2.2899,-2.4079,-2.6942,-2.9792,-2.9352,0.0,0.0,-3.2139,-3.3386,-3.4318,-3.3265,-3.3427,-3.292,-2.9244,0.0,-2.7006,-2.4328,-2.4283,-2.4672,-2.4611,-2.4644,-2.551,-2.795,0.0,-2.9566,-3.3002,-3.5081,-3.6596,-3.7404,0.0,0.0,-4.1265,-4.1429,-4.1983,-4.324,-4.3329,-4.3329,-4.3329,-4.3329,-4.3329,-4.3394,-4.2438,-4.1517,-4.0718,-3.8677,-3.5362,-3.0832,-2.6815,-1.9406,-0.8829,0.119,1.2684,2.5043,3.3992,4.1109,4.6384,4.7239,4.6841,4.538,4.2864,4.1067,3.958,3.6498,3.5502,3.561,0.0,0.0,0.0,0.0,0.0,0.0,-1.4535,-1.4634,-1.485,-1.5224,-1.5088,-1.5426,-1.6503,-1.7007,-1.733,-1.7571,0.0,0.0,0.0,0.0,0.0,0.0,0.0,0.0,0.0,0.0,-1.7454,-1.8204,-1.8756,0.0,0.0,0.0,0.0,0.0,0.0,-1.9798,-1.9798,-1.9798,0.0,0.0,0.0,0.0,0.0,0.0,0.0,0.0,0.0,0.0,-1.9874,0.0,0.0,0.0,-2.1543,-2.3703,0.0,0.0,-2.9377,-3.0683,-3.1888,-3.2954,-3.3752,-3.367,-3.3024,-3.1836,-2.9973,0.0,-2.6452,-2.4597,-2.4103,-2.4014,-2.4014,-2.4311,-2.5047,-2.6553,-2.6742,0.0,-3.1765,-3.2647,-3.4158,-3.7584,-3.8467,-3.9634,-4.1758,-4.1968,-4.2342,-4.3269,-4.3329,-4.3329,-4.3329,-4.3329,-4.3329,-4.3329,-4.2193,-4.1139,-4.021,-3.8553,-3.6031,-3.2659,-2.9922,-2.4131,-1.5657,-0.5101,0.6703,1.9415,3.0245,3.9093,4.5982,4.8149,4.869,4.8001,4.6241,4.4421,4.2505,4.0543,3.8674,3.7358,0.0,0.0,0.0,0.0,0.0,-1.5039,-1.5252,-1.5463,-1.5694,-1.5797,-1.5975,-1.6366,-1.7059,-1.7633,-1.8103,-1.8413,-1.8091,0.0,0.0,0.0,0.0,0.0,0.0,0.0,0.0,0.0,-1.7591,-1.8455,-1.8995,-1.9447,0.0,0.0,-1.9798,-1.9798,0.0,0.0,0.0,0.0,0.0,0.0,0.0,0.0,0.0,0.0,0.0,0.0,0.0,0.0,0.0,0.0,0.0,0.0,0.0,0.0,0.0,0.0,-2.7896,-2.9616,-3.1097,-3.2498,-3.36,-3.3914,-3.2943,-3.1616,0.0,0.0,-2.6153,-2.4642,-2.3939,-2.3595,-2.3595,-2.3999,-2.4537,-2.5211,0.0,-2.7081,-3.0477,-3.1046,-3.2632,-3.6746,-3.7404,-3.8586,-4.1235,-4.2192,-4.2836,-4.3299,-4.3329,-4.3329,-4.3329,-4.3329,-4.3329,-4.3329,-4.2193,-4.1253,-4.0404,-3.8903,-3.67,-3.395,-3.1692,-2.6932,-1.9992,-1.0121,0.1695,1.4949,2.6448,3.6522,4.5154,4.8737,5.0235,5.0152,4.8965,4.7452,4.5639,4.3749,4.1735,3.9968,0.0,0.0,0.0,0.0,0.0,0.0,-1.5348,-1.5939,-1.6127,-1.5426,-1.5924,-1.665,-1.723,-1.7795,-1.8527,-1.9697,-1.9309,0.0,0.0,0.0,0.0,0.0,0.0,0.0,0.0,0.0,-1.897,-1.897,-1.9535,-1.9798,-1.9798,-1.9798,-1.9798,-1.9798,0.0,0.0,0.0,0.0,0.0,0.0,0.0,0.0,0.0,0.0,0.0,0.0,0.0,0.0,0.0,0.0,0.0,0.0,0.0,0.0,0.0,0.0,-2.5523,-2.8373,-2.9503,-3.2064,-3.4203,-3.349,-3.3364,-3.2647,0.0,0.0,-2.6019,-2.4014,-2.3595,-2.3595,-2.3595,-2.361,-2.3834,-2.4477,-2.5734,0.0,-2.931,-3.127,-3.2991,0.0,-3.5115,-3.6567,-3.92,-4.1803,-4.3329,-4.3329,-4.3329,-4.3329,-4.3329,-4.3329,-4.3329,-4.3329,-4.2193,-4.1587,-4.1587,-3.9244,-3.6923,-3.4539,-3.2125,-2.7585,-2.0988,-1.3599,-0.2381,1.1964,2.2583,3.3424,4.3897,4.8736,5.1052,5.1571,5.0435,4.9672,4.8823,4.535,4.3826,4.3213,0.0,0.0,0.0,0.0,0.0,0.0,0.0,-1.6308,-1.6397,-1.6175,-1.666,-1.7152,-1.7338,-1.8153,-1.902,-1.9761,-1.9334,0.0,0.0,0.0,0.0,0.0,0.0,0.0,0.0,0.0,-1.7957,-1.827,-1.9267,-1.9527,-1.9044,-1.9579,-1.9798,-1.9798,-1.9798,-1.9798,0.0,0.0,0.0,0.0,0.0,0.0,-2.2536,0.0,0.0,0.0,0.0,0.0,0.0,0.0,0.0,0.0,0.0,0.0,0.0,0.0,0.0,0.0,-2.767,-2.943,-3.0833,-3.0939,-3.0644,-3.0221,-2.9431,0.0,-2.5734,-2.5106,-2.4612,-2.4253,-2.4253,-2.4672,-2.5345,-2.6452,-2.6991,-2.7949,0.0,0.0,0.0,-3.6163,-3.9065,-4.119,-4.2013,-4.2851,-4.3329,-4.3329,-4.3329,-4.3329,-4.3329,-4.3763,-4.3793,-4.3344,-4.2193,-4.1587,-4.1587,-3.9244,-3.7729,-3.6962,-3.322,-2.9285,-2.4892,-1.6418,-0.6005,0.598,1.797,2.9388,4.0156,4.6625,5.0784,5.3111,5.3107,5.2364,5.1235,5.0085,4.8074,4.5839,0.0,0.0,0.0,0.0,0.0,0.0,0.0,-1.6697,-1.6773,-1.6547,-1.7388,-1.7928,-1.7714,-1.8668,-1.9447,-1.9773,-1.9242,0.0,0.0,0.0,0.0,0.0,0.0,0.0,0.0,-1.7509,-1.8288,-1.8967,-1.9517,-1.9691,-1.9454,-1.9679,-1.9911,-2.0125,-1.9899,-2.0066,0.0,0.0,0.0,0.0,0.0,0.0,-2.3077,0.0,0.0,0.0,0.0,0.0,0.0,0.0,0.0,0.0,0.0,0.0,0.0,0.0,-2.3259,-2.4455,0.0,-2.8144,-2.9242,-2.9702,-2.9519,0.0,0.0,0.0,0.0,0.0,-2.4926,-2.4881,-2.4627,-2.5166,-2.5869,-2.6692,-2.7245,-2.8083,0.0,0.0,0.0,-3.6701,-3.9903,-4.1953,-4.2207,-4.2895,-4.3329,-4.3329,-4.3329,-4.3329,-4.3329,-4.3718,-4.3763,-4.3344,-4.2865,-4.2524,-4.2208,-3.9958,-3.8617,-3.8376,-3.4408,-3.0743,-2.7249,-1.9987,-1.095,0.0,1.1883,2.3857,0.0,4.3781,4.974,5.3815,5.4775,5.4479,5.3452,5.3129,5.1484,4.9389,0.0,0.0,0.0,0.0,0.0,0.0,0.0,-1.6974,-1.7124,-1.6584,-1.7953,-1.8769,-1.8254,-1.9158,-1.9836,-1.9911,0.0,0.0,0.0,0.0,0.0,0.0,0.0,0.0,-1.7376,-1.8425,-1.9496,-2.0548,-2.01,-2.0137,-2.0598,-2.0112,-2.015,-2.0693,-2.0114,-2.054,0.0,0.0,0.0,0.0,0.0,0.0,0.0,0.0,0.0,0.0,0.0,0.0,0.0,0.0,0.0,0.0,0.0,0.0,0.0,0.0,0.0,0.0,0.0,-2.7671,-2.8788,-2.9387,-2.9389,0.0,0.0,0.0,0.0,0.0,0.0,0.0,0.0,-2.53,-2.5794,-2.5929,-2.6946,-2.7964,0.0,-3.1106,0.0,-3.6312,-3.8407,-3.9828,-4.0352,-4.2177,-4.3329,-4.3329,-4.3329,-4.3329,-4.3329,-4.3389,-4.3389,-4.3329,-4.3973,-4.4003,-4.3344,-4.1014,-3.9609,-3.9015,-3.5403,-3.1812,-2.8168,-2.4017,-1.6484,-0.5889,0.4666,1.6889,3.0107,3.9886,4.7536,5.3256,5.531,5.5877,5.5409,5.455,5.393,5.3328,0.0,0.0,0.0,0.0,0.0,0.0,0.0,0.0,0.0,0.0,-1.7614,-1.8355,-1.8216,-1.9158,-2.015,0.0,0.0,0.0,0.0,0.0,0.0,0.0,0.0,0.0,-1.8001,-1.8646,-1.9081,-1.9185,-2.0035,-2.0246,-1.9867,-2.03,-2.0539,-2.0693,-2.0617,-2.0997,0.0,0.0,0.0,0.0,0.0,0.0,0.0,0.0,0.0,0.0,-2.2634,-2.2756,0.0,0.0,0.0,0.0,0.0,0.0,0.0,0.0,-2.3334,-2.3549,-2.481,0.0,-2.5593,-2.5735,-2.6176,-2.6422,0.0,0.0,0.0,0.0,0.0,0.0,0.0,0.0,0.0,-2.9116,-2.922,-2.952,-3.0687,-3.3559,0.0,-3.7749,-4.0157,-4.1324,-4.0487,-4.2177,-4.3329,-4.3329,-4.3329,-4.3329,-4.3329,-4.3808,-4.3853,-4.3344,-4.3973,-4.4003,-4.3344,-4.1014,-3.983,-3.9664,-3.5487,-3.1888,-2.8631,-2.4153,-1.8149,-1.0858,-0.1555,0.8792,1.9913,3.1764,4.0915,4.7983,5.33,5.5482,5.5638,5.5411,5.4749,5.3895,0.0,0.0,0.0,0.0,0.0,0.0,0.0,0.0,0.0,0.0,0.0,0.0,0.0,0.0,0.0,0.0,0.0,0.0,0.0,0.0,0.0,0.0,0.0,-1.8329,-1.8581,-1.8869,-1.9318,-2.0012,-2.0466,-2.0628,-2.0465,-2.0615,-2.0866,-2.1158,-2.1776,-2.2249,0.0,0.0,0.0,0.0,-2.4145,0.0,0.0,0.0,0.0,0.0,-2.3231,-2.3334,0.0,-2.3595,-2.3595,-2.3595,0.0,0.0,0.0,0.0,-2.357,-2.3626,-2.4015,-2.4534,-2.5063,-2.5374,-2.5745,-2.5974,0.0,0.0,0.0,0.0,0.0,0.0,0.0,0.0,0.0,0.0,-3.0103,-3.1031,0.0,0.0,-3.5938,-3.8123,-3.9933,-4.1085,-4.128,-4.2536,-4.3329,-4.3329,-4.3329,-4.3329,-4.3329,-4.3673,-4.3703,-4.3344,-4.3673,-4.3688,-4.3329,-4.1518,-4.0404,-3.9885,-3.6755,-3.3666,-3.0633,-2.6655,-2.1862,-1.6113,-0.7547,0.1405,1.1049,2.304,3.3351,4.2213,4.868,5.2787,5.5082,5.5396,5.5033,5.439,0.0,0.0,0.0,0.0,0.0,0.0,0.0,0.0,0.0,0.0,0.0,0.0,0.0,0.0,0.0,0.0,0.0,0.0,0.0,0.0,0.0,0.0,0.0,-1.8631,-1.897,-1.9058,-1.9823,-2.123,-2.0941,-2.0991,-2.1355,-2.102,-2.1104,-2.1674,-2.2853,-2.3544,0.0,0.0,-2.557,-2.5734,-2.554,0.0,0.0,0.0,0.0,0.0,0.0,0.0,0.0,-2.3595,-2.3595,-2.3595,-2.3595,0.0,0.0,0.0,0.0,0.0,-2.3849,-2.4761,-2.5762,-2.6054,-2.6213,-2.6123,0.0,0.0,0.0,0.0,0.0,0.0,0.0,0.0,0.0,0.0,0.0,0.0,-3.4637,-3.4643,-3.5413,-3.7928,-3.9253,-4.0424,-4.185,-4.2686,-4.3225,-4.3329,-4.3329,-4.3329,-4.3329,-4.3329,-4.3329,-4.3329,-4.3329,-4.3329,-4.3329,-4.2193,-4.1085,-4.0145,-3.8303,-3.5929,-3.3023,-2.9797,-2.5698,-2.0784,-1.3351,-0.5487,0.2843,1.3728,2.4331,3.4495,4.2155,4.8238,5.2901,5.442,5.4906,5.482,0.0,0.0,0.0,0.0,0.0,0.0,0.0,0.0,0.0,0.0,0.0,0.0,0.0,0.0,0.0,0.0,0.0,0.0,0.0,0.0,0.0,-2.1039,-2.0097,-1.9397,-1.8983,-1.9459,-1.9811,-2.0062,-2.0928,-2.1167,-2.0857,-2.1179,-2.151,-2.1705,-2.2502,-2.3431,-2.4491,-2.4686,-2.542,-2.6348,-2.5226,0.0,0.0,0.0,0.0,0.0,0.0,0.0,0.0,-2.3595,-2.3595,-2.3595,-2.3595,0.0,0.0,0.0,0.0,0.0,-2.4986,-2.5834,-2.6072,-2.4433,-2.4507,-2.4747,0.0,0.0,0.0,0.0,0.0,0.0,0.0,0.0,0.0,0.0,0.0,-3.4068,-3.6611,-3.8025,-3.855,-3.7691,-4.0359,-4.1633,-4.0021,-4.1474,-4.2746,-4.3284,-4.3329,-4.3329,-4.3329,-4.3329,-4.3329,-4.3329,-4.3329,-4.3329,-4.3329,-4.2193,-4.1504,-4.1322,-3.9034,-3.6684,-3.4232,-3.0466,-2.6599,-2.2531,-1.8098,-1.2279,-0.5459,0.335,1.1922,2.093,3.3637,4.1424,4.6227,5.1551,5.4235,5.5229,0.0,0.0,0.0,0.0,0.0,0.0,0.0,0.0,0.0,0.0,0.0,0.0,0.0,0.0,0.0,0.0,0.0,0.0,0.0,0.0,0.0,-2.1041,-2.0552,-2.0012,-1.9459,-1.9673,-1.9962,-2.0275,-2.079,-2.097,-2.0718,-2.1303,-2.1659,-2.1744,-2.2756,-2.3896,-2.5151,-2.5151,-2.5719,-2.6497,0.0,0.0,0.0,0.0,0.0,0.0,0.0,0.0,0.0,0.0,-2.3595,-2.3595,-2.3595,0.0,0.0,0.0,0.0,0.0,-2.4358,-2.527,-2.5839,-2.4911,-2.5465,-2.6048,0.0,0.0,0.0,0.0,0.0,0.0,0.0,0.0,-3.118,-3.4218,-3.4637,-3.525,-3.7135,-3.7434,-3.7461,-3.7428,-3.9188,-4.0273,-4.0006,-4.1085,-4.2102,-4.2761,-4.2806,-4.297,-4.3314,-4.3329,-4.3329,-4.3329,-4.3329,-4.3329,-4.3329,-4.2805,-4.2208,-4.1573,-3.979,-3.7827,-3.5538,-3.1745,-2.8129,-2.4575,-2.0241,-1.601,-1.1653,-0.4206,0.3241,1.107,2.2666,3.1782,3.9476,4.8392,5.2801,5.4421,0.0,0.0,0.0,0.0,0.0,0.0,0.0,0.0,0.0,0.0,0.0,0.0,0.0,0.0,0.0,0.0,0.0,0.0,0.0,0.0,-2.0907,-2.0907,-2.0794,-2.0401,-1.9811,-1.9936,-2.0162,-2.0464,-2.0781,-2.0898,-2.0907,-2.1466,-2.1791,-2.2007,-2.3289,-2.4507,-2.5615,-2.5779,-2.6213,-2.6752,0.0,0.0,0.0,0.0,0.0,0.0,0.0,0.0,0.0,0.0,0.0,0.0,0.0,0.0,0.0,-2.3595,-2.3595,-2.367,-2.3984,-2.4941,-2.5839,-2.5839,0.0,-2.7096,-2.7066,0.0,0.0,0.0,0.0,0.0,0.0,-3.0657,0.0,-3.6417,-3.6402,-3.6402,-3.7704,-3.7353,-3.721,-3.7778,-3.8647,-3.9586,-4.0643,-4.1202,-4.1835,-4.2712,-4.2894,-4.3214,-4.3715,-4.368,-4.363,-4.363,-4.3409,-4.3329,-4.3329,-4.3329,-4.29,-4.2015,-4.0735,-3.9045,-3.6756,-3.3071,-2.9508,-2.6093,-2.1839,-1.8792,-1.6313,-1.0635,-0.4604,0.1988,1.1938,2.2886,3.4387,4.4282,4.9165,5.0951,0.0,0.0,0.0,0.0,0.0,0.0,0.0,0.0,0.0,0.0,0.0,0.0,0.0,0.0,0.0,0.0,0.0,0.0,0.0,0.0,-2.143,-2.143,-2.0995,-2.0401,-1.9811,-2.0326,-2.0363,-1.9861,-2.0916,-2.147,-2.155,-2.1662,-2.2039,-2.2678,-2.3939,-2.4956,-2.5644,-2.6258,-2.6901,-2.7445,-2.6123,0.0,0.0,0.0,0.0,0.0,0.0,0.0,0.0,0.0,0.0,0.0,0.0,0.0,-2.3595,-2.3595,-2.3595,-2.3864,-2.5121,-2.5974,-2.6512,-2.6512,0.0,0.0,-2.8038,0.0,0.0,0.0,0.0,0.0,0.0,-3.2003,-3.3858,-3.5385,-3.6567,-3.7734,-3.9095,-4.0436,-4.0839,-3.9391,-4.0644,-4.155,-4.1604,-4.165,-4.2295,-4.377,-4.4506,-4.4903,-4.4951,-4.4809,-4.4662,-4.4662,-4.3771,-4.3329,-4.3329,-4.3329,-4.325,-4.314,-4.1921,-4.0124,-3.791,-3.4192,-3.0209,-2.6203,-2.3786,-2.1363,-1.9012,-1.6613,-1.2771,-0.7501,0.28,1.7126,3.2643,3.8507,4.1604,4.2982,0.0,0.0,0.0,0.0,0.0,0.0,0.0,0.0,0.0,0.0,0.0,0.0,0.0,0.0,0.0,0.0,0.0,0.0,0.0,-1.9574,-2.0348,-2.0348,-2.0548,-2.0401,-1.9811,-2.0012,-2.0024,-1.9798,-2.0643,-2.1094,-2.1125,-2.1944,-2.2452,-2.2783,-2.4044,-2.4716,-2.5076,-2.6138,-2.6497,-2.6348,-2.6258,-2.5734,0.0,0.0,0.0,0.0,0.0,0.0,0.0,0.0,-2.3595,-2.3595,0.0,-2.3595,-2.3595,-2.3595,-2.3595,-2.3714,-2.4223,-2.545,-2.6587,-2.6587,0.0,0.0,0.0,0.0,0.0,0.0,0.0,0.0,0.0,0.0,-3.531,-3.7015,-3.8063,-3.8975,-3.9903,-4.0221,-4.0081,-3.9439,-3.9586,-4.0024,-4.0978,-4.0266,-4.0794,-4.3193,-4.3227,-4.3706,-4.5016,-4.4444,-4.4304,-4.4796,-4.3849,-4.3329,-4.3329,-4.3329,-4.3135,-4.2716,-4.1818,-4.0295,-3.809,-3.5093,-3.1392,-2.7261,-2.4894,-2.2585,-2.0413,-1.8183,-1.535,-1.1165,0.1851,1.4373,2.5753,3.204,3.5859,3.8136,0.0,0.0,0.0,0.0,0.0,0.0,0.0,0.0,0.0,0.0,0.0,0.0,0.0,0.0,0.0,0.0,0.0,0.0,-1.7355,-1.8771,-1.9591,-1.9591,-2.0328,-2.0401,-1.9811,-1.9798,-1.9886,-2.0075,-2.0719,-2.1259,-2.1738,-2.2413,-2.2785,-2.3038,-2.4134,-2.4582,-2.4657,-2.5809,-2.6019,-2.5644,-2.6093,-2.5734,0.0,0.0,0.0,0.0,0.0,0.0,0.0,0.0,-2.3595,0.0,0.0,0.0,0.0,0.0,-2.3595,-2.3595,-2.3595,-2.4911,-2.6273,0.0,0.0,0.0,0.0,0.0,0.0,0.0,-3.4143,0.0,-3.5385,0.0,-3.6013,-3.7539,-3.8706,-3.9574,-4.0023,-3.9709,-3.9424,-3.9424,-3.8811,-3.9016,-4.0587,-3.9718,-4.0056,-4.2564,-4.2724,-4.3358,-4.4886,-4.4246,-4.4085,-4.457,-4.3366,-4.2716,-4.2716,-4.2925,-4.2701,-4.2043,-4.1594,-4.0349,-3.8288,-3.544,-3.2295,-2.8978,-2.6352,-2.4196,-2.2249,-1.981,-1.6177,-1.1092,0.0718,1.0058,1.786,2.4277,2.8703,3.1656,0.0,0.0,0.0,0.0,0.0,0.0,0.0,0.0,0.0,0.0,0.0,0.0,0.0,0.0,0.0,0.0,0.0,0.0,-1.7355,-1.8771,-1.9579,-1.9579,-2.0316,-2.0388,-1.9811,-1.9811,-2.01,-2.0718,-2.1316,-2.2301,-2.3677,-2.3043,-2.3024,-2.3625,-2.4313,-2.4582,-2.4612,-2.533,-2.5615,-2.56,-2.5615,-2.5615,-2.554,0.0,0.0,0.0,0.0,0.0,0.0,0.0,-2.3595,0.0,0.0,0.0,0.0,0.0,-2.3595,-2.361,-2.3595,-2.4582,0.0,0.0,0.0,0.0,0.0,0.0,0.0,0.0,0.0,-3.4696,-3.5385,-3.5534,-3.5744,-3.6387,-3.8138,-3.9424,-3.9424,-3.9424,-3.9424,-3.9424,-3.8796,-3.9025,-4.0722,-4.0302,-4.0528,-4.2179,-4.369,-4.4553,-4.457,-4.4248,-4.4093,-4.4093,-4.2333,-4.1384,-4.1384,-4.2028,-4.2013,-4.1369,-4.1369,-4.045,-3.8721,-3.523,-3.2748,-3.1122,-2.8359,-2.6234,-2.4607,-2.2136,-1.5886,-0.733,-0.191,0.3658,0.9377,1.5282,1.9545,2.2766,0.0,0.0,0.0,0.0,0.0,0.0,0.0,0.0,0.0,0.0,0.0,0.0,0.0,0.0,0.0,0.0,0.0,0.0,-1.5986,-1.7342,-1.8189,-1.8189,-1.9393,-1.9974,-1.9798,-2.1081,-2.1681,-2.1459,-2.1619,-2.2366,-2.3677,-2.3451,-2.3421,-2.3625,-2.4313,-2.4358,-2.3984,-2.5121,-2.5345,-2.5001,-2.5929,-2.6019,-2.5585,0.0,0.0,0.0,0.0,0.0,0.0,0.0,0.0,0.0,0.0,0.0,0.0,-2.3744,-2.3939,-2.4223,-2.3729,0.0,0.0,0.0,0.0,0.0,0.0,0.0,0.0,0.0,-3.6477,-3.6088,-3.6731,-3.6851,-3.6911,-3.7105,-3.8422,-3.9424,-3.9424,-3.9424,-3.9424,-3.9424,-3.8392,-3.8522,-4.0674,-3.9377,-3.9471,-4.2095,-4.2236,-4.2658,-4.3707,-4.2961,-4.2796,-4.3275,-4.2088,-4.1384,-4.1384,-4.1579,-4.1339,-4.0696,-4.0696,-4.0022,-3.8736,-3.7232,-3.4638,-3.1216,-3.0417,-2.8043,-2.4457,-1.9515,-1.3862,-0.7787,-0.3265,0.1428,0.6184,1.0264,1.3763,1.7004,0.0,0.0,0.0,0.0,0.0,0.0,0.0,0.0,0.0,0.0,0.0,0.0,0.0,0.0,0.0,0.0,0.0,0.0,0.0,-1.68,-1.7723,-1.7924,-1.9153,-2.0054,-2.0579,-2.1891,-2.2709,-2.2958,-2.2867,-2.3093,-2.3677,-2.3406,-2.323,-2.3192,-2.3368,-2.3506,-2.3613,-2.4204,-2.4504,-2.4672,-2.5779,-2.6123,-2.5974,0.0,0.0,0.0,0.0,0.0,0.0,0.0,0.0,0.0,0.0,0.0,0.0,-2.4044,-2.4103,-2.4238,-2.4358,0.0,0.0,0.0,0.0,0.0,0.0,0.0,0.0,0.0,-3.7479,-3.7045,-3.7689,-3.7584,-3.7494,-3.7749,-3.8706,-3.9424,-3.9424,-3.9424,-3.932,-3.9035,-3.8063,-3.7962,-3.9424,-3.8239,-3.8316,-4.0742,-4.0799,-4.1171,-4.2059,-4.1455,-4.1422,-4.2189,-4.1241,-4.099,-4.1592,-4.1868,-4.1724,-4.1063,-4.134,-4.0796,-3.9535,-3.8103,-3.6051,-3.3459,-3.1305,-2.8008,-2.3737,-1.821,-1.3238,-0.8829,-0.4653,-0.0984,0.2418,0.6811,1.0092,1.2993,0.0,0.0,0.0,0.0,0.0,0.0,0.0,0.0,0.0,0.0,0.0,0.0,0.0,0.0,0.0,0.0,0.0,0.0,0.0,0.0,-1.7968,-1.8544,-1.9539,-2.0643,-2.1822,-2.2458,-2.3365,-2.4592,-2.4494,-2.4206,-2.3677,-2.3054,-2.271,-2.2572,-2.2042,-2.2446,-2.3445,-2.2922,-2.3419,-2.4552,-2.5315,-2.5974,-2.6437,-2.5899,0.0,0.0,0.0,0.0,0.0,0.0,0.0,0.0,0.0,0.0,0.0,-2.4388,-2.4133,-2.3969,0.0,0.0,0.0,0.0,0.0,0.0,0.0,0.0,-3.8467,-3.9035,0.0,-3.7734,-3.8212,-3.7808,-3.7629,-3.8287,-3.8916,-3.9349,-3.9409,-3.9364,-3.9095,-3.8467,-3.7764,-3.7397,-3.7558,-3.7002,-3.7188,-3.869,-3.9429,-3.9775,-3.9775,-3.9725,-3.9998,-4.0716,-4.0147,-4.046,-4.1805,-4.2444,-4.246,-4.1917,-4.2557,-4.2097,-4.0591,-3.8377,-3.7128,-3.6484,-3.1146,-2.6696,-2.2974,-1.8067,-1.3941,-1.0347,-0.6223,-0.3634,-0.1517,0.4279,0.7844,1.0537,0.0,0.0,0.0,0.0,0.0,0.0,0.0,0.0,0.0,0.0,0.0,0.0,0.0,0.0,0.0,0.0,0.0,0.0,0.0,0.0,-1.8736,-1.9333,-2.1053,-2.2154,-2.2432,-2.3631,-2.414,-2.3941,-2.3894,-2.3822,-2.3677,-2.3454,-2.3059,-2.2586,-2.2462,-2.2818,-2.3445,-2.2922,-2.3142,-2.3924,-2.5121,-2.5689,-2.5869,-2.6243,-2.6378,0.0,0.0,0.0,0.0,0.0,0.0,0.0,-2.4567,-2.4762,-2.5001,-2.4088,-2.4103,-2.4582,0.0,0.0,0.0,0.0,0.0,0.0,0.0,0.0,-3.7524,-3.718,-3.8123,-3.8706,-3.7793,-3.7509,-3.7629,-3.8287,-3.8512,-3.8796,-3.9349,-3.896,-3.8556,-3.8407,-3.7375,-3.6914,-3.7511,-3.7002,-3.7024,-3.7962,-3.7705,-3.7519,-3.7519,-3.7985,-3.8334,-3.8478,-3.9925,-4.0515,-4.0304,-4.1007,-4.1278,-4.1134,-4.1278,-4.1099,-4.0675,-4.0178,-3.8169,-3.4854,-3.0118,-2.6783,-2.428,-1.9346,-1.5804,-1.2925,-0.8906,-0.5751,-0.3139,0.0435,0.4974,0.985,0.0,0.0,0.0,0.0,0.0,0.0,0.0,0.0,0.0,0.0,0.0,0.0,0.0,0.0,0.0,0.0,0.0,0.0,0.0,0.0,-1.9715,-2.0966,-2.2564,-2.3474,-2.3612,-2.4568,-2.463,-2.3692,-2.3692,-2.3536,-2.3138,-2.2748,-2.2549,-2.2471,-2.2194,-2.2582,-2.3399,-2.2879,-2.3187,-2.4148,-2.4852,-2.551,-2.6078,-2.6108,-2.6318,-2.6497,-2.5839,0.0,0.0,0.0,0.0,0.0,0.0,0.0,-2.5001,-2.4298,-2.4343,-2.4837,0.0,0.0,0.0,0.0,0.0,0.0,0.0,0.0,-3.724,-3.6611,-3.7539,-3.8242,-3.7539,-3.7404,-3.7524,-3.7853,-3.7913,-3.8048,-3.8407,-3.8153,-3.7808,-3.7509,-3.6896,-3.6406,-3.6146,-3.607,-3.6276,-3.6688,-3.6427,-3.6378,-3.6734,-3.6782,-3.7126,-3.7799,-3.921,-4.0131,-4.0475,-4.1181,-4.1543,-4.1543,-4.1543,-4.1112,-4.0289,-3.9785,-3.7748,-3.4375,-3.0662,-2.7521,-2.4728,-2.0394,-1.718,-1.4789,-1.1292,-0.8299,-0.5547,-0.1278,0.316,0.7771,0.0,0.0,0.0,0.0,0.0,0.0,0.0,0.0,0.0,0.0,0.0,0.0,0.0,0.0,0.0,0.0,0.0,0.0,0.0,0.0,0.0,-2.2498,-2.3814,-2.4655,-2.499,-2.525,-2.484,-2.3851,-2.3498,0.0,0.0,0.0,-2.1962,-2.2297,-2.2002,-2.2465,-2.3568,-2.3114,-2.3588,-2.4612,-2.4821,-2.5555,-2.6378,-2.6063,-2.6288,-2.6692,-2.6138,-2.5959,-2.5959,-2.5959,0.0,0.0,0.0,0.0,-2.4881,-2.4642,-2.4582,-2.4896,0.0,0.0,0.0,0.0,0.0,0.0,0.0,0.0,-3.6791,-3.6402,-3.6821,-3.721,-3.7105,-3.7075,-3.712,-3.724,-3.724,-3.7285,-3.7404,-3.7315,-3.706,-3.6552,-3.6387,-3.5833,-3.4592,-3.4996,-3.5329,-3.5245,-3.5135,-3.531,-3.5932,-3.5562,-3.5953,-3.7249,-3.8245,-3.9365,-4.0629,-4.1491,-4.1844,-4.1721,-4.1552,-4.0893,-3.9656,-3.8272,-3.6446,-3.4311,-3.1588,-2.8497,-2.5079,-2.1523,-1.8719,-1.6436,-1.3318,-1.0496,-0.7458,-0.1985,0.2262,0.5839,0.0,0.0,0.0,0.0,0.0,0.0,0.0,0.0,0.0,0.0,0.0,0.0,0.0,0.0,0.0,0.0,0.0,0.0,-1.9475,0.0,0.0,-2.2564,-2.4299,-2.5549,-2.6251,-2.5293,-2.4722,-2.4563,-2.2761,0.0,0.0,0.0,0.0,-2.2309,0.0,0.0,-2.4293,0.0,0.0,0.0,-2.5869,-2.6093,-2.5854,-2.6901,-2.7415,-2.7475,-2.7385,-2.7305,-2.7305,-2.7305,-2.7305,0.0,0.0,0.0,-2.6093,-2.4956,-2.4582,-2.4792,0.0,0.0,0.0,0.0,0.0,0.0,0.0,0.0,-3.5011,-3.5534,-3.6148,-3.6432,-3.5863,-3.5759,-3.5953,-3.6522,-3.6611,-3.6791,-3.733,-3.6941,-3.6582,-3.6492,-3.5983,-3.5325,-3.4547,-3.4562,-3.44,-3.3833,-3.3261,-3.293,-3.3049,-3.3666,-3.429,-3.5085,-3.7049,-3.8168,-3.8362,-3.9698,-4.0016,-3.933,-3.867,-3.8513,-3.8727,-3.5859,-3.4298,-3.3661,-3.175,-2.9192,-2.6113,-2.3604,-2.1159,-1.8696,-1.5012,-1.1288,-0.7434,-0.3045,0.1827,0.6674,0.0,0.0,0.0,0.0,0.0,0.0,0.0,0.0,0.0,0.0,0.0,0.0,0.0,0.0,0.0,-1.919,-1.9267,-1.9611,-2.0263,-2.1102,-2.2179,-2.3607,-2.4408,-2.5029,-2.5481,-2.4582,-2.3713,-2.2949,0.0,0.0,0.0,-2.2792,-2.3106,0.0,0.0,0.0,0.0,0.0,0.0,0.0,0.0,-2.5869,-2.5719,-2.6662,-2.7021,-2.7066,-2.749,-2.7625,-2.7625,-2.7625,-2.7625,-2.7445,-2.6363,0.0,0.0,0.0,-2.4328,0.0,0.0,0.0,0.0,0.0,0.0,0.0,0.0,0.0,-3.4008,-3.4322,-3.4607,-3.4951,-3.5429,-3.5504,-3.5474,-3.537,-3.5684,-3.5893,-3.5774,-3.5863,-3.5938,-3.5938,-3.534,-3.4666,-3.3993,-3.3918,-3.3649,-3.2991,-3.2677,-3.266,-3.3023,-3.3069,-3.3388,-3.4062,-3.5787,-3.6503,-3.6089,-3.7518,-3.7862,-3.7156,-3.6731,-3.623,-3.5658,-3.4215,-3.3533,-3.3449,-3.1123,-2.9077,-2.7197,-2.4914,-2.2543,-2.0112,-1.7043,-1.2628,-0.7422,-0.3133,0.1394,0.5684,0.0,0.0,0.0,0.0,0.0,0.0,0.0,0.0,0.0,0.0,0.0,0.0,0.0,0.0,0.0,0.0,-1.9986,-2.0213,-2.0693,-2.1247,-2.2379,-2.4136,-2.4341,-2.454,-2.4869,-2.3895,-2.292,0.0,0.0,0.0,-2.2572,-2.3115,-2.3923,0.0,-2.4851,-2.519,0.0,0.0,0.0,0.0,0.0,-2.5749,-2.5674,-2.6333,-2.6482,-2.6452,-2.7275,-2.7505,-2.735,-2.7565,-2.7505,-2.7156,-2.6168,-2.5749,0.0,0.0,0.0,0.0,0.0,0.0,0.0,0.0,0.0,0.0,0.0,0.0,-3.329,-3.3455,-3.3365,-3.3604,-3.4786,-3.4996,-3.4876,-3.4532,-3.4771,-3.4876,-3.4532,-3.4771,-3.4996,-3.4996,-3.4547,-3.3963,-3.3305,-3.3245,-3.2976,-3.2317,-3.2273,-3.2462,-3.2977,-3.2588,-3.2641,-3.3339,-3.4505,-3.495,-3.4434,-3.5477,-3.5808,-3.5529,-3.4821,-3.4001,-3.3106,-3.2335,-3.2068,-3.2082,-3.0293,-2.8706,-2.7217,-2.5628,-2.3242,-2.0314,-1.7919,-1.3288,-0.7419,-0.3127,0.0751,0.4134,0.0,0.0,0.0,0.0,0.0,0.0,0.0,0.0,0.0,0.0,0.0,0.0,-2.2005,-2.2143,-2.175,-2.0752,-2.0639,-2.0693,-2.0718,-2.1209,-2.2074,-2.3411,-2.3993,0.0,-2.5356,-2.3568,-2.2883,0.0,0.0,0.0,-2.3326,-2.3382,-2.4463,-2.6404,-2.6404,-2.6428,-2.6505,0.0,0.0,0.0,0.0,-2.6168,-2.5674,-2.6333,-2.6198,-2.5824,-2.7111,-2.7171,-2.6737,-2.7415,-2.7156,-2.6632,-2.6557,-2.6108,-2.548,0.0,0.0,0.0,0.0,0.0,0.0,0.0,0.0,0.0,0.0,-3.3021,-3.2736,-3.3365,-3.3006,-3.2781,-3.3469,-3.3604,-3.3784,-3.4382,-3.3978,-3.3799,-3.4397,-3.3963,-3.3604,-3.3604,-3.3559,-3.329,-3.2632,-3.2557,-3.2287,-3.1571,-3.1526,-3.1584,-3.1584,-3.1539,-3.1894,-3.2641,-3.3319,-3.3697,-3.3646,-3.3693,-3.4063,-3.4747,-3.251,-3.1753,-3.2176,-2.9806,-2.8591,-2.8397,-2.9164,-2.7827,-2.5183,-2.5485,-2.2962,-1.8815,-1.6536,-1.2504,-0.7425,-0.3256,0.0,0.2571,0.0,0.0,0.0,0.0,0.0,0.0,0.0,0.0,0.0,0.0,0.0,0.0,0.0,-2.2523,-2.2159,-2.1757,-2.1393,-2.1192,-2.1192,-2.1741,-2.2473,-2.3355,-2.3593,-2.3811,-2.4091,-2.2968,-2.2752,0.0,0.0,-2.3239,-2.4681,-2.5175,-2.5788,-2.651,-2.651,-2.6774,-2.7203,-2.7509,0.0,0.0,-2.6752,-2.6452,-2.6258,-2.6497,-2.6437,-2.6363,-2.7245,-2.7475,-2.726,-2.755,-2.746,-2.7066,-2.6228,-2.5794,-2.539,-2.4283,-2.3789,-2.3849,0.0,0.0,0.0,0.0,0.0,-3.0402,-3.0881,-3.145,-3.1824,-3.1614,-3.1749,-3.1958,-3.2198,-3.2931,-3.344,-3.3245,-3.338,-3.3425,-3.3245,-3.338,-3.3499,-3.3499,-3.3125,-3.2766,-3.2542,-3.2138,-3.1735,-3.1497,-3.1482,-3.1482,-3.1482,-3.1482,-3.164,-3.191,-3.2586,-3.2933,-3.2933,-3.243,-3.2103,-3.1842,-3.1398,-3.0249,-2.8425,-2.7906,-2.671,-2.5177,-2.5468,-2.5429,-2.5127,-2.481,-2.2848,-1.9669,-1.6769,-1.2926,-0.8537,-0.3615,-0.0637,0.1098,0.0,0.0,0.0,0.0,0.0,0.0,0.0,0.0,0.0,-2.1317,0.0,0.0,0.0,0.0,-2.2523,-2.2334,-2.1807,-2.1568,-2.1757,-2.2125,-2.2648,-2.3262,-2.3425,-2.3438,-2.3301,-2.3084,-2.3199,0.0,0.0,0.0,0.0,-2.5788,-2.6069,-2.651,-2.651,-2.693,0.0,0.0,0.0,-2.7565,-2.6856,-2.6722,-2.6916,-2.6916,-2.6916,-2.7006,-2.7679,-2.7769,-2.7625,-2.7625,-2.7275,-2.6752,-2.5884,-2.53,-2.4762,-2.3864,-2.3595,-2.3789,-2.4687,0.0,0.0,0.0,0.0,-2.9026,-2.9475,-3.0253,-3.0746,-3.0283,-3.0717,-3.1255,-3.1437,-3.2243,-3.2766,-3.2557,-3.2691,-3.2766,-3.2542,-3.2706,-3.2841,-3.2841,-3.2452,-3.2183,-3.2183,-3.1735,-3.1482,-3.1482,-3.1482,-3.1482,-3.1482,-3.1482,-3.1582,-3.1853,-3.212,-3.2327,-3.2586,-3.1595,-3.0837,-3.0269,-2.9778,-2.8423,-2.6289,-2.607,-2.4835,-2.2999,-2.2999,-2.3446,-2.4084,-2.3433,-2.1835,-1.9479,-1.6653,-1.3228,-0.9373,-0.5415,-0.2512,-0.0431,0.0,0.0,0.0,0.0,0.0,0.0,0.0,0.0,-2.0499,-2.1791,0.0,0.0,0.0,0.0,0.0,-2.241,-2.187,-2.1782,-2.2297,-2.2334,-2.2573,-2.3053,-2.3665,-2.3715,-2.315,-2.3884,-2.435,0.0,0.0,0.0,0.0,0.0,-2.5233,-2.651,-2.6457,-2.6878,-2.7575,0.0,-2.7625,-2.7595,-2.6886,-2.7021,-2.7685,-2.7655,-2.767,-2.7724,-2.8382,-2.8203,-2.7685,-2.7655,-2.6752,-2.5689,-2.563,-2.4687,-2.3595,-2.3595,-2.3595,-2.3595,0.0,0.0,0.0,0.0,0.0,0.0,-2.919,-2.9505,-2.9535,-2.9549,-3.0028,-3.0657,-3.1287,-3.1422,-3.1689,-3.2317,-3.1928,-3.1764,-3.2392,-3.1943,-3.1482,-3.1482,-3.1482,-3.1482,-3.1482,-3.1482,-3.1482,-3.1482,-3.1482,-3.1482,-3.1482,-3.1482,-3.1853,-3.2532,-3.1838,-3.1796,-3.2532,-3.1028,-3.0254,-3.0133,-2.7538,-2.6276,-2.614,-2.4279,-2.2925,-2.1952,-2.1952,-2.1952,-2.1907,-2.1312,-1.9953,-1.8016,-1.6083,-1.3126,-0.9778,-0.8484,-0.5505,-0.2124,0.0,0.0,0.0,0.0,0.0,-2.2608,-2.2843,-2.2855,-2.3144,0.0,0.0,0.0,-2.3716,-2.3753,-2.3703,-2.354,-2.3389,-2.3188,-2.2924,-2.2912,-2.2915,-2.3065,-2.3288,-2.353,-2.3943,-2.4176,-2.4851,0.0,0.0,0.0,0.0,0.0,0.0,0.0,-2.596,-2.6122,-2.6826,-2.7357,-2.7859,-2.8248,-2.7575,-2.7993,-2.8966,-2.8502,-2.8607,-2.9056,-2.925,-2.919,-2.8951,-2.8472,-2.8068,-2.753,-2.6063,-2.4687,-2.3595,-2.3595,-2.3595,-2.3595,-2.3595,0.0,0.0,0.0,0.0,0.0,-2.7215,-2.7784,-2.8263,-2.8771,-2.9011,-2.9325,-2.9998,-3.0118,-3.0178,-3.0357,-3.1031,-3.1541,-3.1779,-3.1644,-3.1482,-3.1482,-3.1482,-3.1482,-3.1482,-3.1482,-3.1482,-3.1482,-3.1482,-3.1482,-3.1482,-3.1482,-3.1582,-3.1796,-3.1073,-3.0748,-3.0911,-2.9875,-2.8693,-2.7406,-2.6671,-2.5214,-2.3165,-2.268,-2.1886,-2.1011,-2.1011,-2.1011,-2.0964,-2.025,-1.9327,-1.8016,-1.6083,-1.3726,-1.1025,-0.884,-0.6732,-0.4788,0.0,0.0,0.0,0.0,0.0,-2.3945,-2.4042,-2.4211,-2.4456,0.0,0.0,0.0,-2.4381,-2.4343,-2.4343,-2.4343,-2.413,-2.3954,-2.3841,-2.3627,-2.3502,-2.3502,-2.3715,-2.407,-2.4635,-2.4927,-2.5658,0.0,0.0,0.0,-2.7575,-2.6549,0.0,0.0,0.0,0.0,0.0,0.0,-2.7706,-2.8562,-2.8158,-2.8786,-2.9924,-2.9535,-2.9819,-3.0357,-3.0073,-2.9968,-2.9864,-2.922,-2.8637,-2.7874,-2.6153,-2.5061,-2.4388,-2.4103,-2.4223,-2.4373,-2.4103,-2.4029,-2.4268,-2.5211,0.0,0.0,-2.6033,-2.6482,-2.6871,-2.7275,-2.7575,-2.7964,-2.8622,-2.8742,-2.8831,-2.9131,-2.9819,-3.0492,-3.1031,-3.1287,-3.1482,-3.1482,-3.1482,-3.1482,-3.1482,-3.1482,-3.1482,-3.1482,-3.1482,-3.1482,-3.1482,-3.1161,-3.1029,-3.1029,-3.0208,-2.9766,-2.9766,-2.8502,-2.7366,-2.6276,-2.5073,-2.3666,-2.1952,-2.1593,-2.1155,-2.0566,-2.0566,-2.0566,-2.0498,-1.9691,-1.8872,-1.7999,-1.6499,-1.4545,-1.2517,-1.103,-0.8931,-0.6721,0.0,0.0,-2.6302,-2.5787,-2.5636,-2.546,-2.5059,-2.4946,-2.4933,0.0,-2.4946,-2.4933,-2.4996,-2.4946,-2.4908,-2.4908,-2.4456,-2.4356,-2.4795,-2.4356,-2.4092,-2.4092,-2.4557,-2.4961,-2.5289,-2.5939,-2.6652,-2.7509,-2.7587,-2.7575,-2.7458,-2.6054,-2.5398,-2.5342,0.0,0.0,0.0,-2.6229,-2.7325,-2.8607,-2.8682,-2.943,-3.0507,-3.0582,-3.1001,-3.1392,-3.0836,-3.0612,-3.0522,-2.9894,-2.8742,-2.7415,-2.6198,-2.5734,-2.5495,-2.4911,-2.5151,-2.548,-2.4851,-2.4686,-2.5016,-2.6183,-2.5659,0.0,-2.5495,-2.5674,-2.5719,-2.5719,-2.6183,-2.6782,-2.7505,-2.7625,-2.7784,-2.8382,-2.8547,-2.9041,-3.0328,-3.1031,-3.145,-3.1467,-3.1482,-3.1482,-3.1482,-3.1482,-3.1482,-3.1482,-3.1482,-3.1482,-3.1482,-3.0718,-3.0329,-3.0329,-2.938,-2.8876,-2.8876,-2.7033,-2.6083,-2.5933,-2.3312,-2.1962,-2.1811,-2.1011,-2.0566,-2.0566,-2.0566,-2.0566,-2.0566,-1.9599,-1.8737,-1.8013,-1.7011,-1.5504,-1.3837,-1.3866,-1.1614,-0.8481,0.0,-2.6533,-2.6496,-2.6314,-2.59,-2.5724,-2.6088,-2.5749,-2.5611,-2.6076,-2.5737,-2.5624,-2.6088,-2.5724,-2.5435,-2.5435,-2.5347,-2.5159,-2.4845,-2.472,-2.4657,-2.4657,-2.4919,-2.5315,-2.6007,-2.6273,-2.6789,-2.7601,-2.7584,-2.7306,-2.6721,-2.5783,-2.5398,-2.5342,0.0,0.0,0.0,-2.6457,-2.7325,-2.8652,-2.9175,-2.9834,-3.0567,-3.112,-3.1362,-3.1452,-3.1317,-3.133,-3.1225,-3.0552,-2.9101,-2.7565,-2.726,-2.6467,-2.5585,-2.545,-2.551,-2.5585,-2.545,-2.542,-2.548,-2.5734,-2.6004,0.0,-2.5689,-2.6019,-2.6393,-2.6393,-2.6497,-2.6782,-2.7505,-2.7625,-2.767,-2.7754,-2.8233,-2.9041,-3.0328,-3.0612,-3.0911,-3.1407,-3.1482,-3.1482,-3.1482,-3.1482,-3.1482,-3.1482,-3.1482,-3.1482,-3.1482,-3.0718,-3.0329,-3.0329,-2.8748,-2.792,-2.792,-2.6158,-2.4826,-2.4002,-2.2691,-2.1593,-2.0857,-2.0712,-2.0566,-2.0566,-2.0566,-2.0566,-2.0566,-2.0401,-1.9317,-1.7766,-1.6919,-1.5285,-1.3491,-1.3796,-1.2705,-1.1156,-2.6471,-2.6533,-2.6533,-2.6533,-2.6214,-2.6126,-2.6483,-2.6214,-2.6226,-2.6791,-2.6615,-2.644,-2.6533,-2.6201,-2.6025,-2.6025,-2.5762,-2.5785,-2.6192,-2.6,-2.5833,-2.5833,-2.5716,-2.5887,-2.6546,-2.5791,-2.6242,-2.7935,-2.6958,-2.6707,-2.7034,-2.5892,-2.5397,0.0,0.0,0.0,0.0,-2.6366,-2.7325,-2.8667,-2.931,-2.9953,-3.0582,-3.127,-3.1482,-3.1482,-3.1482,-3.1482,-3.1317,-3.0372,-2.9594,-2.8921,-2.8293,-2.7859,-2.7455,-2.6782,-2.6826,-2.6946,-2.6273,-2.6093,-2.6183,-2.6497,-2.6348,0.0,0.0,-2.6093,-2.6198,-2.6512,-2.6063,-2.5809,-2.6467,-2.6318,-2.6318,-2.6976,-2.7365,-2.8278,-3.0238,-3.0507,-3.0627,-3.0986,-3.1016,-3.0896,-3.0597,-3.0552,-3.0687,-3.1001,-3.1345,-3.1482,-3.1482,-3.0329,-2.9628,-2.9628,-2.7986,-2.6879,-2.6377,-2.4969,-2.3745,-2.2776,-2.1745,-2.1078,-2.0566,-2.0566,-2.0566,-2.0566,-2.0566,-2.0566,-2.0566,-2.0566,-1.972,-1.8323,-1.7688,-1.6411,-1.4982,-1.4879,-1.3897,-1.2745,-2.6533,-2.6533,-2.6533,-2.6533,-2.6533,-2.6533,-2.6533,-2.6533,-2.6653,-2.7205,-2.7281,-2.7118,-2.6666,-2.6615,-2.6735,-2.6766,-2.6186,-2.6435,-2.7946,-2.7444,-2.7057,-2.6929,-2.6605,-2.6525,-2.668,-2.5442,-2.5867,-2.8025,-2.6624,-2.6517,-2.7506,-2.6335,-2.5847,0.0,0.0,0.0,0.0,-2.6678,-2.7621,-2.8846,-2.9505,-3.0058,-3.0582,-3.127,-3.1482,-3.1482,-3.1482,-3.1482,-3.1317,-3.0313,-3.0193,-3.0328,-2.9295,-2.925,-2.937,-2.8278,-2.8353,-2.8547,-2.7455,-2.7171,-2.726,-2.7664,-2.7066,-2.6408,0.0,0.0,0.0,-2.6378,-2.5659,-2.5136,-2.554,-2.5181,-2.5166,-2.6228,-2.6617,-2.7515,-2.9639,-3.0163,-3.0417,-3.0672,-3.0253,-2.9894,-2.9759,-2.9759,-2.9968,-3.0462,-3.115,-3.1482,-3.1482,-2.9889,-2.9002,-2.9002,-2.7351,-2.6025,-2.5004,-2.4036,-2.2999,-2.1952,-2.1078,-2.0566,-2.0566,-2.0566,-2.0566,-2.0566,-2.0566,-2.0566,-2.0566,-2.0566,-2.0089,-1.9268,-1.865,-1.7792,-1.6755,-1.6515,-1.5551,-1.4612,-2.6533,-2.6533,-2.6533,-2.6533,-2.6533,-2.6533,-2.6533,-2.6533,-2.6653,-2.7205,-2.7281,-2.7256,-2.7193,-2.7193,-2.7394,-2.7871,-2.7066,-2.7328,-2.9092,-2.8403,-2.761,-2.6929,-2.748,-2.7223,-2.6025,-2.6458,-2.6836,-2.7152,-2.7696,-2.7697,-2.7279,-2.7257,-2.7248,0.0,-2.6673,0.0,0.0,-2.8338,-2.8808,-2.952,-3.0148,-3.0447,-3.0582,-3.127,-3.1482,-3.1482,-3.1482,-3.1482,-3.1452,-3.1302,-3.0941,-3.0477,-3.0328,-2.9968,-2.9549,-2.94,-2.9415,-2.943,-2.928,-2.925,-2.9116,-2.8607,-2.8801,-2.8682,-2.6976,0.0,-2.7784,-2.6078,0.0,-2.6213,-2.5704,0.0,0.0,-2.5689,-2.6692,-2.756,-2.791,-2.8936,-3.0118,-3.1285,-2.934,-2.8562,-3.0238,-3.0402,-3.0432,-3.0492,-3.115,-3.1482,-3.1482,-2.9889,-2.9002,-2.9002,-2.7351,-2.6025,-2.5004,-2.4036,-2.2999,-2.1952,-2.1078,-2.0566,-2.0566,-2.0566,-2.0566,-2.0566,-2.0566,-2.0566,-2.0566,-2.0566,-2.0566,-2.0362,-1.9598,-1.8605,-1.7697,-1.8218,-1.8361,-1.8329,-2.6533,-2.6533,-2.642,-2.6013,-2.6239,-2.6352,-2.6013,-2.7055,-2.7745,-2.7344,-2.8134,-2.8612,-2.8273,-2.8235,-2.8543,-2.9344,-2.8712,-2.8906,-3.0363,-2.9287,-2.8428,-2.8125,-2.7611,-2.7033,-2.6242,-2.64,-2.6816,-2.7583,-2.7642,-2.8011,-2.8552,-2.7859,-2.7733,-2.811,-2.7447,0.0,-2.8038,-2.8427,-2.8981,-2.9639,-3.0253,-3.0746,-3.1135,-3.1362,-3.1482,-3.1482,-3.1482,-3.1482,-3.1422,-3.1076,-3.1001,-3.1031,-3.0627,-3.0597,-3.0642,-3.0238,-3.0118,-3.0043,-2.9684,-2.9579,-2.9609,-2.9684,-2.9355,-2.8891,-2.8427,-2.8158,-2.7874,-2.7425,0.0,0.0,0.0,0.0,0.0,0.0,-2.6393,-2.7141,-2.7565,-2.7724,-2.8487,-3.0193,-2.9086,-2.8188,-2.8233,-2.8577,-2.8801,-2.8801,-2.9804,-3.0327,-3.0207,-2.9106,-2.8392,-2.8233,-2.7095,-2.6025,-2.5004,-2.4036,-2.2999,-2.1952,-2.1078,-2.0566,-2.0566,-2.0566,-2.0566,-2.0566,-2.0566,-2.0566,-2.0566,-2.0566,-2.0566,-2.0586,-2.0191,-1.9451,-1.8504,-1.8692,-1.8732,-1.8767,-2.6533,0.0,-2.6327,-2.59,-2.6189,-2.6314,-2.59,-2.7205,-2.8072,-2.757,-2.8574,-2.9352,-2.939,-2.9656,-3.0276,-3.1497,-3.1039,-3.1171,-3.2163,-3.082,-2.9727,-2.9128,-2.8053,-2.7221,-2.6608,-2.6582,-2.6996,-2.7917,-2.8066,-2.8698,-2.9796,-2.8785,-2.8601,-2.9086,-2.8427,-2.8218,-2.8412,-2.8906,-2.9505,-3.0163,-3.0612,-3.1091,-3.1482,-3.1482,-3.1482,-3.1482,-3.1482,-3.1482,-3.1465,-3.0956,-3.112,-3.145,-3.0941,-3.1135,-3.1377,-3.0941,-3.0791,-3.0687,-3.0238,-3.0118,-3.0178,-3.0432,-2.9684,-2.8951,-2.925,-2.8547,-2.7934,-2.8248,-2.7694,0.0,0.0,0.0,-2.6033,-2.5674,0.0,-2.7111,-2.7036,-2.7096,-2.7679,-2.9146,-2.8891,-2.8068,-2.6722,-2.735,-2.7784,-2.7625,-2.8652,-2.9237,-2.9045,-2.8204,-2.7705,-2.771,-2.6905,-2.6025,-2.5004,-2.4264,-2.3294,-2.1952,-2.1298,-2.0857,-2.0566,-2.0566,-2.0566,-2.0566,-2.0566,-2.0566,-2.0566,-2.0566,-2.0566,-2.0566,-2.0566,-2.0079,-1.9482,-1.944,-1.9359,-1.9338,-2.6533,-2.6533,0.0,-2.6496,-2.6521,-2.6521,-2.6496,-2.6559,-2.6917,-2.7946,-2.8122,-2.8775,-3.0382,-3.1564,-3.2904,-3.4537,-3.4287,-3.4229,-3.4778,-3.3309,-3.1516,-2.9479,-2.9091,-2.8271,-2.6918,-2.7419,-2.7683,-2.771,-2.9386,-3.0211,-3.0257,-3.0334,-3.0447,-3.0417,-2.9804,-2.9849,-3.0417,-3.0432,-3.0851,-3.1422,-3.1437,-3.1452,-3.1482,-3.1482,-3.1482,-3.1482,-3.1482,-3.1482,-3.1482,-3.1452,-3.1452,-3.1482,-3.1452,-3.1452,-3.1482,-3.1452,-3.1437,-3.1437,-3.1422,-3.1422,-3.1315,-3.0672,-3.0028,-2.9385,-2.8771,-2.8607,-2.8382,-2.7739,-2.8098,-2.8338,-2.7715,-2.7565,-2.7096,-2.5809,-2.726,0.0,0.0,-2.732,-2.8562,-2.8622,-2.8607,-2.8068,-2.6722,-2.7784,-2.8293,-2.767,-2.8233,-2.8557,-2.8325,-2.7502,-2.7257,-2.7696,-2.6905,-2.6025,-2.5004,-2.4933,-2.3963,-2.2027,-2.1952,-2.1441,-2.0566,-2.0566,-2.0566,-2.0566,-2.0566,-2.0566,-2.0566,-2.0566,-2.0566,-2.0566,-2.0566,-2.0566,-2.0625,-2.1014,-2.1099,-2.1089,0.0,0.0,-2.6339,-2.595,-2.6201,-2.6647,-2.6954,-2.762,-2.8624,-3.008,-3.1248,-3.2878,-3.5474,-3.6062,-3.7128,-3.9283,-3.8082,-3.7389,-3.7824,-3.5213,-3.3296,-3.2637,-3.1101,-2.99,-2.8985,-2.9664,-2.982,-2.9442,-3.0524,-3.1087,-3.1087,-3.0708,-3.0746,-3.1135,-3.0058,-2.9924,-3.0507,-3.0507,-3.0642,-3.0896,-3.1287,-3.1482,-3.1482,-3.1482,-3.1482,-3.1482,-3.1482,-3.1482,-3.1482,-3.1482,-3.1482,-3.1482,-3.1482,-3.1482,-3.1482,-3.1482,-3.1482,-3.1482,-3.1482,-3.1795,-3.2018,-3.136,-3.0687,-3.0028,-2.9385,-2.8906,-2.8532,-2.8308,-2.8786,-2.9041,-2.8382,-2.8248,-2.7814,-2.6482,-2.7186,-2.738,0.0,-2.6572,-2.744,-2.7874,-2.8323,-2.8068,-2.6722,-2.7006,-2.7171,-2.6946,-2.6695,-2.664,-2.6903,-2.6484,-2.6261,-2.6304,-2.6455,-2.6314,-2.6025,-2.4696,-2.3672,-2.2999,-2.1669,-2.0934,-2.0566,-2.0566,-2.0566,-2.0566,-2.0566,-2.0566,-2.0566,-2.0566,-2.0566,-2.0566,-2.0566,-2.0566,-2.0625,-2.1064,-2.123,-2.135,-2.6596,-2.6533,-2.6408,-2.5963,-2.6377,-2.7006,-2.7685,-2.9173,-3.0624,-3.1749,-3.3661,-3.5659,-3.7795,-3.8684,-4.0001,-4.1893,-4.1059,-4.0135,-3.9427,-3.729,-3.5527,-3.4383,-3.292,-3.173,-3.0833,-3.1317,-3.1166,-3.0329,-3.1324,-3.1706,-3.1467,-3.1076,-3.1106,-3.1437,-3.0657,-3.0492,-3.0866,-3.0866,-3.0866,-3.0911,-3.136,-3.1482,-3.1482,-3.1482,-3.1482,-3.1482,-3.1482,-3.1482,-3.1482,-3.1482,-3.1482,-3.1482,-3.1482,-3.1631,-3.1839,-3.1541,-3.1646,-3.1824,-3.1541,-3.1839,-3.2063,-3.1586,-3.121,-3.0642,-2.9774,-2.9624,-2.9505,-2.9041,-2.9654,-3.0148,-2.9714,-2.9445,-2.8846,-2.753,-2.7649,-2.756,0.0,-2.6677,-2.7096,-2.7565,-2.7964,-2.7799,-2.6692,-2.6797,-2.6598,-2.5627,-2.5537,-2.5392,-2.5154,-2.5422,-2.5534,-2.5573,-2.6163,-2.6533,-2.6533,-2.485,-2.3818,-2.3514,-2.1897,-2.0934,-2.0566,-2.0566,-2.0566,-2.0566,-2.0566,-2.0566,-2.0566,-2.0566,-2.0566,-2.0566,-2.0566,-2.0566,-2.0596,-2.0889,-2.1224,-2.1628,-2.6747,-2.6546,-2.6627,-2.6627,-2.6974,-2.7666,-2.8728,-3.0989,-3.2724,-3.2909,-3.5209,-3.6996,-3.7437,-3.96,-4.1404,-4.2578,-4.3152,-4.2372,-3.9873,-3.9589,-3.8093,-3.4906,-3.453,-3.3767,-3.2399,-3.2341,-3.1705,-3.0433,-3.1782,-3.2138,-3.1482,-3.1482,-3.1482,-3.1482,-3.1482,-3.1482,-3.1482,-3.1482,-3.1482,-3.1482,-3.1467,-3.1409,-3.1409,-3.1409,-3.1409,-3.1467,-3.1482,-3.1482,-3.1482,-3.1482,-3.1482,-3.1482,-3.1511,-3.2018,-3.2392,-3.1809,-3.2048,-3.2377,-3.1691,-3.1526,-3.1511,-3.1482,-3.1482,-3.1195,-2.9924,-3.0597,-3.1135,-2.9879,-3.0642,-3.1482,-3.1482,-3.1001,-3.0133,-2.8861,-2.8592,-2.8323,-2.7715,-2.7625,-2.7625,-2.767,-2.764,-2.737,-2.6662,-2.7186,-2.649,-2.3927,-2.4776,-2.4777,-2.3382,-2.4341,-2.5123,-2.5523,-2.6138,-2.6533,-2.6533,-2.5441,-2.442,-2.3514,-2.2403,-2.1441,-2.0566,-2.0566,-2.0566,-2.0566,-2.0566,-2.0566,-2.0566,-2.0566,-2.0566,-2.0566,-2.0566,-2.0576,-2.0596,-2.0576,-2.1221,-2.2178,-2.6603,-2.7374,-2.8111,-2.8111,-2.7821,-2.8396,-3.0624,-3.2767,-3.4426,-3.516,-3.7883,-4.0182,-4.1136,-4.2517,-4.3965,-4.5253,-4.5022,-4.4511,-4.3838,-4.1968,-4.0277,-3.8931,-3.7853,-3.6505,-3.4673,-3.414,-3.3235,-3.1946,-3.1811,-3.1704,-3.1482,0.0,0.0,-3.1482,-3.1482,-3.1482,-3.1482,-3.1482,-3.1482,-3.1467,-3.0837,-3.0584,-3.0584,-3.0584,-3.0584,-3.0703,-3.1278,-3.1482,-3.1482,-3.1482,-3.1482,-3.1556,-3.2108,-3.2377,-3.2572,-3.2901,-3.2766,-3.2482,-3.2302,-3.2258,-3.2138,-3.1601,-3.1482,-3.1258,-3.0462,-3.0522,-3.0672,-3.0342,-3.0941,-3.1482,-3.1482,-3.139,-3.0851,-2.9549,-2.8487,-2.7784,-2.764,-2.7625,-2.7754,-2.8278,-2.7874,-2.737,-2.6662,-2.6718,-2.6112,-2.4549,-2.4069,-2.37,-2.3382,-2.4278,-2.4912,-2.5008,-2.5963,-2.6533,-2.6533,-2.4767,-2.3745,-2.3514,-2.1745,-2.0857,-2.0566,-2.0566,-2.0566,-2.0566,-2.0566,-2.0566,-2.0566,-2.0566,-2.0566,-2.0566,-2.0566,-2.0771,-2.1025,-2.0684,-2.168,-2.3147,-2.6929,-2.8252,-2.9829,-3.0897,-3.1529,-3.2389,-3.3931,-3.505,-3.6074,-3.7205,-3.9567,-4.0946,-4.0681,-4.2767,-4.4595,-4.5373,-4.5332,-4.505,-4.4466,-4.306,-4.1683,-4.0457,-3.9679,-3.8347,-3.6387,-3.5415,-3.4143,-3.2512,-3.2138,-3.1824,-3.1482,0.0,0.0,0.0,0.0,-3.1482,-3.1482,-3.1482,-3.1278,-3.097,-3.0464,-3.0072,0.0,-3.0133,-3.0329,-3.0389,-3.1219,-3.1482,-3.1482,-3.1482,-3.1482,-3.1644,-3.2302,-3.2706,-3.3021,-3.338,-3.344,-3.3305,-3.3021,-3.2736,-3.2422,-3.2063,-3.1958,-3.1704,-3.0731,-3.0956,-3.121,-3.0627,-3.1046,-3.1482,-3.1482,-3.1285,-3.0657,-2.937,-2.8757,-2.8248,-2.77,-2.7829,-2.8053,-2.8143,-2.8068,-2.7649,-2.6677,-2.655,-2.5702,-2.3849,-2.3971,-2.3764,-2.2985,-2.4354,-2.5059,-2.4833,-2.6352,-2.6942,-2.6533,-2.4996,-2.4026,-2.3452,-2.1527,-2.0566,-2.0566,-2.0566,-2.0566,-2.0566,-2.0566,-2.0566,-2.0566,-2.0566,-2.0566,-2.0586,-2.0781,-2.1313,-2.1908,-2.1916,-2.2674,-2.3839,-2.7809,-2.9412,-3.1588,-3.3805,-3.6125,-3.7711,-3.806,-3.8175,-3.8509,-3.9324,-4.0852,-4.1032,-3.8627,-4.1669,-4.3986,-4.418,-4.4717,-4.4631,-4.3658,-4.3434,-4.2536,-4.0741,-4.0576,-3.9589,-3.7584,-3.6207,-3.4562,-3.2647,-3.2467,-3.2093,-3.1482,0.0,0.0,0.0,0.0,0.0,-3.1482,-3.1482,-3.1029,-3.0269,-3.0208,-2.9628,-2.8939,-2.9827,-3.0133,-3.0269,-3.1161,-3.1482,-3.1482,-3.1571,-3.1601,-3.1735,-3.2542,-3.3155,-3.3649,-3.3739,-3.4098,-3.4352,-3.3784,-3.314,-3.2647,-3.2647,-3.2572,-3.2198,-3.1031,-3.1614,-3.2048,-3.0881,-3.112,-3.1482,-3.1482,-3.0971,-3.0133,-2.9026,-2.919,-2.9041,-2.7874,-2.8143,-2.8278,-2.7769,-2.8233,0.0,-2.6847,-2.6674,-2.5523,-2.2777,-2.4081,-2.4216,-2.243,-2.4268,-2.5209,-2.4833,-2.6741,-2.7419,-2.6747,-2.5597,-2.452,-2.3716,-2.1589,-2.0566,-2.0566,-2.0566,-2.0566,-2.0566,-2.0566,-2.0566,-2.0566,-2.0566,-2.0566,-2.0605,-2.1064,-2.1948,-2.3044,-2.3578,-2.4113,-2.4748,-2.9829,-3.16,-3.3278,-3.4099,-3.7325,-4.0546,-4.2704,-4.3968,-4.3916,-4.1951,-4.3531,-4.3602,-4.0423,-4.1279,-4.2511,-4.356,-4.3731,-4.4103,-4.4878,-4.3928,-4.294,-4.2058,-4.1504,-4.0277,-3.8257,-3.6432,-3.4801,-3.332,-3.2243,-3.1644,-3.1482,-3.1482,-3.1482,0.0,0.0,0.0,-3.1482,-3.1482,-3.1029,-3.0269,-2.9504,-2.8684,-2.8051,-2.8876,-2.9254,-2.9442,-3.097,-3.1482,-3.1556,-3.2153,-3.2332,-3.2557,-3.3754,-3.4203,-3.4412,-3.4996,-3.4831,-3.4442,-3.4337,-3.3829,-3.332,-3.332,-3.2916,-3.2452,-3.2213,-3.1928,-3.1644,-3.1405,-3.1392,-3.1482,-3.1482,-3.0971,-3.0432,-3.0208,-2.9385,-2.8682,-2.8457,-2.8038,-2.7919,-2.8368,-2.8532,-2.8278,-2.7414,-2.7324,-2.6218,-2.3571,-2.4048,-2.38,-2.2405,-2.3565,-2.4443,-2.4808,-2.5611,-2.6603,-2.7808,-2.5148,-2.4183,-2.4901,-2.1963,-2.0566,-2.0566,-2.0566,-2.0566,-2.0566,-2.0566,-2.0566,-2.0566,-2.0566,-2.0566,-2.0605,-2.1064,-2.214,-2.3589,-2.4941,-2.5938,-2.6747,-3.2799,-3.4029,-3.5368,-3.7122,-4.0219,-4.309,-4.5065,-4.707,-4.6991,-4.3208,-4.2785,-4.1774,-3.8703,-4.0591,-4.2154,-4.2499,-4.3356,-4.4157,-4.4698,-4.3868,-4.3195,-4.288,-4.1908,-4.0771,-3.9469,-3.6851,-3.5011,-3.4008,-3.2347,-3.1482,-3.1482,-3.1482,-3.1482,-3.1482,0.0,-3.1482,-3.1482,-3.1482,-3.0777,-2.9566,-2.9192,-2.8492,-2.7802,-2.8684,-2.9254,-2.9827,-3.1087,-3.1482,-3.1571,-3.2287,-3.2512,-3.2736,-3.4068,-3.4472,-3.4607,-3.5295,-3.5265,-3.5011,-3.5011,-3.4517,-3.4008,-3.4008,-3.3245,-3.2512,-3.2512,-3.2003,-3.1482,-3.1482,-3.1482,-3.1482,-3.1482,-3.127,-3.0911,-3.0567,-3.0298,-2.9879,-2.9205,-2.9101,-2.8966,-2.8637,-2.8906,-2.8711,-2.763,-2.788,-2.6942,-2.4191,-2.4412,-2.4138,-2.2774,-2.3816,-2.4544,-2.4808,-2.5887,-2.6728,-2.7243,-2.5838,-2.5089,-2.5078,-2.3079,-2.1821,-2.1298,-2.1298,-2.1298,-2.1298,-2.0789,-2.0857,-2.1298,-2.0789,-2.0566,-2.0713,-2.1909,-2.3234,-2.4612,-2.6314,-2.747,-2.8044,-3.5745,-3.6518,-3.7623,-4.0353,-4.3,-4.5095,-4.6157,-4.8312,-4.8301,-4.4247,-4.2288,-4.0305,-3.74,-3.9886,-4.1719,-4.1658,-4.2826,-4.3782,-4.4236,-4.3703,-4.3269,-4.3135,-4.1998,-4.101,-4.0217,-3.7255,-3.531,-3.4472,-3.2647,-3.1616,-3.1482,-3.1482,-3.1482,-3.1482,-3.1482,-3.1482,-3.1482,-3.1482,-3.0644,-2.9254,-2.9254,-2.8748,-2.8051,-2.8939,-2.969,-3.0389,-3.1219,-3.1482,-3.1571,-3.2287,-3.2602,-3.2961,-3.4277,-3.4592,-3.4607,-3.5295,-3.531,-3.5145,-3.5429,-3.4906,-3.4307,-3.4442,-3.3484,-3.2512,-3.2512,-3.2003,-3.1482,-3.1482,-3.1482,-3.1482,-3.1482,-3.1482,-3.136,-3.0806,-3.1061,-3.0956,-2.9924,-3.0088,-2.9879,-2.8742,-2.9175,-2.9056,-2.7745,-2.8085,-2.7364,-2.4948,-2.4994,-2.459,-2.315,-2.4092,-2.4695,-2.482,-2.6189,-2.6892,-2.6816,-2.6433,-2.5982,-2.5325,-2.4066,-2.3073,-2.2328,-2.2328,-2.2328,-2.2253,-2.1298,-2.1231,-2.1669,-2.0934,-2.0566,-2.079,-2.2646,-2.4122,-2.5428,-2.727,-2.8402,-2.9038,-3.8039,-3.9009,-4.0008,-4.1873,-4.4377,-4.6187,-4.6307,-4.7549,-4.7918,-4.6251,-4.4913,-4.2868,-3.9728,-3.926,-3.9855,-4.1567,-4.1293,-4.1995,-4.4139,-4.3703,-4.3075,-4.2476,-4.1773,-4.0786,-3.9544,-3.7464,-3.5759,-3.4472,-3.3095,-3.2123,-3.1482,-3.1482,-3.1482,-3.1482,-3.1482,-3.1482,-3.1482,-3.1482,-3.097,-3.0208,-3.0208,-2.9628,-2.9002,-2.9827,-3.0208,-3.0389,-3.1219,-3.1482,-3.1571,-3.2287,-3.2901,-3.3634,-3.4981,-3.4981,-3.4607,-3.5295,-3.4637,-3.3948,-3.5175,-3.4562,-3.3724,-3.4322,-3.3484,-3.2512,-3.2512,-3.2003,-3.1482,-3.1482,-3.1482,-3.1482,-3.1482,-3.1482,-3.1452,-3.145,-3.0971,-3.0552,-3.0432,-2.9983,-2.94,-2.8682,-2.9175,-2.9056,-2.7745,-2.7621,-2.7241,-2.634,-2.5729,-2.4721,-2.3198,-2.374,-2.4305,-2.4808,-2.5423,-2.6452,-2.7946,-2.6093,-2.5563,-2.6447,-2.4459,-2.3441,-2.3368,-2.3368,-2.3368,-2.3294,-2.2328,-2.1441,-2.0712,-2.0644,-2.0566,-2.0761,-2.2216,-2.3751,-2.5394,-2.687,-2.8407,-2.9628,-4.0853,-4.1215,-4.1918,-4.3787,-4.5005,-4.6112,-4.7324,-4.7952,-4.779,-4.6529,-4.4965,-4.2957,-4.0577,-3.9822,-3.9899,-4.1003,-4.1191,-4.1961,-4.3558,-4.3479,-4.321,-4.2955,-4.1938,-4.113,-4.0606,-3.7898,-3.6028,-3.51,-3.3365,-3.2183,-3.1482,-3.1482,-3.1482,-3.1482,-3.1482,-3.1691,-3.2093,-3.1646,-3.1235,-3.0834,-3.0473,-3.0072,-2.9827,-3.0147,-3.0584,-3.1087,-3.1409,-3.1482,-3.1571,-3.2287,-3.2691,-3.3066,-3.3993,-3.4113,-3.4023,-3.4681,-3.4233,-3.3694,-3.4637,-3.4203,-3.3559,-3.3829,-3.32,-3.2512,-3.2512,-3.2003,-3.1482,-3.1482,-3.1482,-3.1482,-3.1482,-3.1482,-3.1482,-3.1482,-3.13,-3.112,-3.112,-3.0552,-2.9909,-2.9265,-2.9071,-2.8449,-2.707,-2.69,-2.6766,-2.6441,-2.5381,-2.4598,-2.4318,-2.3771,-2.4042,-2.5247,-2.5184,-2.5774,-2.7105,-2.6639,-2.6402,-2.65,-2.602,-2.529,-2.4409,-2.4409,-2.4036,-2.3514,-2.3073,-2.2328,-2.1375,-2.0857,-2.0566,-2.0829,-2.286,-2.4072,-2.4952,-2.7408,-2.8672,-2.9239,-4.2638,-4.3063,-4.3778,-4.5574,-4.5888,-4.6367,-4.7773,-4.7997,-4.7629,-4.6486,-4.4826,-4.2981,-4.0967,-4.0219,-3.9894,-4.0182,-4.0726,-4.1601,-4.2725,-4.3076,-4.3165,-4.2776,-4.1878,-4.1205,-4.0816,-3.8332,-3.6626,-3.5789,-3.3978,-3.2662,-3.1824,-3.1556,-3.1482,-3.1482,-3.1734,-3.2078,-3.2497,-3.2228,-3.1871,-3.1533,-3.1095,-3.0819,-3.0644,-3.0644,-3.1029,-3.1482,-3.1482,-3.1482,-3.1541,-3.2078,-3.2228,-3.2377,-3.323,-3.3365,-3.3335,-3.3993,-3.3589,-3.3095,-3.3963,-3.3559,-3.2961,-3.3155,-3.2706,-3.2228,-3.2228,-3.1869,-3.1482,-3.1482,-3.1482,-3.1482,-3.1482,-3.1482,-3.1482,-3.1482,-3.1482,-3.1482,-3.1482,-3.1106,-3.0507,-2.9684,-2.9175,-2.8269,-2.665,-2.651,-2.654,-2.6708,-2.5625,-2.5065,-2.5467,-2.4494,-2.4504,-2.5625,-2.5441,-2.5674,-2.6521,-2.6854,-2.6841,-2.6533,-2.6854,-2.6466,-2.5441,-2.5441,-2.4921,-2.3891,-2.3661,-2.2925,-2.1962,-2.1011,-2.0789,-2.1185,-2.3307,-2.4435,-2.5315,-2.7766,-2.89,-2.9176,-4.3128,-4.4446,-4.5678,-4.704,-4.7279,-4.7294,-4.7309,-4.7309,-4.7085,-4.6426,-4.523,-4.3448,-4.1023,-4.0288,-3.9598,-3.9031,-3.9522,-4.0404,-4.1504,-4.2644,-4.2761,-4.1459,-4.1384,-4.0771,-3.9469,-3.8736,-3.7749,-3.6477,-3.5115,-3.3784,-3.2482,-3.1839,-3.1482,-3.1497,-3.2213,-3.2497,-3.2557,-3.32,-3.3095,-3.2512,-3.2512,-3.2049,-3.1482,-3.1482,-3.1482,-3.1482,-3.1482,-3.1482,-3.1482,-3.1482,-3.1482,-3.1721,-3.308,-3.3051,-3.2662,-3.332,-3.2587,-3.1839,-3.3155,-3.2557,-3.1661,-3.2362,-3.2033,-3.1482,-3.1482,-3.1482,-3.1482,-3.1482,-3.1482,-3.1482,-3.1482,-3.1482,-3.1482,-3.1482,-3.1482,-3.1482,-3.1482,-3.1467,-3.1046,-2.9729,-2.9564,-2.8758,-2.6679,-2.651,-2.6769,-2.7458,-2.6807,-2.6353,-2.6353,-2.6062,-2.5893,-2.5919,-2.6304,-2.6508,-2.6533,-2.6533,-2.6533,-2.6533,-2.6533,-2.6533,-2.6452,-2.6452,-2.5955,-2.4933,-2.3963,-2.2925,-2.1962,-2.1011,-2.1155,-2.2103,-2.3073,-2.4791,-2.6665,-2.7717,-2.8825,-2.9779,-4.4625,-4.5814,-4.68,-4.7234,-4.7309,-4.7309,-4.7309,-4.7309,-4.707,-4.6411,-4.5951,-4.4573,-4.1764,-4.0067,-3.9176,-3.8899,-3.9522,-4.0404,-4.1504,-4.2311,-4.2491,-4.2073,-4.119,-4.0516,-4.0098,-3.8542,-3.7315,-3.6492,-3.5145,-3.4038,-3.317,-3.2512,-3.2437,-3.2856,-3.2617,-3.3021,-3.3799,-3.3125,-3.2961,-3.3095,-3.2213,-3.1719,-3.1482,-3.1482,-3.1482,-3.1482,-3.1482,-3.1482,-3.1482,-3.1482,-3.1482,-3.1541,-3.2018,-3.2018,-3.1973,-3.2632,-3.2213,-3.1719,-3.2587,-3.2198,-3.1526,-3.1735,-3.1631,-3.1482,-3.1482,-3.1482,-3.1482,-3.1482,-3.1482,-3.1482,-3.1482,-3.1482,-3.1482,-3.1482,-3.1482,-3.1317,-3.0896,-3.0462,-2.9879,-2.9011,-2.8066,-2.7169,-2.6358,-2.6358,-2.6834,-2.7931,-2.7839,-2.7712,-2.7684,-2.6606,-2.6166,-2.6422,-2.6047,-2.6063,-2.6533,-2.6829,-2.6829,-2.6533,-2.7218,-2.7381,-2.703,-2.7406,-2.7026,-2.5968,-2.5349,-2.426,-2.2925,-2.1962,-2.1735,-2.2103,-2.3147,-2.4572,-2.6187,-2.7569,-2.8574,-2.9264,-4.4514,-4.6062,-4.7309,-4.7309,-4.7309,-4.7219,-4.698,-4.656,-4.5944,-4.5043,-4.4555,-4.3415,-4.1266,-3.9594,-3.8648,-3.8859,-3.9522,-4.0134,-4.0561,-4.1733,-4.1978,-4.1056,-4.0666,-4.0292,-4.0038,-3.8796,-3.7719,-3.6836,-3.525,-3.4143,-3.3484,-3.308,-3.2961,-3.3125,-3.3215,-3.344,-3.3724,-3.338,-3.32,-3.3051,-3.2228,-3.1691,-3.1482,-3.1482,-3.1482,-3.1511,-3.1824,-3.1898,-3.1898,-3.1898,-3.1898,-3.1795,-3.1556,-3.1482,-3.1556,-3.2018,-3.1854,-3.1556,-3.2033,-3.1795,-3.1482,-3.1482,-3.1482,-3.1482,-3.1482,-3.1482,-3.1482,-3.1482,-3.1482,-3.1482,-3.1482,-3.1482,-3.1482,-3.1482,-3.1482,-3.13,-3.0597,-3.0178,-2.9486,-2.8311,-2.7603,-2.6819,-2.5877,-2.656,-2.7393,-2.8158,-2.9043,-2.9446,-2.9156,-2.7956,-2.74,-2.7693,-2.6869,-2.6601,-2.6973,-2.7,-2.6904,-2.6779,-2.7469,-2.772,-2.7595,-2.7733,-2.7532,-2.7092,-2.6421,-2.5215,-2.3731,-2.2938,-2.2677,-2.2907,-2.3771,-2.528,-2.7078,-2.8051,-2.8775,-2.9378,-4.3324,-4.5526,-4.7234,-4.7234,-4.7234,-4.704,-4.6426,-4.5258,-4.4036,-4.2781,-4.1635,-4.0623,-3.9954,-3.9006,-3.8501,-3.9044,-3.9584,-3.9637,-3.8987,-4.112,-4.1299,-3.8991,-3.9786,-4.0053,-3.9424,-3.9364,-3.8691,-3.7345,-3.5459,-3.4233,-3.3634,-3.3544,-3.3185,-3.2706,-3.3844,-3.3679,-3.2662,-3.3844,-3.3634,-3.2512,-3.2467,-3.2078,-3.1482,-3.1482,-3.1482,-3.1556,-3.2228,-3.2482,-3.2512,-3.2512,-3.2512,-3.2422,-3.1795,-3.1541,-3.1482,-3.1482,-3.1482,-3.1482,-3.1482,-3.1482,-3.1482,-3.1482,-3.1482,-3.1482,-3.1482,-3.1482,-3.1482,-3.1482,-3.1482,-3.1482,-3.1482,-3.1482,-3.1482,-3.1482,-3.1437,-3.1225,-3.0537,-3.0376,-2.9622,-2.77,-2.7937,-2.7467,-2.5488,-2.7165,-2.8352,-2.8363,-3.0309,-3.1255,-3.0612,-2.9914,-2.9507,-2.939,-2.8271,-2.7683,-2.7802,-2.6969,-2.6816,-2.7394,-2.7356,-2.7632,-2.8147,-2.767,-2.7695,-2.8036,-2.7112,-2.5901,-2.4408,-2.3935,-2.4015,-2.4495,-2.4968,-2.6629,-2.8925,-2.8925,-2.9289,-2.9934,-4.2692,-4.4772,-4.6561,-4.6561,-4.6561,-4.6501,-4.6352,-4.4892,-4.3546,-4.2723,-4.2353,-4.1596,-4.0055,-4.039,-4.0859,-4.0929,-4.0315,-3.9637,-3.9001,-4.0619,-4.1159,-4.0039,-3.9757,-3.9574,-3.9424,-3.8901,-3.8003,-3.6701,-3.5729,-3.5175,-3.5011,-3.3978,-3.3679,-3.3978,-3.329,-3.308,-3.3245,-3.3066,-3.2796,-3.2467,-3.1958,-3.1616,-3.1482,-3.1482,-3.1482,-3.1497,-3.1704,-3.2093,-3.2512,-3.2512,-3.2512,-3.2572,-3.2916,-3.2332,-3.1482,-3.1482,-3.1482,-3.1482,-3.1482,-3.1482,-3.1482,-3.1482,-3.1482,-3.1482,-3.1482,-3.1482,-3.1482,-3.1482,-3.1482,-3.1482,-3.1482,-3.1482,-3.1482,-3.1482,-3.1091,-3.0522,-2.9894,-2.9248,-2.8479,-2.7449,-2.7399,-2.745,-2.7332,-2.8446,-2.9333,-2.974,-3.0881,-3.1407,-3.13,-3.1589,-3.1249,-3.0113,-2.8552,-2.7947,-2.845,-2.7544,-2.7582,-2.8536,-2.8109,-2.8197,-2.875,-2.9063,-2.88,-2.8134,-2.8313,-2.7466,-2.6035,-2.5925,-2.5902,-2.6047,-2.6165,-2.7327,-2.8925,-2.8925,-2.9289,-2.9934,-4.3287,-4.4676,-4.5963,-4.6277,-4.6067,-4.5675,-4.5135,-4.3473,-4.1843,-4.0687,-4.0517,-4.0129,-3.921,-3.9596,-4.0204,-4.0746,-4.0746,-4.0393,-3.9843,-4.0818,-4.0919,-3.9694,-3.9534,-3.9424,-3.9424,-3.905,-3.8212,-3.6911,-3.5968,-3.534,-3.5026,-3.4292,-3.3814,-3.3559,-3.3155,-3.2826,-3.2602,-3.2542,-3.2332,-3.2033,-3.1616,-3.1482,-3.1482,-3.1482,-3.1719,-3.2018,-3.2317,-3.2856,-3.341,-3.341,-3.341,-3.3425,-3.3484,-3.3006,-3.2422,-3.2422,-3.2003,-3.1482,-3.1482,-3.1482,-3.1482,-3.1482,-3.1482,-3.1482,-3.1482,-3.1482,-3.1482,-3.1482,-3.1482,-3.1482,-3.1482,-3.1482,-3.1377,-3.1106,-3.1016,-3.0657,-2.9714,-2.911,-2.8397,-2.74,-2.7708,-2.8023,-2.799,-2.9628,-3.0675,-3.0733,-3.2062,-3.2617,-3.2018,-3.2507,-3.2119,-3.0729,-2.9679,-2.9067,-2.9059,-2.8375,-2.8335,-2.8925,-2.8624,-2.8775,-2.9327,-2.9377,-2.9202,-2.8888,-2.9189,-2.8433,-2.7059,-2.7222,-2.7174,-2.6995,-2.7222,-2.8151,-2.9327,-2.9327,-2.9796,-3.0558,-4.3784,-4.454,-4.5236,-4.565,-4.5263,-4.4512,-4.3358,-4.1551,-3.9815,-3.8264,-3.8107,-3.8107,-3.8107,-3.8289,-3.8827,-3.9812,-4.0916,-4.1313,-4.0775,-4.0989,-4.0418,-3.8885,-3.8883,-3.8899,-3.8796,-3.8763,-3.818,-3.7035,-3.6022,-3.516,-3.4472,-3.4382,-3.3679,-3.2542,-3.2991,-3.2587,-3.1511,-3.2138,-3.2048,-3.1482,-3.1482,-3.1482,-3.1482,-3.1482,-3.1943,-3.2587,-3.314,-3.3769,-3.4322,-3.4322,-3.4322,-3.4247,-3.3784,-3.3574,-3.3514,-3.3619,-3.2781,-3.1824,-3.1824,-3.1764,-3.1616,-3.1616,-3.1616,-3.1616,-3.1616,-3.1616,-3.1601,-3.1497,-3.1482,-3.1482,-3.1482,-3.1482,-3.1345,-3.0746,-3.1061,-3.0929,-2.9699,-2.929,-2.8675,-2.7404,-2.8388,-2.8926,-2.8371,-3.0791,-3.2179,-3.1613,-3.3277,-3.3767,-3.2526,-3.2888,-3.2419,-3.0998,-3.071,-3.0173,-2.9314,-2.8956,-2.8888,-2.9051,-2.8976,-2.9239,-2.9779,-2.9289,-2.9327,-2.9792,-2.9792,-2.8978,-2.777,-2.8114,-2.7993,-2.7661,-2.8023,-2.8814,-2.9679,-2.9767,-3.0419,-3.1315,-4.1285,-4.3009,-4.4139,-4.335,-4.3094,-4.2596,-4.1439,-3.9671,-3.8381,-3.8121,-3.8107,-3.8107,-3.8107,-3.9006,-3.9724,-3.9899,-4.0916,-4.1313,-4.0694,-4.0235,-3.9677,-3.8808,-3.7423,-3.6445,-3.6045,-3.5812,-3.5604,-3.5401,-3.5422,-3.516,-3.4472,-3.3903,-3.3245,-3.2497,-3.2033,-3.1661,-3.1482,-3.1586,-3.1571,-3.1482,-3.1482,-3.1482,-3.1482,-3.1482,-3.1943,-3.2527,-3.2632,-3.3095,-3.3649,-3.3649,-3.3649,-3.3724,-3.4188,-3.3948,-3.3604,-3.4158,-3.3784,-3.3185,-3.3185,-3.2781,-3.2362,-3.2362,-3.2362,-3.2362,-3.2362,-3.2362,-3.2198,-3.1644,-3.1482,-3.1482,-3.1482,-3.1482,-3.1437,-3.1332,-3.0971,-3.0357,-2.945,-2.8714,-2.8071,-2.7601,-2.8882,-2.9955,-3.0347,-3.2168,-3.3255,-3.3136,-3.3453,-3.322,-3.2217,-3.2796,-3.2269,-3.0401,-2.9861,-2.9418,-2.8999,-2.8497,-2.8712,-2.9654,-2.9164,-2.9239,-2.9792,-2.9691,-2.9704,-2.9792,-2.9792,-2.9376,-2.8699,-2.8774,-2.8487,-2.8051,-2.8599,-2.89,-2.9114,-2.9616,-3.0419,-3.1315,-4.0755,-4.1395,-4.1895,-4.1679,-4.1381,-4.0834,-3.9983,-3.8829,-3.7848,-3.7243,-3.7769,-3.7848,-3.7243,-3.8211,-3.8917,-3.8917,-3.9972,-4.0788,-4.1087,-4.0328,-3.9664,-3.9376,-3.7049,-3.5543,-3.4962,-3.4489,-3.4526,-3.5033,-3.4782,-3.4454,-3.3933,-3.3634,-3.2961,-3.1973,-3.1616,-3.1482,-3.1482,-3.1482,-3.1482,-3.1482,-3.1482,-3.1482,-3.1482,-3.1482,-3.1943,-3.2557,-3.2916,-3.3245,-3.3604,-3.4337,-3.4337,-3.4143,-3.4816,-3.4816,-3.4637,-3.4936,-3.4307,-3.3499,-3.3499,-3.3021,-3.2602,-3.2961,-3.2781,-3.2602,-3.2961,-3.3036,-3.2961,-3.2647,-3.2587,-3.2587,-3.2587,-3.2302,-3.2063,-3.2063,-3.1495,-3.0889,-3.0528,-3.005,-2.9659,-2.9559,-3.0825,-3.1792,-3.2075,-3.3592,-3.4427,-3.4053,-3.4367,-3.4002,-3.2702,-3.278,-3.2206,-3.0784,-2.9986,-2.9553,-2.939,-2.9139,-2.9277,-2.9792,-2.9528,-2.9528,-2.9792,-2.9792,-2.9792,-2.9792,-2.9792,-2.9465,-2.8925,-2.8925,-2.8599,-2.8134,-2.8386,-2.8662,-2.9038,-2.9804,-3.0869,-3.2105,-4.0193,-4.0013,-3.995,-4.0111,-3.9823,-3.9243,-3.8622,-3.8044,-3.7415,-3.6546,-3.715,-3.7415,-3.6546,-3.715,-3.7678,-3.7678,-3.8827,-3.9871,-4.0718,-3.9657,-3.9126,-3.9382,-3.6387,-3.4448,-3.3851,-3.3451,-3.3654,-3.4454,-3.412,-3.3806,-3.3499,-3.3499,-3.2796,-3.1482,-3.1482,-3.1482,-3.1482,-3.1482,-3.1482,-3.1482,-3.1482,-3.1482,-3.1482,-3.1482,-3.1943,-3.2602,-3.326,-3.3499,-3.3679,-3.4861,-3.4921,-3.4562,-3.51,-3.537,-3.5504,-3.5504,-3.4771,-3.3918,-3.3769,-3.3365,-3.3095,-3.3589,-3.335,-3.3095,-3.3604,-3.3724,-3.3679,-3.3529,-3.3499,-3.3499,-3.3499,-3.308,-3.2691,-3.2542,-3.2213,-3.187,-3.1456,-3.1448,-3.1493,-3.1525,-3.2507,-3.3339,-3.3561,-3.4779,-3.5355,-3.4966,-3.5219,-3.4721,-3.3297,-3.2721,-3.2031,-3.1104,-3.0203,-2.9792,-2.9792,-2.9792,-2.9792,-2.9792,-2.9792,-2.9792,-2.9792,-2.9792,-2.9792,-2.9792,-2.9792,-2.939,-2.8737,-2.8737,-2.8335,-2.7733,-2.7871,-2.8306,-2.8918,-2.998,-3.1392,-3.2849,-3.8264,-3.9121,-3.9563,-3.8522,-3.8225,-3.7861,-3.6772,-3.6572,-3.6546,-3.6452,-3.6452,-3.6452,-3.6452,-3.6452,-3.6534,-3.6534,-3.7586,-3.8289,-3.8366,-3.7363,-3.7223,-3.8297,-3.4538,-3.2187,-3.163,-3.1967,-3.2361,-3.2818,-3.3616,-3.3806,-3.3499,-3.3499,-3.2796,-3.1482,-3.1482,-3.1482,-3.1482,-3.1482,-3.1482,-3.1482,-3.1482,-3.1482,-3.1482,-3.1482,-3.1943,-3.2602,-3.326,-3.3499,-3.3604,-3.4307,-3.4517,-3.4487,-3.4532,-3.4996,-3.5504,-3.5504,-3.5429,-3.522,-3.4577,-3.4367,-3.4337,-3.4382,-3.4367,-3.4352,-3.4397,-3.4412,-3.4233,-3.3619,-3.3499,-3.3499,-3.3499,-3.3455,-3.3215,-3.2617,-3.2976,-3.2852,-3.1438,-3.1714,-3.2239,-3.2668,-3.299,-3.3619,-3.4788,-3.523,-3.5744,-3.6297,-3.5502,-3.454,-3.3598,-3.261,-3.1615,-3.0691,-3.0133,-2.9792,-2.9792,-2.9792,-2.9792,-2.9792,-2.9792,-2.9792,-2.9792,-2.9792,-2.9792,-2.9792,-2.9792,-2.9176,-2.816,-2.816,-2.7544,-2.6697,-2.7143,-2.7812,-2.8681,-2.9953,-3.15,-3.3145,-3.707,-3.7428,-3.7599,-3.7163,-3.707,-3.6883,-3.6452,-3.6358,-3.6358,-3.6358,-3.6358,-3.6358,-3.6358,-3.6358,-3.6219,-3.5881,-3.6884,-3.758,-3.758,-3.6584,-3.5521,-3.4546,-3.302,-3.18,-3.0922,-3.1067,-3.1343,-3.1742,-3.2664,-3.2962,-3.2616,-3.3223,-3.2796,-3.1482,-3.1482,-3.1482,-3.1482,-3.1482,-3.1482,-3.1482,-3.1482,-3.1482,-3.1482,-3.1482,-3.1943,-3.2602,-3.326,-3.3499,-3.3664,-3.4741,-3.4831,-3.4547,-3.4981,-3.5295,-3.5504,-3.5504,-3.5504,-3.5444,-3.519,-3.4801,-3.4577,-3.5011,-3.4801,-3.4592,-3.5026,-3.5115,-3.504,-3.4801,-3.4741,-3.4741,-3.4741,-3.4397,-3.4158,-3.4337,-3.3873,-3.3406,-3.3277,-3.3819,-3.4147,-3.3879,-3.4655,-3.5252,-3.5341,-3.58,-3.5926,-3.5521,-3.5522,-3.4834,-3.3167,-3.2202,-3.1449,-3.1097,-3.0583,-3.0306,-3.0306,-3.0306,-3.0131,-2.9792,-2.9792,-2.9792,-2.9792,-2.9792,-2.9792,-2.9869,-3.0419,-3.0255,-2.96,-3.0135,-2.9709,-2.8705,-2.9362,-2.9713,-3.0079,-3.161,-3.2798,-3.3792,-3.6358,-3.6358,-3.6358,-3.6358,-3.6358,-3.6358,-3.6358,-3.6358,-3.6358,-3.6358,-3.6358,-3.6358,-3.6358,-3.6358,-3.6144,-3.5592,-3.6224,-3.6662,-3.648,-3.557,-3.4281,-3.2528,-3.2478,-3.1976,-3.0884,-3.0859,-3.093,-3.118,-3.2177,-3.2499,-3.2457,-3.3395,-3.3095,-3.1839,-3.1839,-3.1676,-3.1482,-3.1482,-3.1482,-3.1482,-3.1482,-3.1482,-3.1482,-3.1482,-3.1943,-3.2602,-3.326,-3.3634,-3.3978,-3.5115,-3.519,-3.4876,-3.5355,-3.5504,-3.5504,-3.5504,-3.5504,-3.5504,-3.5504,-3.531,-3.5175,-3.5444,-3.5145,-3.4921,-3.54,-3.5504,-3.5564,-3.5774,-3.5804,-3.5863,-3.6073,-3.5714,-3.5489,-3.5774,-3.5205,-3.4816,-3.507,-3.5684,-3.5998,-3.5744,-3.6342,-3.6671,-3.6432,-3.6626,-3.6565,-3.602,-3.5841,-3.4796,-3.2709,-3.2034,-3.165,-3.165,-3.1298,-3.1035,-3.0859,-3.0532,-3.0168,-2.9792,-2.9792,-2.9792,-2.9792,-2.9792,-2.9792,-2.9856,-3.0758,-3.0863,-3.0493,-3.1431,-3.1237,-3.0363,-3.0846,-3.1065,-3.1415,-3.2715,-3.3645,-3.4266,-3.6452,-3.6452,-3.6358,-3.6452,-3.6452,-3.6358,-3.6358,-3.6358,-3.6358,-3.6358,-3.6358,-3.6358,-3.6358,-3.6358,-3.6144,-3.5592,-3.5542,-3.5303,-3.4751,-3.4198,-3.3658,-3.3106,-3.3081,-3.2554,-3.1411,-3.1386,-3.1299,-3.118,-3.2177,-3.2807,-3.3134,-3.4076,-3.3784,-3.2527,-3.2527,-3.2153,-3.1482,-3.1482,-3.1482,-3.1482,-3.1482,-3.1482,-3.1482,-3.1482,-3.1943,-3.2617,-3.326,-3.3918,-3.4592,-3.528,-3.5504,-3.5504,-3.5504,-3.5504,-3.5504,-3.5504,-3.5504,-3.5519,-3.5519,-3.5998,-3.6327,-3.5669,-3.5519,-3.5519,-3.5519,-3.5519,-3.5699,-3.6357,-3.6492,-3.6671,-3.73,-3.7404,-3.721,-3.6596,-3.7,-3.7195,-3.6582,-3.703,-3.7659,-3.8302,-3.7808,-3.7674,-3.8317,-3.7793,-3.7689,-3.8332,-3.6493,-3.4418,-3.2298,-3.2215,-3.2227,-3.2227,-3.2215,-3.1951,-3.1399,-3.0331,-2.9804,-2.9804,-2.9792,-2.9792,-2.9804,-2.9804,-2.9792,-2.9856,-3.0846,-3.095,-3.0506,-3.1445,-3.1487,-3.1013,-3.1013,-3.1542,-3.2291,-3.2992,-3.3789,-3.4577,-3.7415,-3.6977,-3.6628,-3.7415,-3.6883,-3.6358,-3.6358,-3.6358,-3.6358,-3.6358,-3.6358,-3.6358,-3.6358,-3.6358,-3.6144,-3.5592,-3.519,-3.4562,-3.3633,-3.3771,-3.3658,-3.3106,-3.3081,-3.2554,-3.1411,-3.1386,-3.1006,-3.0203,-3.1829,-3.243,-3.2067,-3.3709,-3.4023,-3.32,-3.32,-3.2841,-3.2213,-3.2213,-3.1958,-3.1482,-3.1482,-3.1482,-3.1526,-3.2048,-3.2632,-3.329,-3.3948,-3.4622,-3.5235,-3.5429,-3.5504,-3.5504,-3.5504,-3.5504,-3.5504,-3.5504,-3.5833,-3.6193,-3.6193,-3.6656,-3.6866,-3.5774,-3.6178,-3.6731,-3.6297,-3.6193,-3.6372,-3.7,-3.6791,-3.6671,-3.73,-3.7404,-3.7345,-3.7165,-3.7285,-3.7345,-3.7165,-3.7689,-3.8003,-3.7734,-3.7943,-3.8003,-3.7719,-3.7252,-3.7099,-3.7288,-3.5806,-3.4645,-3.4001,-3.3216,-3.2817,-3.2817,-3.2051,-3.1738,-3.1964,-3.0909,-3.0369,-3.0369,-2.998,-2.9993,-3.0369,-3.0369,-3.0156,-2.9907,-3.2417,-3.2845,-3.2102,-3.4257,-3.4427,-3.3475,-3.3944,-3.405,-3.3917,-3.4584,-3.4981,-3.5235,-3.7322,-3.6896,-3.6628,-3.7322,-3.6896,-3.6358,-3.6358,-3.6358,-3.6358,-3.6358,-3.6358,-3.6358,-3.6358,-3.6358,-3.6144,-3.5592,-3.5039,-3.4502,-3.411,-3.3958,-3.3808,-3.3738,-3.3313,-3.2654,-3.1738,-3.1499,-3.1187,-3.0676,-3.195,-3.2555,-3.2609,-3.417,-3.4382,-3.3499,-3.3499,-3.2976,-3.2123,-3.2123,-3.1898,-3.1482,-3.1482,-3.1631,-3.1958,-3.2362,-3.308,-3.3933,-3.4322,-3.4921,-3.5504,-3.5504,-3.5504,-3.5504,-3.5504,-3.5504,-3.5504,-3.5504,-3.5968,-3.6492,-3.6492,-3.712,-3.7554,-3.6522,-3.6836,-3.7315,-3.6941,-3.6851,-3.703,-3.7674,-3.7509,-3.7434,-3.8078,-3.8197,-3.8197,-3.8197,-3.8197,-3.8197,-3.8197,-3.8542,-3.8661,-3.8257,-3.8556,-3.8646,-3.8242,-3.7942,-3.7461,-3.6594,-3.6189,-3.5534,-3.4746,-3.4108,-3.3713,-3.3713,-3.2427,-3.1876,-3.2215,-3.1348,-3.0821,-3.062,-3.0482,-3.0495,-3.062,-3.0834,-3.0972,-3.1216,-3.3436,-3.4071,-3.3706,-3.5648,-3.5863,-3.4921,-3.534,-3.525,-3.4936,-3.5355,-3.5669,-3.5863,-3.6534,-3.6452,-3.6452,-3.6534,-3.6452,-3.6358,-3.6358,-3.6358,-3.6358,-3.6358,-3.6358,-3.6358,-3.6358,-3.6358,-3.6157,-3.5667,-3.5115,-3.4984,-3.5398,-3.4497,-3.4081,-3.4603,-3.3666,-3.283,-3.2303,-3.17,-3.1567,-3.1961,-3.2391,-3.3101,-3.4027,-3.5052,-3.4861,-3.3679,-3.3619,-3.2886,-3.1646,-3.1586,-3.1526,-3.1482,-3.1482,-3.1898,-3.2437,-3.2557,-3.335,-3.4412,-3.4532,-3.4966,-3.5504,-3.5504,-3.5504,-3.5519,-3.5579,-3.5594,-3.5609,-3.5654,-3.6133,-3.6656,-3.6656,-3.7554,-3.8332,-3.7734,-3.7584,-3.7569,-3.7509,-3.7494,-3.7689,-3.8347,-3.8437,-3.8601,-3.929,-3.9424,-3.9424,-3.9424,-3.9424,-3.9424,-3.9424,-3.9424,-3.9424,-3.9424,-3.9424,-3.9424,-3.9424,-3.9424,-3.8531,-3.6526,-3.7266,-3.6958,-3.4979,-3.4746,-3.4664,-3.4594,-3.2982,-3.224,-3.229,-3.1738,-3.1223,-3.0771,-3.1185,-3.1173,-3.0771,-3.1317,-3.214,-3.3091,-3.4238,-3.4832,-3.5117,-3.623,-3.6207,-3.5504,-3.5564,-3.5549,-3.5519,-3.5564,-3.5968,-3.6417,-3.7586,-3.6977,-3.6722,-3.7586,-3.6977,-3.6358,-3.6358,-3.6358,-3.6358,-3.6358,-3.6358,-3.6358,-3.6358,-3.6358,-3.632,-3.6194,-3.568,-3.5219,-3.492,-3.4212,-3.3922,-3.4045,-3.3467,-3.3018,-3.2893,-3.1901,-3.1567,-3.1961,-3.2391,-3.3101,-3.4027,-3.5052,-3.5355,-3.504,-3.4502,-3.3814,-3.3036,-3.2527,-3.2003,-3.1482,-3.1482,-3.1556,-3.1795,-3.2886,-3.3455,-3.3844,-3.4906,-3.5385,-3.5504,-3.5504,-3.5504,-3.5594,-3.6118,-3.6267,-3.6372,-3.6851,-3.7464,-3.7973,-3.7973,-3.8571,-3.917,-3.902,-3.899,-3.8841,-3.8302,-3.8182,-3.8362,-3.905,-3.8766,-3.8601,-3.929,-3.9424,-3.9424,-3.9424,-3.9424,-3.9424,-3.9424,-3.9424,-3.9424,-3.9424,-3.9424,-3.9424,-3.9424,-3.9424,-3.887,-3.7587,-3.7663,-3.7266,-3.5974,-3.5129,-3.4275,-3.3471,-3.2672,-3.2428,-3.288,-3.2315,-3.1976,-3.1863,-3.1549,-3.1562,-3.1863,-3.283,-3.3185,-3.3144,-3.5899,-3.6255,-3.5189,-3.7164,-3.7,-3.5549,-3.6073,-3.5953,-3.5564,-3.6088,-3.6372,-3.6537,-3.715,-3.6803,-3.6628,-3.715,-3.6803,-3.6358,-3.6358,-3.6358,-3.6358,-3.6358,-3.6358,-3.6358,-3.6358,-3.6358,-3.6358,-3.6358,-3.6094,-3.5705,-3.5152,-3.46,-3.4173,-3.3909,-3.337,-3.3081,-3.3081,-3.2227,-3.1962,-3.2369,-3.2812,-3.3311,-3.4027,-3.5052,-3.5325,-3.4996,-3.4637,-3.4113,-3.3455,-3.2796,-3.2497,-3.2437,-3.2123,-3.2377,-3.3021,-3.3709,-3.4173,-3.4547,-3.525,-3.5504,-3.5504,-3.5504,-3.5504,-3.5564,-3.5908,-3.6237,-3.6552,-3.6881,-3.7644,-3.8392,-3.8392,-3.8901,-3.9424,-3.9424,-3.9424,-3.9334,-3.896,-3.8886,-3.899,-3.9349,-3.9125,-3.899,-3.9349,-3.9424,-3.9424,-3.9424,-3.9424,-3.9424,-3.9424,-3.9424,-3.9424,-3.9424,-3.9424,-3.9424,-3.9424,-3.9424,-3.8943,-3.7904,-3.7829,-3.7343,-3.629,-3.5292,-3.4428,-3.3869,-3.3107,-3.2767,-3.3081,-3.278,-3.2857,-3.3405,-3.2566,-3.251,-3.2993,-3.3826,-3.466,-3.5418,-3.7073,-3.7316,-3.6737,-3.7883,-3.7599,-3.6447,-3.6791,-3.6716,-3.6462,-3.6806,-3.6926,-3.7015,-3.6358,-3.6358,-3.6358,-3.6358,-3.6358,-3.6358,-3.6358,-3.6358,-3.6358,-3.6358,-3.6358,-3.6358,-3.6358,-3.6358,-3.6358,-3.6358,-3.6358,-3.6169,-3.5717,-3.5165,-3.4663,-3.4198,-3.3558,-3.3219,-3.3219,-3.2654,-3.2549,-3.2975,-3.3211,-3.3612,-3.4358,-3.506,-3.5225,-3.4801,-3.4577,-3.411,-3.3419,-3.2781,-3.2765,-3.324,-3.2721,-3.323,-3.4322,-3.4442,-3.4831,-3.534,-3.5459,-3.5504,-3.5504,-3.5504,-3.5504,-3.5549,-3.5774,-3.6207,-3.6686,-3.6926,-3.7734,-3.8556,-3.8556,-3.899,-3.9424,-3.9424,-3.9424,-3.9424,-3.9424,-3.9424,-3.9424,-3.9424,-3.9424,-3.9424,-3.9424,-3.9424,-3.9424,-3.9424,-3.9424,-3.9424,-3.9424,-3.9424,-3.9424,-3.9424,-3.9424,-3.9424,-3.9424,-3.9424,-3.8943,-3.7904,-3.7994,-3.7434,-3.6053,-3.5278,-3.4815,-3.4428,-3.3556,-3.3081,-3.3081,-3.3081,-3.3641,-3.4664,-3.3797,-3.3695,-3.4233,-3.4915,-3.6174,-3.7829,-3.7994,-3.8165,-3.8407,-3.8512,-3.8108,-3.7419,-3.7539,-3.7509,-3.7419,-3.7539,-3.7644,-3.7823,-3.6358,-3.6358,-3.6358,-3.6358,-3.6358,-3.6358,-3.6358,-3.6358,-3.6358,-3.6358,-3.6358,-3.6358,-3.6358,-3.6358,-3.6358,-3.6358,-3.6358,-3.6332,-3.6257,-3.573,-3.5403,-3.5328,-3.4336,-3.3784,-3.3784,-3.3244,-3.3161,-3.3607,-3.308,-3.3799,-3.5597,-3.5206,-3.5429,-3.6163,-3.4996,-3.4016,-3.3129,-3.2716,-3.2431,-3.2289,-3.245,-3.2961,-3.3694,-3.4262,-3.4532,-3.4696,-3.5295,-3.5504,-3.5504,-3.5504,-3.5504,-3.5699,-3.6806,-3.721,-3.7524,-3.8676,-3.914,-3.9275,-3.9275,-3.9349,-3.9424,-3.9424,-3.9424,-3.9424,-3.9424,-3.9424,-3.9424,-3.9424,-3.9424,-3.9424,-3.9424,-3.9424,-3.9424,-3.9424,-3.9424,-3.9424,-3.9424,-3.9424,-3.9424,-3.9424,-3.9424,-3.9424,-3.9424,-3.9424,-3.8943,-3.7904,-3.8634,-3.7919,-3.5061,-3.5588,-3.5197,-3.3398,-3.3154,-3.3081,-3.3081,-3.3081,-3.3641,-3.4664,-3.4594,-3.5007,-3.5929,-3.6901,-3.751,-3.7829,-3.8782,-3.8877,-3.8437,-3.9035,-3.8542,-3.7464,-3.8033,-3.7913,-3.7479,-3.8048,-3.8631,-3.9155,-3.6358,-3.6358,-3.6358,-3.6358,-3.6358,-3.6358,-3.6358,-3.6358,-3.6358,-3.6358,-3.6358,-3.6358,-3.6358,-3.6358,-3.6358,-3.6358,-3.6081,-3.6031,-3.6345,-3.5265,-3.4763,-3.5077,-3.4035,-3.3432,-3.3432,-3.3206,-3.3199,-3.3341,-3.331,-3.3619,-3.419,-3.4638,-3.516,-3.5561,-3.5198,-3.4558,-3.3552,-3.2684,-3.2634,-3.3105,-3.2538,-3.3277,-3.4651,-3.4936,-3.5055,-3.5145,-3.5818,-3.5818,-3.5564,-3.5923,-3.5804,-3.5669,-3.6596,-3.7135,-3.7599,-3.8556,-3.9125,-3.9424,-3.9424,-3.9424,-3.9424,-3.9424,-3.9424,-3.9424,-3.9424,-3.9424,-3.9424,-3.9424,-3.9424,-3.9424,-3.9424,-3.9723,-3.9963,-3.9963,-4.0277,-4.0382,-4.0023,-3.9963,-3.9963,-3.9963,-4.0292,-4.0367,-4.0008,-3.9963,-3.9343,-3.7933,-3.7648,-3.6788,-3.4828,-3.4581,-3.4011,-3.3154,-3.3081,-3.3081,-3.3081,-3.3713,-3.4498,-3.5507,-3.616,-3.6632,-3.7098,-3.7587,-3.8144,-3.8708,-3.9177,-3.9245,-3.899,-3.929,-3.9065,-3.8556,-3.8856,-3.8796,-3.8571,-3.8856,-3.9155,-3.9424]}]]